GFSGBSN_850_spd_000.txt.gz
Wind_Speed
6 8 8 8 8 7 7 5 4 2 1 3 5 7 9 10 12 14 15 14 15 14 9 7 6 3 6 9 8 13 11 8 11 11 15 14 15 7 4 3 4 4 2 3 2 5 4
6 7 8 9 9 8 6 4 3 2 3 5 8 11 13 15 16 16 15 14 14 12 8 8 6 6 7 8 12 14 5 5 7 13 15 17 11 8 6 4 4 2 1 2 1 3 1
6 7 8 10 11 8 6 6 6 7 8 11 15 17 17 17 17 16 15 15 14 10 9 8 8 8 12 7 10 12 9 6 7 10 13 12 12 7 4 3 5 4 5 6 8 5 2
5 7 10 11 11 9 7 8 9 10 13 15 17 17 17 17 16 15 16 15 12 11 8 8 9 10 8 8 8 7 11 2 3 7 8 9 9 7 6 2 6 6 6 5 6 4 5
4 8 10 11 12 10 8 9 10 11 13 14 15 16 17 17 17 16 15 13 12 11 6 6 7 6 4 6 10 11 16 8 5 8 7 6 7 7 7 4 5 8 1 2 7 7 5
4 7 9 12 13 10 8 9 10 11 12 13 15 17 17 16 14 11 12 13 12 7 4 5 8 6 9 8 9 10 10 8 6 6 5 7 7 5 5 6 1 2 2 2 3 6 7
4 6 8 11 12 11 8 8 9 10 11 12 15 16 15 14 12 11 13 15 8 7 14 11 8 7 8 6 10 15 8 7 7 10 5 7 8 3 3 2 0 0 1 2 3 1 5
4 5 7 9 11 12 8 6 7 9 9 11 13 14 13 12 11 12 11 8 8 5 7 11 12 10 9 10 9 22 12 6 8 4 2 7 4 2 5 5 3 3 2 4 5 3 0
4 5 6 7 10 12 9 5 6 7 9 10 12 13 13 11 10 10 10 13 8 4 5 7 8 8 6 8 10 15 14 6 6 6 5 5 1 5 4 5 6 4 2 2 5 6 1
5 5 5 6 9 11 11 5 5 6 9 10 11 11 10 9 7 13 13 8 5 3 5 8 6 6 8 3 6 18 10 6 6 3 2 4 4 5 6 4 2 4 2 2 4 2 1
5 5 6 6 8 11 12 7 4 3 7 11 11 11 9 7 8 9 9 5 3 1 5 5 5 4 9 7 1 20 12 7 4 4 4 2 3 6 7 3 1 6 4 2 1 2 3
5 3 4 6 7 10 13 8 4 3 4 10 12 11 9 7 9 8 6 2 2 7 1 3 3 5 5 13 6 9 17 9 7 6 7 2 2 3 2 2 2 6 3 5 4 2 3
6 2 2 5 7 9 12 10 3 3 4 7 11 12 10 8 6 5 4 2 5 6 3 2 3 4 5 6 6 7 7 9 5 4 6 6 4 5 4 5 6 9 6 3 5 5 4
6 3 0 3 6 8 11 12 5 4 6 7 8 10 11 8 4 5 4 5 6 3 1 1 3 5 5 4 5 7 3 6 5 5 3 4 5 5 6 1 2 3 4 4 2 1 5
7 4 1 2 5 7 10 13 6 6 7 7 9 9 9 8 7 6 3 5 6 5 1 2 3 5 4 3 4 5 4 2 3 4 3 3 3 5 1 2 1 2 4 2 5 2 3
9 5 2 1 3 6 8 11 8 7 7 9 11 12 9 8 7 5 5 3 1 4 1 2 3 1 2 5 3 4 2 1 2 5 0 1 2 1 4 1 7 6 4 4 4 2 4
10 7 4 1 1 4 6 9 9 5 7 6 4 5 5 6 6 3 4 4 3 4 3 3 3 3 3 2 3 2 1 2 3 3 7 2 2 5 2 5 2 4 3 5 3 3 3
11 8 5 3 2 2 4 6 9 5 6 4 2 4 3 6 4 3 2 2 3 3 8 5 5 3 3 3 3 2 2 3 6 3 3 2 4 3 4 1 1 2 3 4 4 4 2
12 9 7 5 3 2 3 4 6 8 6 5 4 4 6 4 3 2 0 4 5 3 5 3 3 4 5 3 4 3 4 3 6 4 2 0 2 3 8 5 4 3 2 3 5 3 6
14 11 9 7 5 3 2 2 3 6 5 5 3 2 5 7 7 6 5 2 4 7 6 8 4 5 5 5 6 2 2 3 7 4 5 2 2 5 5 7 4 5 4 4 4 3 4
17 13 10 8 7 5 3 2 1 3 4 3 3 2 2 0 4 6 4 2 3 3 4 6 5 4 4 3 3 2 2 5 5 4 3 4 2 4 5 8 7 11 11 8 8 8 6
18 15 13 11 9 7 5 3 1 0 1 1 3 5 5 5 4 5 5 1 4 2 3 2 6 2 4 4 4 2 3 2 5 2 2 3 3 1 4 3 5 8 11 11 9 6 11
18 16 13 12 11 8 6 5 3 2 2 1 4 8 4 3 3 4 2 4 4 7 5 4 12 4 2 5 6 4 7 6 2 2 2 0 3 2 5 4 8 8 5 4 3 6 6
19 17 14 12 11 10 8 7 5 5 4 2 7 7 4 2 2 3 3 3 4 3 7 6 7 4 4 4 3 5 6 5 5 6 7 5 4 2 3 4 2 8 2 7 7 8 10
19 17 15 13 12 11 9 8 7 7 6 5 8 4 3 2 2 3 8 7 8 7 4 5 3 4 8 2 4 6 5 6 3 5 2 6 5 2 3 3 6 9 8 1 4 7 4
20 18 16 15 14 12 11 9 8 8 7 7 7 5 3 10 6 8 6 7 3 2 2 3 5 9 5 5 4 3 2 4 4 5 7 5 5 3 1 3 5 7 3 3 2 6 1
21 20 18 16 16 14 12 10 10 10 11 9 7 6 4 3 5 11 4 7 6 5 3 2 4 3 3 2 2 3 3 2 2 2 3 1 1 6 6 5 8 9 9 1 3 3 19
22 21 20 18 16 16 14 12 11 11 11 11 9 8 7 3 6 9 7 7 7 6 4 6 4 0 4 3 3 3 2 5 2 4 4 4 3 4 2 3 8 4 2 2 10 18 22
25 24 22 20 18 16 15 14 12 12 12 11 9 9 8 5 2 11 10 8 8 5 7 10 2 4 6 4 1 3 3 2 4 3 1 4 7 3 8 7 6 4 16 30 24 22 17

GFSGBSN_850_spd_003.txt.gz
Wind_Speed
4 5 7 8 9 9 9 7 5 5 5 4 5 7 8 10 11 15 18 18 18 14 10 8 7 6 10 12 10 10 7 7 9 9 13 12 10 6 3 4 5 5 1 4 3 5 3
4 6 7 8 8 8 6 4 3 1 1 4 6 9 11 14 17 19 19 18 17 12 11 9 7 8 10 13 11 10 4 3 6 10 13 11 7 10 8 3 5 3 5 4 5 1 3
5 6 8 8 9 7 5 5 4 4 6 9 11 14 16 18 19 19 19 19 15 13 11 9 9 14 14 7 8 8 5 2 5 7 11 11 12 6 3 3 3 4 4 2 13 5 4
4 6 8 9 10 7 6 6 7 9 11 14 15 16 17 17 18 19 21 18 14 13 10 10 10 11 8 7 7 9 3 3 4 5 10 10 9 15 7 4 6 5 5 3 5 9 5
4 6 8 10 10 7 7 8 10 11 13 13 14 16 16 16 17 19 19 16 14 10 7 8 8 8 4 5 7 10 7 9 6 11 11 9 12 11 7 3 3 8 2 4 5 5 5
4 5 7 9 10 7 7 9 10 11 12 14 17 18 18 17 17 17 17 15 12 6 4 9 9 7 6 6 12 6 8 8 8 7 7 10 8 5 5 5 1 1 1 1 3 5 5
4 4 7 9 10 8 7 8 10 10 11 13 16 17 16 14 14 15 16 15 9 14 16 11 11 13 9 10 17 12 8 10 11 11 5 10 9 5 2 1 2 2 2 2 3 2 4
4 4 6 8 10 9 7 8 9 10 10 13 14 15 13 12 13 13 13 9 7 9 11 15 13 12 15 13 12 19 11 6 8 4 2 6 4 1 4 3 2 2 3 1 3 1 1
4 4 4 7 9 10 6 7 7 10 10 12 14 15 13 12 11 12 12 11 10 6 6 10 12 12 7 19 14 16 10 6 7 6 6 5 1 3 2 4 4 1 2 2 3 6 2
5 5 4 7 9 10 7 6 6 9 11 12 13 13 11 9 9 13 13 9 6 3 5 9 7 7 6 3 7 17 10 5 7 3 3 5 4 3 3 3 2 2 2 3 3 1 1
5 5 5 6 8 10 9 5 6 7 10 12 12 11 10 6 9 9 11 6 4 0 5 5 5 6 13 11 1 20 11 17 4 3 2 0 3 4 5 2 1 2 2 1 1 3 2
6 4 5 6 7 10 10 5 6 5 9 12 12 11 8 7 8 10 8 3 1 6 1 2 3 4 7 13 7 10 11 11 5 5 6 2 2 3 2 2 1 4 2 3 2 2 1
6 3 4 6 6 9 11 8 5 5 7 12 13 12 9 7 9 7 5 1 4 5 3 1 3 5 5 5 5 7 6 10 5 3 5 5 3 5 5 4 3 8 3 1 2 3 1
7 4 3 4 5 8 12 10 7 6 7 9 13 13 11 9 6 6 4 5 6 2 2 2 4 3 4 3 4 6 3 5 6 5 3 4 1 4 6 2 2 4 3 2 1 2 4
9 5 3 4 5 7 11 12 8 9 8 9 12 12 11 8 6 6 2 5 6 5 3 5 3 4 2 2 4 4 4 2 3 4 3 3 2 3 4 3 2 2 5 1 5 1 2
10 6 3 3 4 6 10 12 7 9 8 10 11 11 10 9 8 6 4 3 1 4 2 2 3 2 2 3 3 3 2 2 3 6 1 1 2 2 3 1 8 4 4 1 3 3 3
11 8 4 2 3 4 8 11 8 8 9 8 8 5 6 9 8 3 4 3 3 2 2 3 3 3 3 3 3 2 2 4 5 3 7 1 1 2 1 4 1 2 2 5 3 1 1
13 9 5 2 2 3 5 9 10 7 8 7 4 3 5 11 4 3 3 5 4 2 6 5 5 4 3 3 4 3 3 1 5 3 2 2 2 1 2 1 1 1 3 3 2 2 1
14 10 7 3 1 1 3 6 9 7 8 6 4 5 5 9 3 1 1 3 5 2 5 3 3 3 3 3 4 3 3 1 7 3 1 1 2 2 2 2 2 1 2 4 4 2 7
16 12 8 5 3 1 1 3 7 8 6 6 4 2 4 4 6 7 5 2 4 6 5 7 4 4 4 4 5 3 2 1 3 3 4 1 2 4 4 3 2 5 4 5 5 4 6
16 14 10 7 5 3 1 1 3 5 5 4 2 2 3 1 3 6 4 3 4 3 4 4 4 3 5 3 2 2 1 2 2 2 2 3 3 3 4 8 6 10 12 11 12 12 7
17 15 12 9 7 5 3 1 1 2 3 3 3 5 6 5 5 5 5 1 4 3 2 2 6 3 4 5 5 4 3 2 3 1 2 2 2 1 3 5 5 9 12 12 12 12 12
18 15 13 11 9 7 5 4 2 2 2 2 4 8 5 3 2 4 2 5 5 7 5 4 14 5 3 6 6 3 6 3 2 3 2 0 3 1 3 5 9 6 3 4 3 5 4
18 16 14 11 10 9 7 5 4 3 3 3 4 7 4 1 2 3 4 3 5 3 7 7 7 5 4 6 5 1 2 4 2 4 2 4 3 1 2 5 1 2 2 6 7 12 7
18 17 15 13 11 10 8 7 5 5 3 3 6 3 4 2 2 4 9 8 11 8 5 6 3 5 9 4 3 5 4 5 3 8 4 3 4 2 2 3 7 10 6 3 5 6 2
16 17 15 14 12 11 10 9 7 5 3 4 6 5 3 11 6 8 7 9 4 3 3 4 6 9 5 5 3 2 1 3 3 2 5 4 3 2 2 3 5 5 1 3 4 6 4
15 17 16 14 13 12 11 10 9 7 7 6 5 6 3 5 9 12 4 7 6 6 3 3 5 4 4 2 2 2 3 0 2 1 2 1 1 5 5 5 8 8 5 3 1 3 9
17 17 17 16 14 13 12 11 10 9 8 8 7 6 5 4 11 9 8 8 8 7 4 9 5 0 4 3 3 3 2 3 2 2 3 3 3 4 2 4 7 3 3 2 5 18 14
19 17 18 17 15 13 13 12 11 10 9 9 8 7 7 4 4 9 8 6 6 6 8 14 3 5 7 4 2 3 3 2 3 3 0 4 6 2 7 6 6 3 5 11 7 8 10

GFSGBSN_850_spd_006.txt.gz
Wind_Speed
3 5 6 8 10 11 11 10 8 8 7 6 5 6 7 8 10 13 17 19 18 14 10 8 11 14 10 7 6 4 6 8 10 8 8 7 7 5 5 10 14 13 10 9 5 5 3
2 3 6 8 10 9 7 6 5 4 4 4 5 6 8 10 14 19 21 21 17 12 9 9 11 12 7 8 6 5 1 4 5 6 6 4 4 8 7 6 1 6 8 7 4 5 3
1 3 6 8 9 6 4 2 1 1 3 5 7 9 12 17 20 21 22 20 15 12 10 10 11 12 7 5 4 3 0 1 1 4 6 8 9 3 7 9 5 8 10 6 6 4 2
1 3 6 7 8 4 3 5 6 8 10 12 13 16 18 20 22 23 23 18 15 11 10 11 15 12 5 6 3 1 3 5 4 5 8 9 12 9 4 7 4 5 4 6 7 1 2
0 2 5 8 6 4 5 7 10 11 12 14 15 16 17 19 22 23 20 17 13 10 8 11 9 6 6 3 2 1 9 7 6 9 10 8 8 6 4 6 6 2 2 1 6 4 4
1 2 4 7 6 4 6 9 11 12 13 15 16 17 18 18 20 19 17 15 10 7 8 9 7 8 3 4 1 4 8 9 6 8 5 3 4 4 4 3 1 2 3 3 1 6 6
3 1 4 6 6 4 6 9 11 13 15 16 16 17 16 17 17 18 17 13 8 8 10 6 7 9 6 4 11 5 8 7 5 5 3 6 4 6 7 6 3 1 1 2 3 4 7
4 2 3 5 6 4 7 9 11 13 16 16 15 15 15 16 16 16 13 4 7 13 13 12 14 13 12 7 8 11 5 2 2 5 3 4 8 4 4 3 1 1 2 2 2 1 5
5 4 3 5 6 4 7 9 11 13 15 15 15 15 13 13 13 12 10 9 15 8 8 8 9 5 3 12 9 12 8 6 8 8 4 5 6 2 1 6 4 2 2 4 4 4 3
6 5 4 4 6 5 6 10 12 13 15 15 14 12 11 12 10 12 10 9 9 4 3 3 2 5 3 2 6 11 6 2 3 8 7 8 3 2 2 5 7 1 2 8 7 6 4
7 5 4 5 6 6 4 9 11 13 15 15 14 12 10 8 11 8 10 7 6 1 2 1 5 5 8 5 0 13 9 9 6 4 4 4 5 5 5 4 6 5 8 5 4 6 4
7 5 4 4 6 6 4 8 10 13 15 16 14 12 9 7 9 10 7 4 2 3 3 4 2 4 8 13 7 5 7 10 3 7 10 6 3 4 5 3 2 6 3 1 1 2 4
8 5 4 4 5 7 5 6 9 11 16 16 15 13 10 8 7 9 7 2 3 3 1 6 5 4 8 6 7 11 14 12 5 2 3 3 5 2 7 3 4 8 2 2 2 4 1
9 6 3 4 5 6 7 7 8 10 14 17 16 13 10 8 9 8 6 3 4 2 1 3 5 7 4 3 6 6 4 10 13 6 3 3 4 8 9 5 5 6 6 3 2 2 4
10 7 4 3 5 6 8 8 10 11 12 17 17 14 11 10 7 7 4 2 3 4 5 7 8 4 4 4 2 3 9 6 9 10 4 2 3 3 6 6 4 3 4 1 3 1 3
12 8 5 4 4 6 7 8 11 11 13 16 16 14 11 9 8 7 1 2 2 1 2 4 4 1 4 4 2 2 3 4 2 8 4 2 2 1 1 3 8 4 3 1 2 3 4
13 9 7 4 4 6 7 8 11 12 14 15 15 7 9 10 9 3 2 3 3 2 1 2 4 4 5 4 4 3 3 3 3 3 5 4 3 2 3 2 2 3 2 2 1 2 3
14 10 7 5 4 6 6 8 10 13 12 12 6 4 10 13 4 2 4 4 3 4 3 4 5 5 4 3 4 3 3 2 2 3 2 4 1 2 1 2 3 2 1 1 2 2 2
15 11 9 6 5 5 6 7 9 13 12 9 5 5 7 12 3 3 4 4 4 3 3 3 3 2 3 4 4 4 3 3 3 1 2 1 0 2 3 4 3 5 3 2 1 1 8
15 12 10 7 5 5 5 6 8 11 11 9 5 3 3 2 3 9 10 5 5 5 5 7 5 7 7 5 4 6 5 3 1 1 1 1 2 4 5 6 4 6 7 7 8 5 8
18 14 11 8 6 5 6 5 5 8 9 8 3 2 3 4 4 10 6 6 11 5 3 3 4 3 5 4 4 4 3 4 2 2 1 2 3 4 8 11 13 12 14 12 15 15 11
18 14 12 10 7 5 5 5 5 5 6 4 4 4 4 4 7 11 1 7 9 5 2 4 7 7 5 5 2 5 3 3 1 3 1 2 1 4 4 8 10 12 15 15 13 13 13
19 16 13 11 9 6 5 5 5 5 5 3 5 8 5 1 3 3 3 7 9 9 5 5 15 10 8 8 5 6 5 5 3 1 2 1 1 1 4 9 13 6 4 4 3 4 8
19 17 15 12 10 8 5 5 5 5 5 5 6 7 3 3 2 3 8 6 12 3 8 9 6 6 4 8 8 7 9 7 4 4 1 3 2 1 3 5 3 3 5 9 13 13 8
19 17 15 13 12 10 8 6 5 5 6 5 8 4 3 3 4 5 10 11 11 9 10 9 4 7 10 4 2 3 1 2 4 6 3 2 3 2 2 4 15 12 3 2 2 11 4
17 17 15 14 12 11 9 8 6 6 6 7 7 6 4 12 5 7 8 12 6 5 5 4 7 12 5 3 2 2 1 1 3 4 4 5 4 2 2 4 4 3 4 5 4 8 4
17 17 16 14 13 12 10 9 7 7 7 8 8 7 5 6 8 11 5 8 7 6 5 5 6 3 3 2 2 2 2 1 2 2 4 2 2 4 6 6 8 6 5 1 3 3 14
17 17 16 15 14 14 12 10 9 8 8 9 8 8 6 4 12 9 9 11 8 8 5 9 6 2 3 3 3 3 2 3 3 2 3 3 2 4 3 4 6 2 2 2 5 12 7
16 17 16 16 14 14 13 11 10 9 8 8 8 7 8 5 8 11 9 10 10 10 11 13 1 6 7 4 3 3 3 1 1 3 4 4 5 4 7 6 7 13 11 7 7 7 7

GFSGBSN_850_spd_009.txt.gz
Wind_Speed
6 7 9 11 13 14 15 15 13 11 10 9 9 9 9 10 10 11 13 16 17 15 11 9 11 12 6 5 5 0 5 8 8 1 7 7 5 3 4 7 7 10 9 9 9 7 2
5 6 8 10 12 13 13 11 10 9 8 7 6 7 8 10 12 14 17 18 17 12 10 10 13 12 8 6 0 1 4 4 3 2 3 3 1 1 4 6 1 7 9 9 7 6 4
4 5 7 9 11 11 9 8 7 5 4 4 5 7 10 12 16 20 21 19 14 11 10 12 14 12 8 4 1 3 5 3 4 3 2 1 2 5 8 6 5 9 9 8 7 8 5
5 4 5 8 9 8 6 4 3 1 3 5 7 10 14 19 22 23 21 17 13 9 9 11 14 12 1 3 2 2 3 3 2 2 4 6 4 3 4 6 7 11 10 11 8 9 5
5 4 4 7 8 6 3 1 2 5 7 10 12 16 20 22 24 23 18 14 11 9 10 11 10 5 3 2 2 4 2 3 2 2 6 6 3 4 6 11 10 9 11 5 8 3 2
5 3 3 6 7 3 0 3 5 7 9 11 13 15 18 20 21 18 15 12 10 9 9 6 4 7 2 1 3 1 2 3 5 6 6 5 7 9 9 9 7 7 5 9 4 7 7
6 4 2 4 5 1 3 5 6 8 10 12 14 15 16 18 18 16 15 12 8 6 4 4 8 5 7 4 5 4 3 4 7 10 9 5 10 5 10 7 7 5 5 5 6 4 6
6 4 1 2 4 1 5 7 8 10 11 13 14 15 16 17 17 15 13 3 3 10 11 9 9 9 4 3 8 5 1 8 10 8 5 9 7 4 2 2 3 3 4 2 3 2 5
7 5 2 1 2 2 6 8 9 11 12 12 12 13 14 14 14 13 4 3 17 8 8 7 4 6 4 6 5 6 2 3 4 5 4 9 8 2 3 3 7 4 7 6 9 4 8
8 5 3 1 1 2 7 9 11 13 13 13 13 14 15 14 11 9 4 9 8 1 3 5 3 3 0 1 5 7 4 2 0 6 8 7 4 2 2 4 9 6 4 7 8 7 7
9 6 4 2 1 2 7 10 12 14 15 14 12 11 12 11 8 8 7 6 6 5 3 2 5 2 3 3 2 6 6 1 3 6 5 5 2 2 3 5 6 7 7 7 8 9 8
10 7 5 3 1 1 5 11 13 15 16 15 12 9 8 5 7 9 8 6 3 4 3 5 3 6 11 10 7 5 6 7 3 5 9 8 3 5 6 4 3 7 7 6 6 5 5
12 8 5 3 2 1 4 10 13 16 17 16 14 10 9 10 7 9 7 6 4 4 3 7 8 4 8 8 7 9 7 6 1 4 3 7 5 4 7 7 5 9 6 3 3 4 2
13 10 6 4 2 1 2 9 12 16 19 17 15 12 9 8 8 9 6 6 5 3 5 5 8 8 4 6 4 4 4 9 10 6 3 3 7 6 6 6 6 5 7 3 4 2 4
14 11 7 5 3 1 2 9 11 14 19 18 16 12 7 8 8 8 9 6 3 6 7 11 12 8 7 5 2 4 10 8 8 10 4 3 4 5 5 6 6 3 4 3 2 1 3
14 12 8 6 4 2 3 9 11 13 17 19 12 11 8 10 8 8 5 2 2 2 2 13 6 4 6 7 5 3 2 4 3 8 5 3 2 2 3 4 4 8 3 3 1 3 4
15 12 9 7 5 4 4 8 12 13 18 20 12 10 8 10 9 9 5 2 5 6 2 3 3 4 6 5 3 3 3 5 3 4 5 7 3 5 3 2 7 2 1 3 4 4 4
16 13 10 8 6 5 5 7 12 15 18 17 10 5 11 13 9 6 5 6 4 8 4 3 2 4 5 4 3 3 4 5 3 5 4 6 2 2 4 3 3 4 4 4 2 2 3
17 14 11 8 7 6 6 7 13 16 18 10 5 6 11 14 4 3 5 6 3 7 3 4 3 1 3 5 3 6 5 5 4 5 7 6 1 3 5 6 4 4 1 2 1 2 9
18 15 12 9 8 6 6 7 12 15 16 8 6 3 6 9 4 9 9 9 7 3 4 4 7 7 8 6 4 7 7 4 2 4 4 2 1 3 5 9 8 8 9 9 10 7 10
19 16 13 9 8 7 6 6 9 12 13 9 2 2 5 7 7 10 10 10 11 6 3 7 5 4 7 4 6 4 6 6 3 2 1 3 2 5 10 12 11 12 13 13 15 14 13
20 16 13 11 8 7 6 5 7 9 11 5 5 4 3 3 8 10 5 10 13 5 9 7 7 8 5 6 2 6 4 3 2 4 1 2 1 4 4 7 10 14 16 18 16 10 13
19 17 13 11 9 8 7 6 6 6 8 3 4 9 7 4 9 8 7 9 10 11 2 5 12 8 9 9 10 9 8 5 4 2 2 2 1 4 4 11 13 6 3 1 4 7 7
20 17 15 12 10 8 7 6 6 6 6 5 7 6 5 4 8 8 8 10 11 7 8 11 9 9 6 10 11 10 10 6 3 3 1 4 1 2 3 7 3 5 9 13 10 9 9
21 19 16 13 11 9 8 7 6 7 7 6 10 5 4 3 7 6 11 14 11 12 15 12 6 8 11 3 2 2 1 3 1 4 3 1 3 2 2 5 14 10 5 6 8 13 10
22 20 17 15 12 11 9 8 7 7 7 7 8 6 3 13 5 11 12 16 11 8 7 5 7 7 4 3 2 2 2 0 5 6 5 4 2 3 3 3 4 2 7 5 7 9 7
21 20 18 15 13 12 10 9 8 8 8 8 7 7 4 6 6 11 9 12 8 11 6 8 8 4 3 2 1 3 3 2 3 3 4 2 2 5 6 5 8 8 3 5 4 3 8
19 19 18 16 14 12 11 10 9 9 9 9 8 8 6 4 7 7 7 9 8 11 5 11 7 3 3 2 3 3 1 4 3 2 4 6 5 4 3 3 6 4 4 3 10 15 7
18 17 18 16 14 13 12 10 10 10 10 9 4 7 7 6 6 11 11 12 10 7 7 14 1 7 9 3 3 3 2 0 1 3 4 4 6 3 8 6 12 9 12 14 7 5 9

GFSGBSN_850_spd_012.txt.gz
Wind_Speed
12 11 11 11 12 14 16 16 15 15 14 13 12 11 11 10 10 10 11 11 13 14 12 8 8 11 8 7 3 3 7 7 4 1 6 10 14 13 7 7 8 6 4 7 8 6 2
11 10 9 9 11 14 14 14 13 13 11 10 10 9 9 9 9 11 12 15 16 14 10 8 10 11 8 10 3 1 4 4 3 6 6 7 4 4 3 5 1 9 6 9 8 8 4
10 9 7 8 11 12 12 12 11 9 8 7 7 7 8 10 12 14 17 19 16 11 8 9 12 12 7 5 1 1 3 4 3 7 7 3 6 6 3 3 2 6 8 6 7 8 5
10 8 6 7 9 10 9 9 8 6 4 2 4 7 10 13 16 20 20 16 11 9 8 11 14 11 7 3 1 2 3 4 2 3 4 2 4 7 7 7 5 9 9 9 11 9 7
9 7 5 6 8 8 6 5 3 3 2 2 5 10 14 18 20 20 16 12 9 7 8 12 13 9 7 2 3 1 2 4 3 3 1 2 3 5 3 9 9 9 9 9 8 7 2
8 7 5 5 6 5 3 3 1 1 2 5 8 11 15 18 19 16 14 11 9 11 11 10 7 8 6 1 1 2 2 3 4 4 4 4 7 8 11 8 3 11 10 5 3 8 5
9 7 5 4 5 3 2 1 1 2 4 6 9 11 14 15 16 16 15 13 8 5 10 7 13 3 5 4 5 3 4 5 4 8 10 9 8 6 12 9 7 9 8 7 13 6 3
10 7 5 4 3 2 2 2 2 4 6 7 9 11 13 15 14 14 10 5 4 7 8 4 6 5 3 3 6 6 3 6 6 11 2 5 4 8 5 7 5 5 5 4 5 6 5
10 7 6 3 2 2 3 4 4 6 8 8 8 10 13 13 11 10 3 2 3 8 7 5 4 5 2 2 5 2 6 4 8 7 6 13 11 5 4 4 8 4 6 9 8 6 8
10 8 6 4 2 3 3 6 6 8 9 8 8 10 12 10 7 6 2 3 3 2 4 7 6 4 3 2 4 2 3 4 4 3 6 8 4 3 1 5 8 4 6 5 8 7 8
11 9 7 5 3 3 4 8 8 10 10 9 8 9 11 11 3 6 3 4 3 6 4 3 5 2 4 3 7 5 1 6 2 3 4 6 4 4 3 7 6 6 4 6 8 9 10
12 10 7 5 3 3 4 8 10 12 12 10 7 8 8 3 2 2 5 3 4 4 3 5 6 7 6 4 3 5 3 5 2 4 10 8 3 7 6 3 2 6 9 9 8 9 3
14 10 8 6 4 2 4 9 12 13 13 12 9 8 6 5 4 5 6 4 4 3 5 7 9 7 9 6 7 6 5 5 3 4 5 7 6 6 7 9 5 8 8 4 2 3 2
15 11 8 7 4 2 3 9 13 15 15 13 11 8 6 5 5 8 5 6 5 4 4 8 9 10 8 6 5 0 10 9 10 12 6 7 6 5 6 7 7 5 6 2 4 5 3
15 12 9 7 4 2 2 8 13 15 16 15 12 8 3 6 5 8 6 5 3 4 8 7 10 8 5 4 2 5 12 8 8 11 7 4 7 6 6 6 8 6 6 3 1 2 1
16 13 9 8 5 2 1 7 12 14 17 17 12 7 8 7 7 8 5 6 1 5 2 10 9 3 7 7 7 6 3 4 4 9 7 4 4 4 3 3 4 5 2 2 3 2 3
17 13 10 8 6 2 2 7 11 14 19 19 11 10 8 10 8 8 5 4 1 2 5 5 3 4 3 4 3 3 5 6 6 6 6 6 3 4 5 6 8 1 2 2 3 0 2
17 14 10 9 6 4 2 7 12 15 22 20 12 6 11 13 8 11 8 2 1 8 2 2 5 2 3 4 2 4 7 8 4 5 4 4 2 1 8 6 3 2 4 3 0 2 1
18 14 11 9 7 5 3 8 13 18 24 17 11 6 15 17 5 4 4 5 4 7 8 5 2 1 2 5 3 6 8 5 5 7 4 5 1 3 8 5 5 1 3 2 4 2 4
18 15 12 9 8 6 4 7 15 19 22 13 7 3 6 10 10 12 7 7 5 2 4 1 5 4 5 5 3 6 9 4 5 7 2 3 1 1 2 6 8 8 11 10 10 4 6
19 16 13 9 8 6 5 6 13 18 18 10 6 6 11 6 8 6 11 9 10 6 5 7 5 6 6 3 6 5 11 8 4 2 1 3 1 5 7 9 8 10 12 12 13 12 9
20 17 13 10 8 7 5 6 8 14 16 13 5 2 6 4 14 9 5 6 11 8 9 9 5 7 7 6 3 6 5 4 3 4 2 4 2 3 3 5 11 14 15 14 14 14 11
21 17 13 11 8 7 6 5 6 9 13 6 4 2 5 2 5 6 6 9 10 10 2 6 7 8 10 12 14 13 12 10 7 4 3 2 1 2 2 11 10 2 3 7 8 8 9
21 18 14 11 9 7 6 5 5 6 9 4 6 4 3 1 5 9 9 9 8 10 6 8 8 10 10 15 14 14 13 9 6 5 4 4 2 2 2 5 3 4 13 11 9 7 8
22 19 16 12 10 7 6 5 5 5 5 5 6 4 3 2 9 7 9 9 12 7 11 15 10 12 14 5 3 2 2 4 2 4 3 3 4 2 1 3 9 9 4 6 5 11 10
22 20 17 14 11 8 6 5 5 6 5 4 6 7 3 8 3 8 10 14 7 8 7 6 7 8 5 3 2 3 3 2 6 6 8 4 5 1 2 2 3 2 7 5 9 7 9
22 20 18 15 13 10 8 6 5 6 6 6 5 6 5 4 4 3 8 10 12 10 5 9 7 4 1 2 2 3 3 2 5 5 4 3 2 4 4 4 6 9 4 5 3 2 8
22 20 18 16 14 11 9 8 7 6 6 7 6 5 6 3 3 4 6 9 6 13 4 12 5 2 3 3 3 3 1 4 1 4 7 7 6 4 3 3 6 1 2 2 7 14 4
20 19 18 16 14 12 11 9 8 8 7 6 1 5 5 5 6 11 11 11 9 5 10 16 3 8 8 3 2 1 2 2 3 3 7 4 6 4 9 5 10 9 5 7 10 9 4

GFSGBSN_850_spd_015.txt.gz
Wind_Speed
14 14 13 13 14 14 16 17 17 16 15 15 13 13 12 10 9 9 11 11 11 12 12 10 10 8 3 5 7 6 3 3 6 8 11 11 17 15 7 6 4 6 7 13 8 8 13
14 13 13 13 12 14 15 16 15 14 13 12 12 10 8 9 9 9 10 11 13 13 10 9 9 5 4 5 1 3 2 5 5 9 13 19 10 12 4 5 5 11 17 13 7 7 5
14 12 12 12 11 13 14 14 12 11 10 9 8 7 8 8 9 10 12 14 14 11 8 8 8 6 7 12 7 2 2 6 4 7 12 3 5 10 7 5 8 11 6 7 7 13 5
13 12 11 11 11 11 12 10 9 7 6 4 5 6 7 9 11 13 15 14 11 8 7 8 8 7 6 4 6 3 4 2 5 6 8 5 4 11 11 10 3 3 3 4 5 12 9
14 12 10 10 9 10 9 7 6 5 3 1 2 5 8 11 14 16 15 12 9 7 7 8 6 5 7 2 7 1 5 6 2 4 4 2 3 4 2 2 3 2 5 5 5 16 5
14 11 10 8 8 8 6 4 3 3 3 3 5 8 12 16 17 16 14 11 7 7 8 7 5 3 11 3 5 5 3 5 1 3 5 4 4 3 5 4 3 4 5 6 7 2 4
14 12 9 7 7 6 4 2 1 2 3 5 8 11 13 15 16 15 13 9 7 2 12 11 10 9 5 5 8 7 5 2 3 7 4 9 5 4 3 2 3 4 5 10 4 5 2
16 12 9 6 6 4 3 1 1 4 5 8 9 10 12 14 13 13 13 3 4 1 7 11 8 4 3 2 8 8 5 3 3 5 7 3 4 3 4 2 3 4 6 5 4 4 3
16 13 9 7 6 4 3 3 4 5 7 8 9 10 12 11 9 11 5 5 8 3 4 3 3 6 1 4 6 4 3 6 9 6 4 7 2 3 3 8 9 7 5 5 4 6 4
17 13 10 7 5 4 4 5 6 7 7 8 8 9 10 8 7 6 7 3 7 5 4 5 4 4 1 6 4 1 3 5 3 2 9 6 1 4 5 7 6 4 5 5 5 4 3
17 15 11 8 6 4 5 7 7 8 8 9 8 9 10 10 3 2 5 3 2 6 4 5 4 6 5 1 11 1 1 6 4 4 7 3 6 8 8 4 5 2 0 3 3 4 3
19 15 11 8 7 4 6 9 10 10 9 10 9 10 9 3 1 3 5 1 4 5 1 2 6 5 5 5 5 5 1 1 4 9 7 4 10 4 4 4 2 5 4 5 3 2 2
19 15 12 9 7 4 6 11 13 11 11 10 9 9 6 3 3 2 1 0 5 4 5 4 5 7 6 2 6 6 4 6 4 3 3 5 4 3 5 3 1 4 6 3 4 4 3
19 16 13 10 7 4 6 12 14 13 13 11 10 7 4 5 2 5 2 4 1 5 3 6 5 7 6 4 3 2 7 4 8 6 3 5 3 6 7 5 2 5 4 4 1 1 4
20 16 13 10 7 4 5 11 15 15 15 13 11 7 6 4 3 5 2 3 5 4 6 6 5 5 4 1 0 6 6 4 5 7 5 4 3 3 6 4 3 5 5 1 5 1 3
20 16 13 10 7 4 5 10 15 16 17 15 12 8 5 7 4 4 4 4 1 5 4 5 6 6 7 7 5 4 4 5 2 6 5 5 4 3 3 2 5 5 2 5 4 1 2
20 16 13 11 7 5 4 9 14 16 18 17 12 6 9 7 6 3 2 5 4 7 11 5 3 2 2 7 5 4 4 5 7 4 10 5 4 3 2 5 4 4 3 4 2 4 4
20 17 13 11 8 5 4 9 13 16 21 21 11 1 11 12 4 4 2 3 2 3 4 3 4 5 4 5 6 6 4 4 9 9 3 3 4 3 3 2 2 1 3 4 4 3 1
20 17 13 10 8 5 4 9 14 18 25 23 6 4 12 15 3 3 6 3 1 6 4 1 5 6 5 4 5 9 5 7 10 5 1 3 2 3 4 4 5 1 3 5 6 3 4
21 17 13 10 8 6 4 8 15 21 28 19 3 2 4 10 8 5 5 3 2 6 2 5 6 3 4 4 4 4 4 3 6 4 3 3 3 5 5 3 0 2 5 4 6 3 4
21 18 14 11 9 7 5 8 15 22 26 12 4 4 10 3 5 5 6 8 6 2 1 3 1 4 5 3 5 5 5 4 2 1 2 3 3 4 4 5 4 4 6 7 4 5 5
21 18 14 11 9 8 6 8 12 18 19 14 4 3 14 11 18 4 5 5 8 8 6 4 4 5 8 4 1 6 8 5 4 5 3 4 1 2 2 7 7 4 7 7 7 6 4
21 18 15 12 9 8 7 7 9 15 16 9 4 2 3 3 5 3 3 1 2 9 3 4 5 12 14 7 21 18 19 16 10 5 2 3 4 3 2 5 5 4 3 5 3 3 2
22 19 16 12 10 8 8 7 8 11 12 5 4 2 4 2 2 4 6 6 5 7 6 13 18 10 12 19 19 17 19 17 14 10 7 4 3 3 2 4 2 4 3 4 5 4 6
22 19 16 13 11 9 7 7 7 9 10 6 5 4 3 1 2 3 4 3 18 26 15 19 13 19 18 7 4 4 5 7 5 6 5 5 4 3 3 1 6 5 2 3 4 3 7
23 20 17 14 12 10 8 7 7 7 7 7 8 7 5 8 4 6 4 21 6 4 4 5 13 10 5 5 4 4 4 5 4 3 12 7 6 4 2 4 6 5 4 6 2 3 4
23 20 18 15 12 10 9 7 7 7 7 6 7 7 5 4 6 5 2 7 10 8 4 6 4 3 3 3 2 3 3 2 5 7 3 3 3 4 4 3 7 8 5 5 3 6 7
23 21 18 16 13 11 9 8 7 7 6 7 8 8 6 4 3 4 4 8 16 15 5 10 5 1 4 3 3 3 2 4 2 6 7 7 6 4 3 3 7 11 6 7 6 5 11
23 20 18 16 13 12 10 8 8 7 7 6 8 7 7 4 3 5 5 7 12 12 14 21 6 7 8 4 1 3 1 0 2 3 4 2 7 6 9 6 9 14 13 14 8 5 10

GFSGBSN_850_spd_018.txt.gz
Wind_Speed
19 17 15 14 14 14 15 16 17 18 17 18 17 16 14 12 11 11 10 11 10 10 11 11 7 4 4 6 10 6 2 4 5 10 12 14 10 11 6 7 7 6 5 11 13 13 11
18 16 15 14 14 13 14 16 16 15 15 15 14 13 11 10 10 9 9 10 10 11 11 9 5 4 6 5 4 6 2 6 4 3 8 11 14 10 11 7 9 8 13 9 9 9 6
19 16 14 13 13 13 14 14 13 12 12 12 11 11 9 9 8 9 9 10 11 12 10 6 5 6 8 12 5 1 5 8 3 5 5 8 2 3 3 4 20 22 6 3 2 4 3
19 17 14 13 12 12 12 12 9 8 9 8 8 7 7 8 8 9 10 12 13 11 7 5 5 5 8 5 8 4 5 2 2 2 3 5 3 8 9 5 5 5 6 3 3 5 1
19 18 15 13 12 11 11 9 6 5 5 5 5 5 7 9 11 13 15 13 10 6 5 4 4 4 9 7 7 3 4 5 4 1 3 4 5 5 7 5 5 7 2 5 3 9 3
19 18 15 13 11 10 8 6 4 3 2 3 3 6 9 13 16 15 14 10 7 5 5 6 3 2 9 6 7 5 6 3 6 4 4 7 6 5 5 5 2 4 4 2 5 3 2
21 19 16 14 12 9 6 5 3 1 2 4 5 9 13 16 16 14 14 11 6 3 11 8 5 4 4 7 6 6 8 3 2 2 2 6 5 3 4 5 5 4 2 6 3 2 4
23 20 17 15 12 7 5 6 4 4 5 7 10 13 15 16 14 13 13 4 5 5 5 16 10 14 9 4 3 7 6 0 1 3 3 6 2 3 4 6 6 4 8 4 5 6 4
24 21 17 16 12 7 7 7 7 8 8 10 11 13 14 12 11 11 7 5 5 6 3 0 7 7 3 2 3 4 1 1 4 3 2 6 4 2 5 7 8 5 6 3 4 2 4
26 22 18 17 12 8 9 9 10 10 10 11 12 13 12 10 6 4 3 4 5 6 4 3 1 3 2 5 3 1 0 0 4 7 7 5 7 6 5 5 1 2 3 3 3 3 4
27 23 20 17 13 10 11 11 12 12 11 12 13 14 12 11 2 2 1 5 3 3 4 4 1 7 5 2 6 2 3 3 2 3 7 2 4 7 5 0 1 3 1 1 1 3 3
28 24 21 17 14 11 12 14 14 14 13 12 13 13 10 6 2 2 4 2 1 6 2 4 6 5 2 1 3 4 1 4 4 7 7 5 4 3 1 3 1 2 1 6 4 3 3
29 26 21 19 15 12 13 16 16 16 15 13 12 13 9 5 3 1 3 2 5 4 2 4 4 4 4 2 2 4 5 6 4 5 4 5 4 5 5 4 6 7 5 3 4 4 4
30 26 22 19 15 13 14 18 18 18 17 15 14 13 9 5 3 4 2 4 2 4 3 3 5 4 4 4 6 3 3 4 6 5 3 4 3 4 6 2 1 4 4 4 4 2 3
30 25 23 19 15 13 15 19 20 20 19 17 14 11 8 5 3 3 2 3 5 3 2 7 5 5 3 2 6 6 4 2 1 2 5 4 1 2 1 2 2 3 4 4 6 3 3
30 26 22 19 15 14 15 19 22 22 20 17 14 10 8 7 4 2 4 4 2 3 3 5 6 5 4 6 4 4 2 2 1 5 3 3 4 1 2 5 7 6 2 4 4 2 1
30 27 22 19 16 14 14 18 22 23 22 19 15 7 9 9 4 2 3 5 1 6 7 4 1 4 6 7 6 3 2 3 5 4 6 2 4 4 3 3 0 5 3 5 4 3 4
30 26 22 19 16 13 14 18 23 24 24 22 14 2 11 11 3 1 2 4 1 4 4 4 3 4 4 4 5 3 3 2 8 3 3 2 5 3 1 3 1 2 3 4 4 2 2
29 26 21 18 15 13 14 18 23 25 28 25 14 5 10 14 3 2 5 3 2 2 1 1 2 4 3 4 6 3 4 4 10 4 2 3 2 3 6 6 5 4 2 5 6 3 4
29 25 21 18 16 13 14 18 23 27 29 24 8 3 4 7 2 6 2 1 3 5 2 4 3 6 5 4 5 4 3 3 5 4 3 2 3 5 6 4 3 1 2 4 5 3 3
28 24 21 19 16 14 13 17 22 28 30 21 5 4 9 4 3 3 3 5 3 2 1 4 4 3 5 3 3 4 3 2 4 2 3 3 3 1 3 4 2 0 2 2 5 4 5
27 24 21 19 16 15 13 15 19 26 30 16 4 3 9 9 14 5 5 6 8 3 4 0 3 3 5 4 5 7 7 3 4 2 2 4 0 2 1 4 6 3 4 4 4 3 3
27 23 21 19 17 15 13 14 18 22 26 10 5 4 8 1 6 4 4 6 8 9 0 3 13 8 10 4 17 17 12 11 9 6 2 3 4 3 3 4 5 5 5 3 1 3 3
26 23 21 19 17 15 14 14 15 21 23 10 5 3 4 1 3 6 3 3 5 3 7 8 14 7 12 22 20 21 24 21 19 12 5 4 4 3 2 3 1 4 3 4 7 3 8
26 23 20 18 17 15 14 15 14 18 19 12 7 3 4 1 1 1 3 12 20 20 8 9 4 11 22 7 5 5 5 6 4 6 7 4 5 3 3 3 5 2 5 5 5 5 6
26 22 20 17 16 15 14 15 14 15 15 10 9 7 4 8 3 1 7 19 6 4 5 5 19 11 6 6 4 4 4 5 3 2 8 6 6 4 2 4 6 5 3 9 8 4 15
26 22 20 17 15 14 13 13 13 13 13 11 10 10 6 5 4 3 4 8 12 7 4 3 4 4 4 2 3 3 4 4 5 6 4 3 3 4 2 2 8 7 6 7 5 7 19
26 22 20 17 15 14 13 13 12 12 12 12 12 11 8 5 5 4 7 10 12 12 5 9 5 2 4 4 3 4 3 5 3 5 6 7 6 4 3 2 8 14 6 7 6 14 18
25 22 19 17 15 13 12 12 12 12 12 12 13 11 8 5 6 9 10 10 11 11 14 18 6 6 8 4 2 3 1 1 2 3 3 2 7 6 10 7 6 23 12 18 12 14 19

GFSGBSN_850_spd_021.txt.gz
Wind_Speed
22 23 21 20 19 17 17 16 18 19 21 21 20 21 18 15 13 11 11 11 12 11 10 8 6 6 6 5 9 2 5 2 4 8 11 14 14 9 3 5 3 4 3 3 14 12 16
22 23 21 20 18 17 17 15 17 18 19 20 19 17 15 13 11 9 10 9 9 10 8 7 6 7 6 4 1 4 6 4 6 10 10 15 13 11 7 8 7 10 3 8 7 10 8
23 24 21 19 17 17 16 15 15 16 17 17 16 14 12 11 9 8 8 8 8 8 7 7 7 7 8 10 4 4 4 4 4 2 2 5 8 16 5 5 8 15 6 5 3 1 2
27 24 21 19 18 16 16 14 14 13 14 15 13 11 9 8 8 8 8 8 8 8 7 6 6 5 8 5 8 2 2 2 4 2 0 2 2 4 1 11 7 5 5 4 4 2 1
29 24 22 20 18 16 15 13 12 10 12 13 10 8 8 8 8 8 9 10 8 6 4 4 5 3 8 5 6 2 1 3 7 3 2 5 4 5 5 6 5 6 3 2 2 5 2
29 25 23 21 18 16 14 12 10 10 10 10 7 6 8 9 10 12 13 10 7 4 5 5 2 2 8 3 5 5 4 1 3 1 5 4 4 4 3 4 4 2 1 1 5 5 4
31 27 25 22 19 17 13 11 11 9 8 7 5 6 9 12 15 14 13 10 5 2 10 6 3 5 3 3 7 8 5 2 1 6 4 6 6 2 4 2 3 2 2 3 2 2 6
32 29 26 23 19 17 13 13 11 8 8 7 8 11 13 16 16 14 12 3 5 3 4 15 9 11 13 8 3 6 4 2 3 3 1 7 3 0 8 6 6 6 6 1 2 7 8
33 31 28 24 20 17 14 15 11 9 10 9 11 14 14 14 14 14 9 5 3 4 1 3 9 9 4 5 3 3 2 2 3 3 3 5 2 5 7 7 7 4 3 3 4 5 7
34 32 29 25 21 18 17 16 13 12 12 12 14 15 14 13 10 7 3 2 3 6 4 4 2 3 3 6 3 4 3 2 5 4 7 6 6 5 6 5 3 3 1 2 3 4 4
35 33 31 27 23 20 18 17 15 16 14 14 15 16 15 13 6 5 2 3 2 1 4 3 3 4 4 3 3 2 4 2 4 5 6 2 3 5 6 1 2 3 2 3 1 3 4
37 35 32 28 24 21 20 19 18 18 17 16 17 16 15 8 7 4 1 0 1 6 2 1 3 2 3 2 1 4 4 7 7 6 7 3 2 3 2 1 1 2 4 6 4 3 2
39 37 33 29 25 23 21 21 21 20 19 18 18 16 14 9 6 2 2 2 5 4 1 4 4 3 2 1 4 4 4 6 4 5 3 5 4 5 3 2 3 5 5 2 3 3 4
40 38 34 29 25 24 22 23 22 22 20 18 18 17 13 8 4 1 1 5 1 4 4 2 4 3 4 3 4 4 3 3 6 4 3 4 3 4 5 2 2 3 4 4 5 3 3
42 38 34 29 26 24 23 24 24 24 22 20 21 16 13 9 4 2 2 3 5 5 4 6 4 4 2 2 5 5 3 2 2 3 4 4 1 3 1 2 3 1 4 3 6 3 3
43 39 34 29 26 24 24 24 26 26 25 22 20 16 12 9 5 3 4 5 3 3 2 4 5 4 5 4 4 4 2 3 2 5 2 5 4 1 3 2 5 5 4 3 4 2 1
44 39 33 29 26 24 24 24 27 28 27 23 20 10 13 11 7 3 3 5 4 3 2 3 5 4 5 6 4 2 1 3 3 4 6 3 3 4 2 3 1 4 2 6 5 3 4
44 38 33 29 27 24 23 25 29 30 29 25 18 3 15 14 4 2 3 4 3 2 6 4 4 3 5 4 4 3 4 1 4 0 2 2 5 3 1 5 3 1 3 4 4 2 1
43 38 32 29 26 23 23 26 30 32 31 28 13 5 13 16 4 2 4 3 1 2 3 3 2 2 2 5 6 2 3 1 3 3 3 2 2 3 6 6 5 3 3 5 5 3 4
41 36 31 29 25 22 23 27 31 33 33 26 10 3 4 7 4 7 3 2 1 5 3 3 3 5 4 5 6 4 3 2 2 4 4 3 3 5 6 4 3 3 2 4 5 3 3
40 35 32 28 24 22 23 28 32 35 35 24 7 4 9 4 3 4 5 3 4 2 1 2 3 2 4 4 3 4 2 2 3 2 3 4 3 2 3 4 2 1 3 5 6 5 5
38 34 31 27 23 21 23 28 33 36 36 21 8 5 6 7 18 6 4 5 6 2 4 1 5 3 2 6 6 8 6 3 3 3 3 4 1 1 1 4 5 3 5 7 6 4 7
36 33 30 26 23 20 22 27 31 36 36 19 6 5 8 2 5 5 5 6 8 6 5 2 10 5 4 2 7 12 6 8 7 5 3 3 4 3 3 4 4 6 8 8 5 4 6
36 32 29 26 23 20 21 25 29 34 37 18 8 7 5 2 3 6 7 3 6 5 7 4 9 6 13 29 26 22 26 22 19 12 4 5 4 2 2 3 2 6 3 4 6 4 3
34 31 28 26 22 20 20 24 27 32 30 18 8 6 6 2 2 3 8 7 15 14 5 4 2 8 25 6 5 5 5 6 5 7 7 3 5 3 4 3 5 4 5 7 7 7 7
32 30 27 25 22 20 20 24 27 27 27 19 10 6 3 14 3 9 7 11 5 4 4 4 14 27 5 5 4 4 4 4 1 1 6 5 6 4 2 4 6 6 3 8 6 5 15
31 28 27 24 22 21 20 23 25 27 23 16 10 9 6 8 4 11 4 9 10 7 4 4 6 3 3 3 3 3 3 3 4 5 3 2 3 5 2 4 8 6 6 8 5 7 21
30 27 25 22 21 20 20 21 22 23 22 18 14 11 7 7 6 6 11 12 11 10 5 10 5 1 4 4 3 4 3 5 2 4 6 7 6 4 3 1 8 12 5 8 6 8 20
28 26 23 21 20 18 19 19 19 19 17 14 15 12 9 6 8 11 10 9 12 11 13 18 6 6 8 4 1 3 2 2 2 3 2 3 7 5 9 6 4 20 9 22 9 10 22

GFSGBSN_850_spd_024.txt.gz
Wind_Speed
27 26 26 24 22 21 21 20 20 19 21 20 21 21 20 19 19 17 15 14 11 11 8 8 6 5 5 5 8 6 1 2 10 12 14 14 13 9 5 6 5 5 2 3 9 16 21
29 27 24 25 24 22 21 19 19 19 20 20 20 19 18 17 18 14 12 11 8 8 7 7 7 5 5 4 3 6 6 4 8 12 15 18 8 13 3 5 5 6 3 1 9 13 11
30 29 26 25 24 22 21 20 18 19 18 18 18 17 16 15 14 11 10 9 5 5 6 7 6 6 9 11 1 10 7 5 7 10 13 13 18 9 6 1 2 8 4 5 7 3 4
32 31 29 27 24 22 20 20 18 17 17 16 15 15 12 12 10 8 7 5 4 6 7 6 4 5 9 3 8 6 4 4 5 7 10 7 8 11 5 8 6 5 5 3 3 2 3
34 32 30 28 25 22 20 19 17 16 16 15 14 12 11 10 8 6 6 6 7 7 5 4 4 4 7 2 4 3 4 3 4 3 3 5 10 4 5 5 5 6 3 3 1 2 2
36 34 32 29 26 24 21 18 17 16 14 13 12 9 9 8 6 8 9 10 7 5 5 4 3 3 5 1 4 5 4 5 2 3 3 3 3 4 4 5 4 4 3 0 2 1 10
38 36 33 30 28 25 22 18 16 15 14 12 10 7 7 9 10 12 13 9 4 2 10 7 2 3 1 7 3 5 5 4 2 4 2 5 7 3 3 3 4 5 3 2 2 2 8
41 38 35 31 29 26 23 18 16 14 12 11 8 7 10 13 14 14 14 4 2 0 4 15 13 10 10 8 2 4 4 1 3 3 1 6 4 3 3 3 6 6 5 3 2 6 7
43 41 37 32 31 28 23 19 16 14 13 12 9 10 13 14 15 14 10 2 2 4 2 3 8 7 1 2 3 3 3 3 3 3 3 6 2 2 4 4 8 4 5 1 3 3 6
46 43 38 34 33 29 25 21 17 15 15 13 12 15 16 15 12 11 8 1 1 2 4 5 2 1 2 5 2 2 3 3 4 4 4 5 3 4 5 6 4 3 1 3 5 3 3
49 45 40 36 34 31 26 22 19 17 17 16 16 18 17 17 8 9 4 2 0 1 3 3 2 3 2 3 4 2 3 2 5 4 5 2 3 5 7 1 3 2 5 5 4 5 4
51 47 41 37 36 32 28 23 21 20 20 17 18 19 18 13 10 7 2 2 3 6 3 2 3 2 3 3 2 2 3 9 7 6 6 2 3 3 1 4 4 3 5 8 5 3 2
49 48 42 39 38 33 29 24 23 22 22 19 20 20 20 11 10 4 2 5 5 4 1 3 3 3 3 3 5 4 5 6 4 5 4 6 4 5 3 4 4 6 6 3 3 3 4
50 47 42 40 38 34 30 26 24 24 23 22 20 21 18 12 9 5 3 5 2 3 5 1 4 3 4 2 3 4 3 3 6 5 4 4 4 4 5 2 4 3 5 4 5 3 3
28 46 42 41 38 34 30 27 25 27 25 23 22 22 16 13 9 6 3 4 6 6 3 5 4 4 2 2 4 5 4 2 2 2 5 4 1 3 2 2 2 2 3 3 6 2 2
38 47 43 42 38 34 31 27 27 28 27 25 25 21 17 13 10 7 5 4 4 4 1 4 4 2 4 3 3 4 1 2 1 4 2 5 4 3 3 2 7 2 5 3 3 2 3
37 49 45 43 38 34 30 28 28 30 29 26 21 11 17 15 12 6 4 5 4 5 2 4 4 3 3 4 3 2 1 1 1 3 4 3 4 4 1 4 2 2 2 6 5 3 4
47 50 47 43 39 34 31 28 30 32 31 29 17 3 18 17 5 2 4 5 3 2 3 3 4 3 5 3 4 2 4 1 3 1 3 1 5 2 2 2 2 1 3 4 4 3 1
55 49 47 43 39 34 31 30 32 34 35 30 13 6 16 18 4 1 3 2 3 2 3 2 3 2 3 4 5 2 2 1 2 2 5 4 1 3 6 5 3 2 3 4 5 3 4
50 48 46 42 38 33 30 30 33 36 36 25 12 3 4 6 4 8 4 2 2 1 2 4 4 4 4 4 5 5 3 1 1 3 5 4 3 5 7 4 2 4 4 4 5 3 4
46 46 43 40 37 32 30 31 35 38 38 23 9 4 7 4 2 4 5 4 4 2 2 4 4 3 5 4 3 3 2 2 3 2 3 3 4 2 2 3 1 2 4 6 7 5 6
46 44 41 38 34 30 30 32 37 40 38 17 9 6 5 4 18 7 4 6 7 3 2 1 5 1 2 5 6 8 6 4 4 3 3 3 2 2 1 4 5 4 6 7 5 4 7
44 41 38 34 31 29 29 33 39 42 40 15 8 10 10 0 4 6 6 6 7 7 3 2 7 5 3 1 4 11 7 10 7 5 3 3 5 3 3 4 5 6 9 10 5 5 7
41 37 35 31 29 27 28 33 39 42 40 19 12 11 5 2 3 6 8 4 5 5 7 3 6 5 10 28 27 22 24 22 19 13 5 5 4 3 2 3 2 6 2 3 7 4 7
38 35 32 30 27 25 27 32 38 41 37 24 12 9 5 2 3 3 7 6 13 9 4 4 3 7 25 5 5 5 5 6 5 6 7 4 5 3 4 3 6 4 5 7 8 8 9
35 32 30 28 25 24 27 32 36 39 36 24 11 8 5 14 6 8 6 7 5 4 3 4 9 29 2 5 4 4 4 4 2 1 4 5 6 4 3 3 6 7 3 4 5 5 9
33 31 29 26 24 24 27 30 33 38 36 23 10 8 5 7 7 12 4 8 9 6 4 6 9 3 2 3 3 3 3 2 3 5 3 3 3 4 3 3 8 7 4 4 5 7 9
32 29 27 25 23 23 26 28 32 35 30 22 13 11 6 7 9 8 9 11 11 9 5 11 5 1 4 3 3 4 3 5 2 4 6 7 6 4 3 2 7 9 4 7 6 6 14
30 28 26 24 22 23 24 27 31 32 28 15 9 10 11 8 9 11 10 9 10 10 14 19 7 7 8 4 1 3 2 1 2 3 2 2 6 4 9 6 4 20 7 16 6 7 15

GFSGBSN_850_spd_027.txt.gz
Wind_Speed
28 27 26 25 24 22 22 21 19 19 20 20 20 21 20 22 20 18 15 14 13 11 7 6 6 6 6 6 8 5 5 5 13 14 14 15 14 9 4 6 6 4 4 6 7 5 13
30 28 28 26 25 22 22 21 19 18 20 20 20 20 19 20 17 15 12 12 9 7 5 4 5 5 6 4 3 1 8 1 8 16 17 17 7 12 3 3 6 6 6 5 5 16 14
33 31 29 27 24 24 22 21 20 18 19 19 19 19 18 17 15 11 9 8 5 5 4 5 5 6 11 13 3 8 8 5 7 8 13 16 16 8 4 1 4 10 6 4 5 8 5
35 33 31 28 24 26 23 22 20 19 18 17 17 17 16 15 12 8 7 5 4 5 5 5 4 5 8 3 6 8 5 4 3 7 9 9 7 15 7 6 3 3 4 4 2 5 4
36 34 32 31 26 27 24 22 21 19 17 16 15 16 15 12 10 5 5 5 5 6 5 4 4 5 6 3 6 2 3 3 4 1 5 6 10 6 5 3 3 6 3 2 4 7 5
37 37 35 32 28 28 25 23 21 19 17 14 14 14 13 10 7 6 7 8 7 5 5 4 4 2 4 1 4 3 3 2 1 4 6 7 5 3 2 3 5 4 4 0 3 4 10
35 39 37 35 30 28 27 24 22 19 17 14 13 13 11 10 9 9 11 9 3 3 11 6 2 2 3 8 7 5 4 2 3 4 2 1 3 3 3 2 2 5 4 4 3 2 7
32 41 39 37 32 29 27 25 22 20 16 14 12 10 10 11 11 14 15 5 3 1 4 13 13 13 11 6 2 3 3 2 1 4 3 4 3 2 4 5 5 4 9 4 4 2 5
43 34 40 39 35 31 28 27 24 20 17 14 12 10 12 13 15 16 14 4 2 5 2 3 10 9 3 5 3 3 4 4 4 1 2 3 1 3 4 4 6 3 6 3 5 6 6
49 40 40 42 37 33 30 28 25 21 18 15 13 13 15 15 14 13 11 3 4 2 3 3 4 3 5 4 2 3 4 3 4 4 4 3 3 4 3 4 2 4 1 5 8 2 2
42 49 38 44 39 35 31 30 27 23 20 17 15 16 18 19 7 14 4 6 5 4 3 3 3 5 5 5 6 2 3 4 6 5 3 1 2 3 5 1 1 4 3 4 3 4 3
40 44 39 44 41 36 33 32 29 24 22 19 18 19 21 22 11 10 7 6 6 5 3 2 3 4 4 3 2 2 3 7 6 4 5 2 3 2 2 3 3 9 5 6 4 2 2
41 40 44 42 43 38 35 33 30 26 23 22 21 22 24 20 10 11 7 7 3 3 2 2 3 3 3 2 4 4 4 3 3 4 3 4 3 2 2 4 3 3 4 1 1 0 3
40 40 47 40 45 39 37 35 31 27 25 24 23 24 25 21 12 9 9 3 3 3 5 0 3 3 4 3 2 3 3 3 4 4 3 3 0 3 5 2 3 3 2 4 4 3 1
40 37 45 41 47 41 38 37 32 29 26 26 24 24 25 20 13 10 6 3 6 6 4 6 3 5 1 1 4 3 3 2 1 2 4 4 1 2 4 1 0 3 2 2 6 2 0
37 39 35 41 46 41 39 37 33 29 29 27 26 22 24 19 16 13 3 5 4 4 2 3 4 3 4 3 3 2 1 1 2 1 1 5 3 1 1 2 7 1 7 3 2 3 3
35 36 43 36 45 41 40 38 34 29 30 27 24 12 18 20 17 8 4 5 5 6 6 4 5 4 3 4 3 2 3 1 1 2 3 3 3 2 1 1 4 3 2 5 4 1 2
34 35 45 39 44 41 41 38 33 31 32 31 19 3 22 22 5 1 4 5 3 3 3 2 4 3 5 3 3 3 5 1 2 1 4 1 4 3 1 1 1 1 3 4 3 4 1
33 34 51 34 41 42 42 38 35 34 36 36 13 5 19 22 4 1 2 3 2 1 1 3 3 3 3 4 4 3 3 1 2 3 5 5 1 3 2 2 1 2 3 4 5 2 5
33 42 52 48 42 43 42 39 37 36 37 35 14 3 5 8 6 8 5 4 2 1 1 4 5 4 4 3 4 5 3 1 2 3 4 3 2 4 7 3 2 4 4 4 4 3 4
33 42 39 36 43 44 41 40 37 39 41 33 9 4 7 4 2 5 4 6 5 3 2 2 4 3 5 4 2 3 2 2 3 5 3 2 4 2 1 1 1 2 4 8 8 4 6
31 46 37 43 45 43 40 38 39 42 44 28 9 6 5 3 18 7 2 7 7 3 2 1 6 3 2 5 5 8 6 4 4 2 2 2 3 2 3 1 3 3 5 7 7 4 10
37 35 37 43 43 40 39 38 41 44 46 18 10 11 11 1 3 5 6 6 7 7 3 3 7 5 4 1 4 8 6 11 6 5 3 2 5 3 3 3 2 5 9 12 6 6 9
37 37 41 41 40 38 37 37 40 45 46 22 16 14 6 2 3 5 8 4 7 4 8 3 6 4 7 27 28 23 25 21 17 11 4 5 4 2 2 2 1 4 2 3 12 7 14
37 40 39 38 36 35 34 36 39 45 45 18 17 10 7 3 4 3 6 5 13 10 5 4 3 7 27 6 4 4 4 5 5 7 6 3 4 3 3 3 5 5 4 6 7 6 12
35 35 36 35 32 31 31 34 40 45 45 18 15 12 5 13 7 9 7 9 5 4 3 4 7 27 5 4 3 4 3 3 1 1 3 5 6 3 3 3 5 5 2 3 4 4 2
35 34 32 30 29 28 30 35 41 44 42 21 13 11 5 6 9 14 5 9 9 6 4 6 10 4 1 2 3 3 3 1 3 5 2 2 2 3 2 3 7 6 2 3 2 5 3
32 30 28 26 25 26 30 34 39 42 39 26 17 9 9 6 12 8 9 13 10 10 5 11 6 2 3 3 3 3 3 4 2 3 4 5 6 3 3 1 6 6 4 4 4 4 6
30 28 25 23 22 24 27 33 37 41 38 24 13 11 10 6 9 12 10 11 9 12 14 23 6 7 9 4 1 3 2 1 2 3 1 3 4 3 8 5 4 14 9 9 12 10 8

GFSGBSN_850_spd_030.txt.gz
Wind_Speed
32 28 25 24 23 22 20 19 19 18 18 18 18 19 20 19 20 18 17 15 14 11 9 8 6 5 4 5 9 1 4 10 16 16 14 14 14 10 10 10 10 11 6 6 7 5 17
31 32 27 26 25 23 21 19 19 19 18 18 18 18 19 17 17 17 15 12 10 9 8 7 6 5 4 7 5 3 6 4 14 15 13 13 7 9 5 5 13 5 5 5 9 10 9
31 31 32 28 26 24 22 20 19 19 19 18 18 17 18 16 15 14 12 10 7 7 7 6 5 5 8 12 2 5 7 2 9 14 13 13 11 5 2 5 4 11 11 7 3 9 7
39 34 33 31 28 25 23 22 20 19 19 18 16 16 17 14 14 11 10 8 7 5 5 5 4 5 7 4 6 7 7 1 6 12 11 5 9 10 5 2 5 6 7 6 5 12 6
43 38 35 33 30 28 24 23 21 20 20 18 16 15 16 13 11 9 8 6 5 4 5 5 4 4 6 4 5 3 2 2 2 9 10 4 8 7 5 9 8 6 7 7 7 1 7
37 44 34 35 35 30 26 23 22 21 20 18 15 14 15 12 9 7 6 4 3 4 6 4 5 3 4 2 2 2 3 3 3 11 6 5 5 6 6 8 8 13 7 11 10 4 8
34 43 41 38 34 32 29 25 22 21 20 18 15 13 13 10 9 7 8 6 2 4 12 7 1 5 2 8 5 3 5 5 5 7 4 6 6 7 10 5 2 6 8 11 8 4 7
38 35 43 34 37 34 31 27 23 22 20 18 15 13 12 9 10 10 14 7 3 2 3 13 14 13 11 8 4 3 3 6 1 0 0 6 6 4 4 5 5 6 8 7 5 4 4
39 38 41 41 34 36 33 29 25 23 21 19 16 13 12 10 12 15 19 13 3 5 4 4 9 7 4 5 4 7 4 3 4 7 1 13 6 4 6 8 9 4 5 11 8 8 2
39 39 37 49 36 39 35 31 26 24 22 20 16 14 13 11 11 16 18 7 8 2 4 6 6 5 5 4 5 1 5 3 5 5 2 4 2 4 7 7 2 6 1 7 14 12 7
43 39 39 42 38 38 37 33 27 25 24 21 18 17 14 16 8 15 6 10 4 3 6 8 6 6 6 7 4 3 5 3 4 5 2 3 4 5 5 4 2 4 5 6 5 5 5
45 42 41 39 44 38 39 35 29 27 26 23 20 19 18 22 17 15 8 3 6 5 5 7 8 9 8 3 2 2 3 5 5 4 2 3 2 3 4 6 2 11 8 6 4 3 7
44 43 42 42 39 41 41 37 32 29 28 24 22 22 24 25 13 14 9 8 5 7 2 7 9 10 9 5 4 3 6 8 7 9 8 6 3 4 3 9 6 6 9 3 4 4 6
46 45 42 40 39 41 41 39 34 31 30 26 23 24 26 29 16 11 11 7 7 4 8 2 7 11 10 7 3 4 8 8 2 4 9 9 6 4 1 3 3 6 5 4 4 4 2
43 41 43 42 39 40 41 41 35 33 31 28 25 26 28 31 23 10 6 9 8 5 6 9 10 13 7 6 4 6 5 7 2 2 6 6 4 4 3 2 4 6 5 3 2 1 3
43 40 40 41 40 38 42 43 37 35 33 30 28 26 28 29 27 16 6 9 8 3 4 11 11 11 12 11 9 7 8 4 4 2 2 4 4 3 5 3 7 3 8 3 3 3 4
41 41 39 39 38 37 44 44 39 38 34 30 21 13 19 25 19 13 9 11 5 6 7 10 9 7 10 9 8 9 8 3 3 4 1 5 3 5 3 5 5 4 4 1 0 2 2
42 38 41 38 36 36 43 44 41 40 35 33 20 9 20 26 13 9 12 7 5 7 7 7 5 5 12 10 8 9 10 1 5 4 5 2 2 4 5 3 2 2 4 7 4 4 1
37 36 37 38 36 35 43 45 44 44 43 38 23 10 20 29 10 8 6 6 5 6 8 7 7 3 4 8 5 5 6 2 3 5 5 6 4 4 5 4 5 7 8 5 4 1 6
30 33 34 34 38 40 33 45 47 45 43 34 22 7 10 15 10 16 12 13 8 4 4 3 5 3 7 5 0 7 7 3 2 2 2 3 3 6 8 1 1 6 11 11 10 4 4
28 32 31 31 34 44 36 48 47 44 46 29 16 8 15 12 12 13 15 14 11 7 4 6 4 6 7 5 5 5 5 5 3 6 3 3 6 4 1 1 3 4 7 13 16 13 7
30 30 29 29 37 41 34 45 47 46 49 23 16 7 10 23 18 14 13 11 15 6 6 6 7 8 7 4 7 9 9 7 4 7 5 2 3 2 3 2 2 7 9 11 15 15 15
29 29 32 35 44 39 36 45 47 48 55 22 21 14 23 8 12 12 11 14 14 11 2 3 9 7 5 4 4 8 7 8 6 6 6 4 5 4 2 2 3 7 15 17 12 12 14
28 32 35 37 39 32 40 43 46 49 49 23 21 17 10 7 11 14 14 12 13 11 7 4 6 4 6 19 21 18 18 15 11 10 3 5 5 1 1 2 3 1 1 3 13 16 15
31 28 36 32 30 32 40 41 43 47 42 25 21 17 8 4 13 11 14 10 12 8 5 7 4 5 22 5 4 4 2 2 4 7 5 1 4 3 2 4 6 11 3 3 4 6 5
30 32 30 26 28 35 36 40 42 48 42 21 21 19 13 11 8 12 14 15 7 6 5 5 8 21 5 2 2 4 4 3 4 4 3 4 3 1 3 3 4 3 3 1 2 5 6
32 30 28 32 33 34 38 39 42 49 44 20 22 16 11 7 6 14 14 14 8 7 5 7 11 4 2 2 2 2 3 1 5 5 4 2 1 3 3 4 6 1 2 3 3 3 8
30 33 32 31 33 36 37 38 42 51 44 21 21 17 12 6 8 8 10 10 8 11 6 12 7 2 3 2 2 3 2 4 3 2 4 5 6 3 3 3 4 6 6 3 4 6 7
28 29 32 33 34 34 35 37 43 49 44 23 19 15 13 7 6 10 12 15 15 12 12 19 1 8 9 3 1 3 2 1 1 2 3 3 3 1 6 1 3 9 6 5 6 10 12

GFSGBSN_850_spd_033.txt.gz
Wind_Speed
30 29 29 26 23 20 20 19 19 17 18 18 18 18 17 18 19 20 19 19 18 15 13 10 8 7 7 7 11 3 3 4 12 17 12 12 13 14 12 12 14 12 5 4 6 16 14
38 33 29 30 27 23 20 19 18 18 18 18 18 18 17 18 18 19 18 16 15 13 10 8 6 7 5 11 2 2 5 4 10 13 11 11 9 10 9 7 12 13 6 8 11 10 15
35 37 34 29 30 26 23 20 19 18 18 19 18 17 16 17 17 18 16 14 12 11 8 7 5 6 10 15 2 4 2 5 10 12 9 9 9 7 4 9 7 5 10 11 9 13 9
27 37 37 34 30 28 26 23 20 19 18 19 18 16 16 16 16 16 14 12 9 8 6 6 5 3 9 5 7 9 8 6 10 12 11 5 10 10 10 4 5 10 10 15 10 12 15
30 29 39 40 34 31 28 24 22 20 19 19 18 16 16 15 15 14 11 9 7 6 5 4 4 3 6 5 7 4 7 3 6 8 9 6 7 10 7 10 14 12 12 6 9 16 10
35 30 28 40 38 33 29 27 23 22 20 19 17 16 15 14 14 13 8 6 5 4 5 6 8 6 8 7 4 3 5 7 4 10 8 8 9 8 9 11 11 12 4 14 12 12 12
42 33 31 30 41 35 33 29 26 23 22 20 18 16 14 14 13 11 6 2 4 4 9 14 2 7 5 2 6 6 7 7 6 10 12 12 9 11 13 6 6 8 8 9 13 4 8
44 42 35 34 37 38 34 31 28 24 22 20 19 16 14 14 13 10 10 8 6 4 10 20 17 13 11 5 7 8 7 9 12 8 2 6 10 6 8 9 10 9 11 7 5 8 7
43 45 38 36 32 38 34 34 28 25 23 21 19 17 15 13 13 13 14 14 2 8 7 12 13 12 7 8 11 15 10 9 9 13 13 6 17 6 5 9 10 7 4 7 10 11 13
41 41 37 33 35 38 38 33 31 27 24 22 20 18 15 11 10 9 12 10 9 6 5 12 10 9 8 7 7 4 10 6 7 15 5 5 4 8 6 12 7 8 1 5 5 14 13
44 43 41 40 34 36 39 33 34 30 26 23 22 19 16 12 4 10 3 4 3 3 5 16 14 10 10 12 3 12 8 9 10 11 10 2 12 10 8 2 5 9 4 7 10 14 11
48 47 45 41 35 36 43 39 35 31 27 24 23 20 17 19 20 13 5 4 5 5 8 8 11 12 12 12 7 5 12 10 2 13 12 12 2 4 7 3 2 6 5 7 8 11 8
46 47 45 41 38 36 42 40 37 33 29 25 25 23 23 20 9 8 9 6 6 9 5 11 15 15 15 9 8 9 14 15 11 10 10 10 8 4 4 7 4 7 8 7 6 5 9
41 45 47 46 38 37 37 41 38 35 30 27 26 24 24 25 13 8 10 9 11 12 12 3 12 14 16 11 10 10 9 16 17 13 10 12 8 10 6 6 5 9 11 7 7 7 8
43 44 43 45 41 37 41 39 41 35 32 29 27 25 26 31 24 11 15 13 14 7 11 8 11 14 15 11 5 12 14 15 15 14 11 10 5 6 1 3 6 4 8 5 4 1 5
56 44 46 42 43 39 39 39 42 37 34 32 27 20 28 26 28 12 11 18 20 4 6 11 14 13 14 15 11 13 12 7 6 5 6 2 2 3 5 4 5 8 2 4 5 3 6
46 49 43 41 40 39 39 40 42 41 36 32 24 12 19 24 27 15 13 19 19 10 10 12 15 12 13 12 15 15 14 8 6 8 6 5 7 7 4 10 11 7 9 6 4 3 3
43 53 44 44 40 40 41 40 42 44 38 36 29 12 24 32 15 16 15 22 20 12 10 9 6 9 12 11 12 12 12 8 10 7 10 3 4 5 13 5 5 9 8 9 5 5 3
41 45 46 44 39 38 40 42 41 44 47 39 32 18 23 30 13 14 19 23 16 14 13 12 11 9 10 10 9 11 11 6 4 7 4 6 7 8 7 7 8 8 9 8 4 1 8
36 41 43 41 41 39 40 41 41 45 49 42 29 11 11 23 32 22 23 22 17 16 11 15 12 8 10 9 6 9 8 4 4 4 1 0 11 9 9 6 3 8 11 11 11 6 8
31 35 42 40 40 41 43 41 39 43 51 42 32 15 19 16 22 21 23 18 22 13 12 16 11 15 11 8 10 7 10 6 6 5 6 4 9 13 14 5 6 8 8 11 16 15 13
26 37 36 38 40 41 38 47 41 44 54 36 23 23 29 27 34 20 21 23 24 19 15 16 13 16 13 9 10 10 12 9 8 9 7 5 5 3 6 8 7 10 11 13 14 16 17
28 31 32 35 36 34 33 42 44 50 60 31 26 24 31 28 24 18 18 22 23 16 3 10 17 10 11 4 7 8 8 4 5 7 10 5 4 4 5 3 5 6 15 17 17 17 12
30 31 29 33 33 34 34 46 42 54 60 32 18 18 22 16 18 20 22 23 21 16 10 6 9 9 6 16 17 15 13 10 7 5 3 5 6 1 0 2 1 2 2 4 6 12 14
29 29 30 33 32 34 40 35 42 55 61 34 19 16 18 5 21 24 22 23 20 11 12 13 6 5 21 10 4 4 2 3 3 3 3 4 5 2 2 6 9 11 5 1 2 4 9
29 29 32 32 31 32 35 42 39 54 62 37 18 11 21 11 14 29 21 22 12 11 7 5 11 14 7 3 2 5 5 6 5 6 3 4 1 4 3 3 4 4 4 2 2 5 8
28 30 30 33 34 42 36 33 47 50 59 37 7 14 15 15 23 22 17 15 20 16 7 8 10 5 3 3 2 3 4 2 5 5 4 3 1 5 5 3 6 5 3 2 5 3 10
30 31 30 36 41 40 34 47 50 49 56 38 5 17 14 10 12 10 12 22 14 20 8 13 8 3 4 3 3 3 1 4 2 2 5 6 7 3 3 2 5 6 6 2 5 8 10
34 34 38 34 28 37 41 43 46 53 48 24 7 15 15 11 9 10 15 15 16 11 14 19 4 14 10 5 1 3 2 1 2 3 3 4 4 1 6 1 5 5 4 4 7 9 11

GFSGBSN_850_spd_036.txt.gz
Wind_Speed
33 35 31 26 25 23 21 19 17 17 18 17 17 17 17 18 19 20 21 21 21 19 16 14 11 9 8 7 12 4 5 3 5 13 11 9 11 12 14 17 11 14 16 10 11 7 7
20 27 35 30 28 27 24 22 20 19 18 17 16 17 17 17 18 19 20 20 19 16 13 11 8 7 6 10 1 1 5 3 6 12 10 11 10 12 15 15 12 12 15 12 6 10 8
23 21 23 35 31 28 27 24 21 20 19 18 17 17 16 16 17 18 19 18 17 14 12 10 7 6 10 18 3 2 1 3 8 9 10 8 11 6 5 9 10 6 10 8 5 7 14
28 26 23 25 35 31 29 27 24 21 19 19 18 17 16 15 16 17 17 16 15 12 11 8 6 5 10 3 9 10 9 7 8 11 11 6 6 11 11 16 3 11 9 6 8 12 10
33 31 28 25 28 34 31 28 25 23 20 19 19 17 15 15 16 16 16 13 12 10 8 4 4 4 11 6 12 9 9 9 6 9 10 8 7 13 13 10 5 5 9 13 9 10 9
37 36 33 29 28 30 34 30 27 25 21 19 18 17 16 15 14 14 13 10 10 7 5 6 6 7 12 9 9 6 6 7 6 8 8 9 8 8 8 7 2 7 10 12 11 14 12
40 39 38 34 29 28 31 33 29 28 24 20 18 17 16 15 13 11 9 7 8 3 10 12 2 11 3 4 8 10 9 8 8 10 12 15 8 11 3 4 12 8 12 11 10 7 11
42 41 41 39 34 29 29 34 32 29 23 21 19 17 16 15 13 11 10 6 6 6 10 20 19 17 17 10 11 14 10 8 14 9 16 9 8 4 7 12 8 10 13 5 7 5 6
41 43 42 40 38 33 30 34 35 29 26 23 20 17 16 14 13 14 14 16 5 15 7 13 21 17 15 15 18 16 13 15 10 9 11 8 8 0 9 8 12 14 5 6 11 7 7
45 41 39 41 40 36 31 30 36 34 28 24 21 18 16 11 9 8 11 6 8 6 5 9 15 13 18 12 15 18 19 17 8 13 3 4 12 9 8 12 14 8 12 9 13 8 8
44 44 42 39 39 37 32 32 36 38 32 23 22 19 17 12 7 9 5 4 5 4 4 12 17 15 16 18 7 14 7 11 9 10 11 10 13 15 6 6 15 3 12 13 9 8 3
46 48 46 42 39 36 33 33 33 36 32 25 24 20 18 19 20 14 3 7 5 5 7 7 13 11 17 17 13 8 14 16 4 3 6 12 9 11 2 10 13 10 9 10 9 6 3
37 48 51 45 41 40 35 34 34 37 31 27 25 23 23 17 10 10 8 5 5 8 8 9 12 15 17 14 13 10 13 16 10 8 10 11 19 12 15 12 7 9 9 2 8 6 5
50 39 48 46 44 42 37 32 34 38 34 28 26 24 25 25 14 3 10 6 11 12 21 2 12 15 18 15 13 12 13 15 17 16 7 9 3 6 11 11 6 18 10 2 1 2 11
52 52 42 48 43 43 39 34 35 38 38 32 27 25 28 28 21 10 16 12 12 12 20 7 12 15 16 17 7 13 14 16 17 17 8 3 7 13 9 3 3 7 2 4 9 6 3
45 50 45 49 39 42 41 34 36 38 39 35 30 18 30 28 26 13 10 19 18 23 13 14 13 12 16 16 12 9 13 14 17 16 15 5 7 18 12 5 5 5 7 3 2 2 5
46 45 48 44 33 41 40 37 38 37 39 33 24 13 17 27 24 17 13 18 22 25 16 7 14 13 16 12 13 12 9 7 7 8 4 11 17 10 6 8 8 5 6 5 6 4 1
41 44 40 41 47 37 39 37 38 37 39 33 26 8 20 35 17 17 14 22 29 22 12 10 14 16 13 12 13 13 15 14 13 8 9 10 4 3 9 3 5 7 10 11 3 5 2
43 41 41 39 38 44 39 39 39 39 45 38 19 19 29 37 13 13 19 26 27 22 15 15 11 14 10 12 7 10 6 6 8 5 1 1 3 5 10 6 8 8 11 10 6 3 4
42 43 40 39 42 47 42 40 43 41 46 38 22 9 14 32 26 20 23 21 24 30 18 16 15 14 9 11 9 8 7 3 3 3 4 4 4 9 7 10 4 13 11 10 10 3 4
40 39 40 40 41 42 46 43 44 44 45 40 20 13 17 12 19 19 20 20 24 23 22 20 15 17 11 9 13 8 9 7 4 3 3 2 8 11 14 16 2 10 9 7 11 11 11
36 36 38 40 41 47 46 41 45 44 43 44 23 15 26 11 28 22 22 27 26 24 18 18 13 14 14 10 10 11 12 8 7 7 7 5 5 4 8 10 10 12 14 13 14 13 13
34 33 33 36 43 47 46 44 42 45 41 34 34 25 18 19 23 20 21 22 25 18 21 22 19 15 16 6 16 13 8 2 8 10 9 7 3 2 2 6 7 5 10 16 15 14 10
31 30 30 38 44 45 45 44 39 38 47 31 41 20 16 15 19 24 25 25 23 23 11 15 19 15 12 19 20 17 14 9 8 4 8 5 5 2 1 2 1 7 4 5 5 7 9
25 27 32 35 38 37 40 43 38 40 56 47 45 18 9 7 18 26 29 23 26 24 16 11 7 14 25 14 4 4 2 3 2 3 3 3 4 2 3 4 7 10 1 2 2 5 11
27 26 30 31 34 36 40 38 39 38 60 56 44 15 8 11 18 41 24 25 14 8 1 8 14 15 10 3 2 4 4 6 7 6 1 2 3 3 3 2 4 2 5 3 2 2 9
28 28 29 28 31 32 34 37 32 40 53 57 49 25 4 14 26 37 23 18 16 17 5 14 8 5 3 2 2 2 4 3 6 6 4 2 0 4 3 1 6 6 5 1 2 3 5
27 27 27 27 31 30 31 29 36 47 51 56 50 23 7 13 27 38 27 22 18 27 6 17 8 3 4 2 3 2 2 3 2 6 7 6 6 3 2 2 5 6 6 2 5 6 10
26 25 25 28 30 29 27 29 43 37 56 51 38 16 23 26 10 21 16 14 11 10 15 20 9 13 9 4 1 3 2 2 2 2 6 3 4 3 7 3 5 4 5 5 5 5 7

GFSGBSN_850_spd_039.txt.gz
Wind_Speed
20 25 32 33 32 28 23 20 19 17 17 17 16 15 15 15 16 17 18 20 22 21 18 16 15 12 10 7 8 5 9 5 4 9 9 9 13 16 7 7 16 8 9 13 14 13 16
23 22 21 26 32 31 26 23 22 20 17 17 17 16 16 15 15 16 18 19 20 18 16 14 13 11 8 7 8 2 10 4 3 8 9 9 13 14 19 14 6 13 12 18 20 26 17
26 24 23 21 22 29 29 26 24 23 19 17 17 17 16 15 15 16 17 18 18 16 13 12 11 10 12 17 2 2 6 5 2 4 10 10 14 10 15 10 22 14 2 6 13 16 3
31 28 26 24 22 21 29 29 26 23 21 18 17 16 16 15 15 15 16 16 15 13 10 10 8 10 10 1 6 8 6 13 8 6 11 10 12 9 8 13 11 4 4 3 4 13 13
36 33 30 27 25 23 22 28 28 27 24 20 17 16 16 15 15 15 15 15 13 11 8 8 5 8 13 2 9 9 6 15 17 8 11 10 9 6 12 4 5 4 2 1 4 19 9
39 38 35 33 29 26 24 23 28 28 24 21 18 16 16 15 14 14 14 14 12 10 8 9 9 9 11 6 5 4 11 13 5 6 7 8 4 3 4 2 3 2 3 6 8 10 6
42 39 38 36 34 31 27 25 25 28 26 24 19 17 16 15 13 14 13 10 8 3 6 11 7 12 9 8 11 9 10 8 9 8 2 6 3 0 4 3 4 1 6 11 5 8 7
42 41 39 39 37 34 30 27 24 27 28 24 21 18 16 14 13 13 13 8 10 10 11 19 23 28 22 13 7 11 11 10 9 3 2 6 7 7 9 7 5 7 14 7 8 4 6
39 40 39 40 40 38 34 30 26 25 28 26 23 19 16 13 13 13 15 16 9 10 4 14 21 22 18 10 8 17 15 15 12 5 7 4 7 11 6 6 12 14 5 14 6 3 2
40 40 41 39 37 37 37 32 27 26 29 28 23 20 16 11 10 7 7 4 6 1 3 6 12 10 15 18 9 20 17 15 2 6 7 5 5 8 9 9 11 8 4 5 9 2 3
45 43 41 42 36 33 33 32 27 27 30 30 25 22 18 11 7 9 4 3 7 3 3 6 12 6 13 15 3 10 17 29 8 8 5 7 2 5 4 11 3 7 6 5 5 4 4
46 47 41 41 42 36 33 29 27 30 29 32 27 24 19 18 19 8 1 5 7 1 7 4 12 9 9 17 16 11 12 7 5 7 1 5 6 6 5 8 4 8 3 4 6 3 2
51 44 45 41 42 43 36 33 27 30 29 31 30 23 24 19 19 10 8 4 2 4 6 7 14 8 11 8 8 5 6 5 4 4 5 4 8 4 4 6 10 4 4 3 5 5 5
50 48 46 46 39 42 39 32 31 30 28 31 29 26 27 25 17 7 9 2 8 12 11 3 10 10 10 8 9 8 6 7 9 6 4 6 7 2 3 10 3 4 5 4 5 2 4
51 44 47 50 43 41 40 37 34 28 30 31 29 26 30 27 23 10 6 10 8 7 10 4 8 9 8 11 7 9 8 7 11 12 7 3 1 3 9 6 2 1 3 5 6 4 4
57 49 44 43 51 34 39 40 36 31 32 34 29 29 33 28 26 17 6 14 7 18 9 6 8 8 8 11 7 7 9 7 7 15 10 4 3 3 12 12 11 4 3 4 3 4 4
57 49 45 45 46 41 38 39 39 34 34 34 25 14 23 30 25 15 13 12 16 29 17 8 6 7 7 7 9 6 6 9 9 5 12 6 4 5 5 6 10 1 2 3 3 4 4
56 47 41 45 43 49 39 44 39 38 35 36 22 6 18 35 12 9 15 17 16 22 26 10 4 1 7 7 7 9 8 2 10 14 9 8 5 4 18 17 9 5 5 2 4 4 2
52 46 40 41 44 46 47 45 41 41 42 39 17 13 29 41 12 12 7 18 26 20 20 7 3 3 3 7 7 10 5 6 9 5 6 3 2 3 3 3 4 3 4 4 3 3 4
51 45 39 39 44 48 44 39 43 42 44 39 14 6 16 33 27 19 17 17 22 22 21 23 8 8 5 5 3 7 3 2 5 5 5 4 1 6 6 6 2 5 5 5 5 4 3
50 46 42 43 37 40 42 41 45 45 46 40 14 11 18 12 20 13 18 13 19 17 21 15 8 9 7 5 3 5 4 3 3 3 2 4 4 1 5 5 3 4 5 6 4 6 7
48 44 42 44 38 37 37 41 43 47 46 44 8 11 24 6 25 15 20 21 24 19 17 16 13 10 8 6 7 7 8 5 6 2 5 1 2 3 2 6 7 3 5 8 6 5 1
44 41 40 42 37 38 39 40 44 50 49 26 33 22 20 14 18 17 21 23 22 15 17 22 11 7 8 6 11 12 10 14 10 8 6 6 4 3 2 4 6 6 6 6 6 4 3
39 40 40 39 39 42 41 42 45 53 53 25 39 14 12 9 14 20 21 22 21 23 14 19 24 7 12 27 24 21 23 16 16 9 4 6 5 3 3 3 1 9 1 5 6 6 8
37 37 38 40 41 43 44 45 52 54 51 49 31 23 3 3 17 16 23 24 27 25 21 8 7 14 29 11 4 4 5 6 0 3 4 4 5 2 4 4 5 6 2 2 4 4 6
33 33 35 37 40 44 44 46 52 50 49 46 49 17 14 4 12 31 27 26 13 10 2 1 6 25 26 4 3 5 4 6 4 2 8 7 5 5 2 4 6 6 3 5 4 2 6
32 29 31 32 35 39 43 50 50 45 49 35 43 42 10 7 10 25 21 27 30 7 5 3 8 3 4 3 3 3 2 7 5 8 4 3 3 5 2 2 7 5 6 2 6 5 9
26 25 30 27 34 44 44 46 44 44 39 39 48 41 18 7 12 30 32 30 19 20 7 12 4 7 1 3 4 3 3 5 4 8 7 6 6 3 4 3 5 10 4 6 7 13 13
24 23 26 26 28 32 34 39 41 38 34 45 43 48 26 15 10 9 28 22 34 30 26 19 15 9 11 4 3 4 2 2 3 2 2 2 6 6 7 6 7 14 21 21 20 18 16

GFSGBSN_850_spd_042.txt.gz
Wind_Speed
21 20 20 24 29 30 29 25 23 20 19 17 15 15 15 15 15 15 15 16 18 19 17 16 15 13 12 8 5 2 8 5 3 2 5 6 6 3 3 5 6 6 8 2 17 15 11
25 23 22 20 19 24 30 29 25 22 21 19 17 16 15 14 14 15 15 16 17 17 15 14 14 11 9 4 2 0 7 4 2 2 9 7 5 8 12 6 2 11 10 17 17 15 7
28 27 25 23 21 20 20 25 26 23 22 22 19 16 15 14 14 14 15 15 17 16 14 13 13 11 13 12 2 7 4 4 4 3 3 6 12 12 7 8 12 11 6 7 10 5 5
33 31 28 27 25 23 21 20 23 26 24 23 21 17 16 15 14 14 15 15 16 15 13 11 11 11 10 4 11 11 9 6 6 2 3 8 14 9 4 10 11 5 8 5 7 11 4
37 36 33 30 28 26 24 21 19 24 24 23 22 18 16 15 15 14 14 15 16 14 12 10 9 7 10 7 12 12 11 12 8 9 5 12 11 6 6 3 5 5 3 5 3 7 8
39 39 38 35 32 29 27 24 21 23 25 24 22 20 17 16 15 15 14 14 15 13 13 11 11 8 7 1 5 9 9 9 5 9 8 4 4 3 4 4 3 4 2 2 4 5 4
36 37 39 38 36 33 30 27 24 22 24 24 22 20 17 16 14 14 12 10 6 3 6 10 7 10 16 4 8 11 4 7 10 6 1 3 5 3 4 4 4 4 1 4 7 8 6
40 38 37 39 37 36 33 30 27 24 24 24 22 20 18 16 14 13 11 8 4 5 12 20 22 26 24 17 8 7 11 9 5 4 1 3 2 6 5 7 5 3 7 10 9 5 7
44 41 38 37 37 34 35 33 30 26 24 24 23 20 19 15 12 11 10 10 10 14 6 15 18 23 19 10 10 14 8 9 5 5 6 6 6 1 3 5 4 6 3 8 8 2 1
49 44 42 39 37 33 32 33 32 28 26 25 24 21 21 13 11 9 1 12 3 6 2 7 7 8 15 9 6 19 14 10 2 7 6 4 3 4 4 3 4 5 10 16 6 5 2
51 49 47 42 39 36 32 32 30 28 28 26 25 21 20 15 8 9 2 6 6 3 3 4 7 5 14 13 2 9 15 12 9 8 6 7 3 3 1 6 1 7 1 6 3 3 3
52 53 50 46 41 39 35 32 29 28 27 27 27 24 21 21 19 10 6 3 10 2 7 4 10 8 7 14 5 0 6 13 12 5 1 4 1 4 7 5 2 4 4 6 4 2 1
59 51 53 48 46 40 39 35 31 28 27 28 28 27 25 21 20 15 10 6 3 5 5 6 6 7 9 7 5 5 3 5 6 5 2 2 4 2 1 5 4 3 5 3 5 4 5
65 61 51 51 46 43 39 36 35 31 25 27 28 30 25 27 19 11 8 2 9 8 8 4 7 9 9 8 7 6 4 6 3 5 4 6 2 3 3 3 3 2 5 5 4 2 4
61 63 58 53 48 46 44 36 34 30 27 25 25 28 27 30 21 16 6 10 7 7 5 4 4 6 7 7 7 7 9 8 8 8 8 4 4 4 3 3 2 2 3 4 6 3 3
57 60 55 57 48 43 43 37 35 32 29 28 27 27 33 32 25 18 6 15 6 11 6 4 5 6 9 8 7 8 7 6 7 10 8 7 2 3 4 4 7 6 3 2 3 3 3
57 62 47 52 50 44 41 47 33 35 32 30 28 14 21 33 24 13 13 15 10 33 8 3 3 4 8 8 9 7 9 7 8 3 10 5 4 4 3 7 9 1 2 1 4 4 4
54 60 60 53 51 43 38 46 39 36 36 34 28 8 25 40 11 9 15 14 13 24 10 5 5 6 8 10 8 9 11 8 6 16 9 7 5 4 8 6 5 1 4 5 4 4 1
54 56 56 55 52 44 36 40 41 41 44 42 20 16 34 43 11 13 7 20 22 10 6 5 5 7 5 6 4 6 3 3 4 6 10 7 1 2 6 6 2 5 5 4 4 3 6
54 53 55 55 55 45 39 38 45 43 48 49 15 9 14 31 26 21 19 15 20 21 21 12 9 7 8 3 5 6 5 2 1 6 6 11 5 7 7 7 4 3 2 1 5 3 4
51 52 56 57 51 42 43 42 54 46 52 54 20 11 18 14 19 16 20 15 20 15 15 15 9 17 12 5 5 2 5 3 2 8 3 4 5 5 5 4 2 3 5 3 5 4 5
53 59 54 51 47 41 40 40 52 48 54 53 17 8 25 7 26 18 20 23 26 18 12 17 12 12 7 8 8 7 7 4 5 1 4 2 3 2 2 3 2 2 4 4 5 3 5
55 58 51 47 42 40 40 45 56 54 60 31 32 23 15 17 18 17 21 23 25 19 16 34 12 13 6 10 8 12 19 19 12 8 5 6 5 3 4 3 3 5 7 7 5 3 5
55 56 51 46 42 35 39 45 52 55 48 24 36 18 6 9 14 19 22 18 27 20 21 17 30 14 12 15 25 23 23 17 16 6 7 6 5 3 3 3 2 7 4 5 9 5 7
55 53 48 46 38 34 39 43 44 54 46 43 28 22 4 4 14 12 25 21 25 27 18 27 19 15 27 6 4 6 5 5 3 7 3 5 5 3 4 3 4 5 5 6 6 1 1
48 48 46 44 40 38 42 42 42 48 49 58 30 22 9 2 9 25 16 27 16 9 15 11 16 15 21 3 3 5 5 5 4 3 6 7 4 4 3 4 7 7 3 9 7 2 6
40 42 42 40 42 42 45 44 44 47 56 53 41 28 10 5 6 34 18 20 26 12 4 3 9 7 4 3 3 3 3 7 6 9 5 3 3 5 2 3 7 7 6 6 6 6 12
37 38 40 40 41 41 43 45 43 44 49 46 43 35 28 6 17 12 30 24 29 32 8 7 6 1 2 4 4 3 3 5 4 6 7 7 6 3 3 3 6 9 5 7 7 14 20
33 31 33 35 37 38 42 43 43 46 47 49 30 31 34 15 13 20 21 17 30 39 23 13 6 7 7 4 1 3 2 2 4 3 3 1 7 6 8 5 4 3 10 24 27 25 18

GFSGBSN_850_spd_045.txt.gz
Wind_Speed
24 23 22 21 22 28 30 28 27 25 23 21 19 16 15 15 15 15 15 16 16 18 19 18 16 14 14 8 5 1 6 4 2 2 4 6 3 2 1 5 5 5 5 3 14 11 8
28 26 25 23 22 21 23 29 30 28 25 23 21 18 16 16 15 16 16 16 16 18 18 17 15 13 11 4 3 4 3 4 1 2 4 4 0 4 7 6 1 3 7 6 10 10 8
34 31 29 27 25 24 22 20 24 25 25 24 23 20 18 16 16 16 16 17 17 18 18 16 15 14 15 15 6 6 3 1 1 2 2 2 6 7 7 6 8 2 4 5 1 5 4
37 36 34 31 29 27 26 22 20 20 21 23 23 22 20 17 16 17 17 16 17 18 17 16 14 13 10 4 13 8 7 4 1 2 5 6 10 9 2 9 6 4 4 3 4 0 3
35 38 37 36 34 31 28 26 23 21 20 22 22 22 19 18 17 18 18 16 18 18 16 15 12 8 9 5 13 10 11 9 4 6 11 10 4 2 5 2 4 5 1 1 3 5 4
37 35 38 38 37 34 31 29 27 23 20 22 22 21 20 19 17 18 17 16 18 17 13 13 13 8 7 0 5 13 15 14 6 4 8 2 2 3 4 4 2 2 1 2 6 4 4
41 37 35 36 38 37 34 32 29 26 23 21 23 21 18 17 17 16 15 12 9 6 7 10 2 8 11 7 8 10 12 12 11 4 3 2 4 2 5 3 5 4 3 5 6 4 6
43 42 41 36 34 36 35 33 31 28 26 23 23 21 19 17 15 14 12 9 5 3 11 17 19 26 25 25 9 10 8 8 7 5 1 4 2 7 5 4 3 3 1 3 6 5 6
43 45 45 41 38 34 33 31 30 28 27 25 23 21 19 16 14 14 11 4 10 12 7 12 16 17 22 15 10 13 8 11 4 5 6 5 4 2 4 2 2 1 1 5 3 6 2
55 45 47 43 43 38 34 29 27 27 26 26 23 21 18 15 13 14 4 2 4 8 3 6 6 8 14 9 6 19 13 9 2 9 6 4 3 2 3 3 3 1 3 6 5 2 4
51 55 41 47 44 42 37 32 29 27 26 26 24 22 20 19 8 7 9 4 8 3 3 4 5 4 18 16 3 12 19 9 8 6 6 7 7 4 3 5 4 5 1 4 2 5 2
47 55 56 42 46 45 40 36 32 29 26 24 25 23 20 22 23 12 7 2 8 4 6 4 8 7 7 9 3 4 14 10 4 5 1 4 1 4 5 4 6 3 2 7 4 3 2
48 49 59 55 44 46 43 40 34 30 27 25 25 25 27 25 24 16 14 5 2 4 4 4 5 7 6 6 3 3 4 6 6 4 3 2 3 2 3 3 2 4 5 3 4 3 5
50 48 53 61 57 47 46 41 38 32 29 24 23 26 31 26 25 14 8 3 9 7 7 4 2 4 9 6 5 5 5 5 4 4 3 5 5 6 3 3 5 2 5 4 3 2 4
55 49 47 51 62 49 50 41 36 34 30 24 22 26 30 32 26 16 8 9 8 7 4 4 3 4 4 4 6 5 7 6 9 8 7 5 5 1 2 2 5 2 2 3 6 2 3
58 52 48 50 58 59 49 45 41 36 34 28 26 25 33 34 28 21 5 19 7 6 4 4 7 6 8 7 7 7 7 5 6 9 8 7 1 3 2 2 4 5 4 1 3 1 2
65 57 51 47 53 59 54 47 38 35 33 33 27 13 17 36 27 15 10 13 13 23 3 3 3 2 7 8 10 6 7 6 7 5 6 5 5 4 2 5 7 2 2 3 4 4 4
70 62 55 47 50 55 60 51 41 42 38 36 31 6 23 40 16 7 13 5 7 18 8 4 2 5 5 7 8 9 10 10 16 13 9 7 6 5 9 3 1 3 5 5 4 4 2
67 68 59 50 47 49 55 54 40 46 46 41 24 14 30 46 12 16 9 15 12 8 7 6 6 5 4 4 5 6 8 7 7 9 10 8 1 2 7 4 2 4 4 4 4 3 6
67 71 60 52 47 50 60 60 43 49 50 39 17 7 15 35 36 20 21 14 20 21 16 3 3 3 1 4 4 8 6 4 9 9 13 9 4 8 9 9 4 3 4 4 5 3 4
67 69 63 53 49 55 56 52 45 39 52 40 19 11 17 14 24 17 20 15 20 16 17 9 5 7 2 2 2 4 3 2 2 10 2 6 4 4 4 4 3 4 4 7 6 6 6
65 74 62 53 54 60 61 53 45 45 54 46 19 8 19 6 29 24 18 21 24 23 7 12 15 4 14 9 8 7 6 4 6 2 4 3 4 3 2 3 4 4 5 6 6 3 6
69 72 64 56 56 60 57 49 49 49 58 33 37 24 16 17 19 19 28 23 23 19 23 21 17 12 6 12 19 27 16 9 11 10 6 5 6 4 4 2 2 5 8 8 6 5 6
72 67 63 55 57 58 60 49 54 51 60 30 44 22 8 9 14 24 19 21 22 25 20 23 36 11 7 6 6 9 12 15 10 6 5 7 6 3 3 3 3 7 3 4 5 2 4
70 65 55 54 58 59 51 49 59 56 53 69 32 23 5 4 14 14 18 23 21 29 21 24 19 36 24 9 2 3 5 4 3 7 5 3 5 3 5 4 5 3 3 7 6 2 3
65 54 57 56 58 48 49 54 52 51 49 60 34 41 9 2 11 16 19 25 13 16 10 21 25 35 16 3 3 6 5 5 4 3 4 6 6 5 3 5 7 8 4 7 6 2 5
52 57 60 53 46 45 44 41 45 45 46 60 20 36 17 2 6 29 11 18 27 14 6 6 22 7 18 3 3 4 4 6 7 10 6 3 3 6 3 3 7 7 6 11 6 7 18
53 51 50 50 41 39 37 34 38 42 44 49 28 28 20 3 10 5 18 14 22 28 12 7 10 7 2 4 4 5 3 6 4 5 7 7 7 4 3 3 6 6 6 8 6 13 25
48 46 43 41 45 33 32 32 38 38 33 46 23 27 16 11 7 12 14 23 24 22 26 17 6 9 13 4 2 3 2 2 4 3 2 3 7 6 8 6 3 5 6 7 25 31 21

GFSGBSN_850_spd_048.txt.gz
Wind_Speed
28 27 26 24 23 22 24 29 28 27 25 26 24 23 21 19 18 17 16 17 17 18 19 20 19 19 16 8 7 2 3 1 1 2 6 6 5 2 1 4 3 3 5 2 2 8 8
30 30 29 28 26 24 22 22 27 29 29 28 27 25 23 21 19 18 17 17 17 18 19 20 19 17 14 5 4 6 1 4 1 2 7 7 1 3 3 5 1 1 4 5 5 8 7
34 35 33 30 29 27 26 24 23 22 27 29 28 25 24 21 19 19 18 18 18 19 19 19 18 17 18 17 7 9 5 1 1 3 5 3 3 3 4 4 4 2 2 4 0 4 3
32 32 35 36 34 31 29 27 25 23 22 23 25 24 22 21 20 19 19 18 19 20 20 19 17 15 12 6 14 12 8 4 2 3 4 4 7 5 4 4 4 3 3 0 4 2 1
36 34 32 33 34 35 33 31 28 25 23 23 21 22 21 20 19 20 19 19 19 20 21 19 15 8 11 5 13 11 11 7 3 5 8 6 6 1 2 2 4 5 1 1 4 5 2
36 38 36 34 31 32 33 34 32 28 25 23 22 20 20 19 17 20 17 18 18 19 18 14 12 7 12 4 6 12 10 10 9 5 3 3 1 3 3 3 4 3 2 3 5 3 5
36 35 38 38 35 31 31 29 31 30 27 24 23 21 19 17 18 16 19 11 10 7 6 11 3 7 10 4 7 11 12 12 9 3 2 3 4 3 7 5 3 2 3 5 3 5 4
47 43 37 39 39 35 32 29 27 25 28 26 25 21 19 17 17 17 15 11 6 6 10 17 21 28 28 24 8 10 9 8 6 5 2 4 4 6 3 3 3 2 3 4 4 3 3
39 43 48 41 38 38 36 32 29 26 24 26 25 22 18 15 15 17 15 10 8 11 5 13 17 18 26 17 11 12 14 11 4 5 5 5 4 5 3 3 2 2 3 2 2 5 0
43 42 38 51 43 39 38 35 32 27 24 24 25 22 17 10 13 17 14 6 11 7 3 6 5 9 15 12 5 18 15 11 2 9 7 5 3 4 3 3 5 2 3 3 4 5 3
51 47 41 38 54 45 41 38 35 30 25 24 23 21 17 16 8 6 6 2 5 4 3 3 4 2 15 19 8 13 16 9 8 7 5 6 3 4 4 5 5 6 1 1 1 3 1
55 52 46 42 39 53 43 41 37 33 28 25 23 22 19 23 22 13 9 6 5 3 7 4 8 7 7 7 4 8 13 8 5 5 1 4 2 4 6 3 6 2 3 5 4 3 1
58 56 52 47 41 44 53 43 39 36 32 27 24 23 24 23 23 21 16 6 3 5 4 4 5 6 5 6 4 5 7 7 6 4 3 2 3 2 4 2 3 2 5 3 4 3 4
59 59 56 51 44 44 53 45 42 39 32 29 26 22 28 29 22 14 7 4 10 6 6 4 2 5 8 5 6 5 5 6 2 5 3 6 5 5 4 5 7 3 6 5 2 2 3
61 59 57 54 50 42 46 57 42 39 36 30 24 24 29 33 25 20 8 9 6 6 4 3 1 5 4 5 6 5 7 8 9 8 7 5 5 3 2 0 4 3 2 4 6 3 2
60 61 58 56 52 46 45 55 51 41 35 31 29 25 34 34 29 21 5 17 8 5 3 3 6 4 8 7 6 8 8 6 6 10 5 8 1 2 2 2 2 3 6 3 3 2 3
60 61 60 57 55 50 45 48 56 43 35 36 29 13 15 31 32 18 13 11 16 19 2 3 3 3 6 7 9 6 9 3 7 4 5 5 5 3 1 4 6 2 1 4 5 4 4
62 60 62 58 60 52 44 46 52 51 39 39 27 6 18 40 18 11 17 8 12 19 4 4 2 3 3 6 6 8 10 9 15 13 8 6 5 5 9 1 2 4 7 6 4 4 1
60 60 63 61 64 55 47 44 52 53 50 44 19 14 25 48 14 17 9 16 7 6 8 4 4 4 3 1 3 7 7 7 14 8 9 7 1 1 7 5 2 3 5 4 5 4 6
57 66 63 61 69 58 50 46 49 51 48 50 15 7 15 33 36 16 21 17 22 15 8 3 2 2 2 4 4 3 6 4 11 12 8 10 4 8 9 8 5 4 5 5 6 4 5
55 56 58 63 68 60 53 48 54 57 52 52 19 10 13 14 22 18 19 14 19 17 19 15 3 6 2 5 3 4 2 3 2 6 6 6 8 6 3 3 5 5 5 8 6 6 6
52 52 59 62 71 63 54 51 54 61 55 51 13 6 14 15 26 20 14 22 24 21 9 14 6 9 10 5 5 3 2 2 5 4 7 2 4 3 3 3 1 4 4 7 4 3 5
50 51 50 60 70 65 57 51 59 64 58 33 24 22 13 17 20 16 25 21 19 19 23 11 22 10 5 15 21 23 16 11 4 3 9 8 7 3 4 3 3 5 8 7 6 5 7
48 49 45 65 68 62 55 54 64 68 67 33 27 26 6 5 13 23 19 17 24 23 12 25 18 6 10 20 10 2 2 6 9 3 3 7 7 3 3 3 2 6 2 3 8 6 5
42 44 42 71 67 58 55 62 70 65 65 46 35 23 8 5 9 12 17 23 16 23 17 14 26 22 17 11 3 0 4 1 2 5 3 1 6 3 5 4 5 3 5 7 7 9 6
36 42 58 68 61 53 64 65 60 62 57 54 34 36 10 2 12 20 15 19 16 12 5 18 30 23 6 2 3 3 5 5 5 2 2 6 6 5 3 5 8 8 5 8 5 5 8
32 44 66 64 54 56 65 66 60 57 56 55 44 29 15 3 4 23 13 17 22 16 3 7 19 17 16 3 2 4 9 4 6 10 5 3 3 5 3 3 7 7 4 11 5 8 18
41 61 60 56 53 59 58 57 52 55 51 47 41 42 11 15 11 8 13 20 23 34 7 7 8 11 2 7 5 4 4 6 3 4 7 7 7 3 3 3 7 11 6 9 7 3 28
58 58 49 51 54 50 50 51 50 48 51 43 29 44 25 17 8 6 13 13 25 26 26 20 8 7 15 4 1 3 2 1 4 4 1 3 6 6 9 7 4 16 6 16 6 10 27

GFSGBSN_850_spd_051.txt.gz
Wind_Speed
28 26 28 26 24 23 22 21 21 25 26 25 24 23 22 21 22 21 20 19 19 19 20 19 19 19 17 8 7 6 2 3 5 5 8 8 8 3 1 3 2 4 3 3 9 6 5
28 30 27 29 28 26 24 23 22 20 22 26 27 25 26 22 21 21 20 20 19 19 20 20 20 18 15 7 5 6 4 6 3 7 10 10 3 1 3 3 2 3 0 2 3 5 5
28 28 29 26 29 29 27 25 24 22 21 20 23 26 26 24 21 22 20 19 20 20 20 20 20 19 17 19 7 10 8 3 3 5 8 5 0 2 3 3 2 3 2 2 1 3 3
29 30 29 27 26 26 27 27 25 25 23 21 21 21 22 23 20 20 20 19 20 21 21 21 20 17 12 11 11 15 11 4 4 7 7 3 2 5 4 4 4 1 3 2 1 2 1
34 29 30 31 29 27 27 27 26 26 25 23 21 20 19 18 19 20 18 19 20 22 21 20 17 9 10 7 13 15 14 7 7 5 5 5 4 2 2 2 2 3 2 2 0 9 3
34 38 33 30 32 31 29 26 27 26 26 25 23 21 18 17 17 19 18 16 18 22 19 14 14 6 11 4 6 12 11 11 8 2 5 3 3 0 1 2 4 4 3 3 4 2 4
30 29 39 36 32 31 32 28 26 27 26 26 23 21 19 16 15 15 18 10 8 7 8 11 5 4 3 4 6 12 13 12 9 4 3 1 2 5 7 4 1 1 0 4 1 4 2
42 38 33 38 39 34 32 31 27 25 25 25 25 21 18 15 14 11 13 9 6 7 12 19 24 29 24 16 5 12 14 11 7 5 3 1 4 6 3 2 3 3 2 3 2 2 2
45 43 40 35 34 43 37 33 31 27 24 21 23 22 19 13 9 12 12 10 10 9 6 13 20 21 27 19 13 13 18 12 5 6 6 5 2 3 4 2 3 3 3 2 2 2 2
46 45 45 42 38 31 44 37 33 30 27 22 20 20 17 9 9 11 11 5 6 11 3 7 6 10 16 13 7 17 20 14 2 9 8 4 2 5 3 4 6 3 4 4 4 2 2
45 48 48 45 42 38 34 46 38 33 30 25 19 20 15 15 7 5 5 3 1 6 3 2 3 4 11 16 14 16 23 10 9 6 5 4 5 5 4 5 5 4 3 0 2 3 0
51 49 47 48 46 42 37 34 45 36 32 29 24 21 18 20 21 12 12 5 6 2 8 3 7 6 7 7 5 12 11 8 8 5 1 4 2 3 5 4 4 3 2 5 4 2 1
53 54 51 49 47 45 41 37 36 45 36 32 27 24 22 23 20 19 13 3 3 7 4 2 4 5 6 5 5 5 9 6 7 6 5 1 3 2 3 3 2 2 2 1 0 1 3
49 51 54 53 49 46 44 41 38 42 42 33 30 26 25 28 19 20 12 3 11 5 7 4 1 5 7 5 4 3 9 10 2 5 4 6 4 7 5 5 5 5 5 3 3 2 0
51 49 51 54 53 49 47 41 39 36 49 34 31 31 30 31 28 21 13 11 7 6 4 3 1 3 4 4 5 3 7 13 11 7 6 5 4 1 3 3 5 4 4 2 6 2 1
50 51 52 51 54 52 48 45 40 35 47 37 34 32 35 32 32 24 7 20 8 7 1 2 3 4 9 6 5 9 7 5 7 9 6 7 2 2 1 3 4 2 6 3 1 4 3
53 52 50 53 54 54 51 48 44 36 41 36 34 18 19 31 32 17 14 14 17 15 2 1 1 3 4 6 7 6 10 2 7 7 5 5 3 1 2 5 8 3 2 5 3 1 2
53 52 52 52 53 55 54 50 46 39 40 42 33 10 18 37 19 15 17 14 18 19 6 5 1 3 3 4 5 7 10 8 16 16 10 6 4 4 6 1 1 3 6 5 3 4 0
54 53 52 53 54 57 56 54 49 44 45 45 22 20 24 50 14 15 12 17 11 11 10 6 6 4 2 2 3 5 6 5 17 9 9 8 2 2 1 1 2 3 4 4 4 3 7
55 53 54 52 55 58 59 58 54 48 49 45 16 7 14 36 34 18 19 21 23 25 8 6 3 2 1 3 2 1 4 3 15 7 11 14 4 6 9 7 5 4 6 7 5 3 5
58 57 53 54 54 57 61 63 58 51 52 50 17 7 13 11 22 19 21 17 26 13 23 16 5 11 4 5 3 3 1 1 1 7 5 5 7 6 5 5 6 6 6 11 10 7 8
58 61 57 56 54 59 61 68 62 54 56 51 13 8 18 7 33 19 16 18 28 26 13 19 13 8 11 8 6 2 5 3 4 1 5 2 4 5 4 4 7 6 5 8 10 4 9
53 57 61 56 55 55 63 70 63 56 66 38 28 29 27 16 18 16 20 20 20 20 18 12 17 6 6 14 18 14 13 10 6 4 3 3 6 4 5 2 3 3 8 10 6 5 7
45 51 59 55 56 56 66 70 63 60 69 40 30 27 18 9 13 20 13 14 19 25 9 19 22 14 8 15 11 6 4 4 7 7 7 5 5 1 3 1 5 2 2 3 8 5 9
39 49 48 48 50 56 74 67 63 60 66 30 39 25 15 9 11 16 16 22 13 20 17 17 12 11 14 5 3 2 3 3 0 1 5 3 5 3 4 4 4 1 4 7 7 15 9
35 39 44 52 46 67 74 66 60 60 61 27 40 32 14 8 5 16 18 23 14 12 6 12 11 12 8 2 2 2 5 3 3 2 3 4 3 4 3 5 8 6 4 7 4 12 9
35 37 41 39 46 71 64 61 57 61 60 52 27 41 14 3 8 8 11 17 24 9 5 5 19 6 8 2 2 3 4 6 2 4 6 3 2 7 3 4 6 6 5 12 5 10 9
30 35 37 30 66 67 63 57 56 59 61 58 20 30 24 4 12 3 13 17 20 29 7 9 9 8 2 5 4 4 4 6 5 3 4 7 7 4 3 2 7 11 8 9 8 6 11
25 38 29 61 61 61 51 51 52 54 55 49 27 26 19 11 6 7 11 9 21 39 27 28 11 10 14 4 4 3 2 0 6 8 2 5 5 5 9 7 3 26 9 23 10 8 9

GFSGBSN_850_spd_054.txt.gz
Wind_Speed
24 23 24 24 24 23 22 22 22 20 19 21 24 24 23 22 22 21 21 20 17 18 19 19 18 19 18 8 10 10 7 6 9 9 10 9 9 5 7 3 5 10 8 9 6 6 6
23 26 24 24 24 25 24 23 22 21 20 19 20 22 24 21 23 24 21 20 17 17 18 20 19 18 14 13 8 9 7 8 8 10 10 9 4 3 6 6 7 3 8 4 1 4 4
25 23 25 26 25 23 24 26 25 23 22 20 20 20 19 24 24 23 22 21 19 17 18 19 20 18 17 19 10 11 11 9 7 9 9 8 2 3 3 5 2 6 9 5 6 5 2
27 30 27 24 27 25 24 24 25 26 24 22 21 20 20 19 20 20 19 20 19 19 19 19 20 16 11 13 10 15 16 9 8 10 7 7 4 4 5 5 6 7 6 8 8 7 3
26 28 30 31 27 25 26 25 25 25 24 24 24 22 21 19 17 16 17 19 18 19 20 20 15 8 10 10 14 16 18 8 8 11 10 6 3 4 5 9 8 8 9 3 7 3 3
29 26 26 28 35 29 26 27 26 24 24 24 24 24 22 19 16 15 15 14 15 18 19 16 13 7 13 5 6 12 18 13 5 10 6 8 6 8 7 8 9 7 10 8 6 9 9
34 32 32 28 24 31 32 26 28 25 23 24 23 22 22 21 16 13 12 8 6 7 7 12 4 7 2 5 8 12 15 16 11 11 11 10 8 10 5 3 9 5 8 8 5 3 5
38 36 36 35 32 28 28 33 27 27 24 22 20 20 19 18 15 14 9 4 5 5 12 18 23 25 21 6 4 12 17 16 13 14 8 7 11 4 3 4 5 6 8 8 3 7 5
38 40 42 40 37 32 30 26 33 27 26 24 21 18 16 16 12 14 9 8 9 5 8 13 18 17 17 22 14 16 21 21 17 15 14 12 3 3 7 8 9 9 10 4 6 6 6
42 40 38 39 40 38 33 30 26 33 27 26 23 19 15 9 10 10 8 8 6 2 6 6 8 9 15 14 12 21 23 21 7 17 13 11 7 8 9 11 10 11 5 7 7 7 8
46 46 44 40 37 40 39 35 32 25 34 25 26 22 17 17 7 8 7 9 3 8 6 5 5 6 8 22 15 21 25 16 18 12 9 9 9 10 10 10 7 4 2 3 6 9 6
44 43 45 46 43 38 38 39 34 30 30 30 25 24 19 18 20 13 16 11 9 5 9 3 6 8 9 16 8 21 20 13 14 11 9 8 3 5 4 4 8 6 5 4 5 6 9
44 44 44 43 44 44 39 38 37 32 27 35 27 26 25 20 18 18 19 8 6 10 2 6 5 8 13 13 12 18 22 20 16 17 16 14 13 6 6 7 7 10 7 6 6 6 7
45 44 44 44 44 42 44 39 37 34 30 30 35 25 28 27 19 19 15 7 14 8 16 1 3 8 10 15 13 17 23 21 23 19 12 14 13 15 11 13 9 14 12 6 5 4 2
47 45 45 44 44 42 42 43 39 36 31 27 33 29 31 29 27 18 19 13 14 14 12 7 6 8 10 10 8 14 20 24 23 20 14 15 13 5 7 5 10 7 9 4 2 1 4
46 49 47 45 44 44 43 42 41 37 33 28 32 32 37 30 29 26 11 27 18 16 9 9 13 8 12 14 10 15 18 19 23 22 19 7 9 5 7 6 4 7 10 6 5 5 6
51 48 47 46 45 44 44 43 43 40 36 32 29 18 24 38 26 20 13 28 27 18 14 9 11 7 5 13 18 16 14 6 23 20 21 10 9 6 7 11 11 6 7 4 3 3 4
49 51 51 51 46 46 46 45 45 44 39 38 33 11 23 44 15 10 17 30 21 24 20 7 4 6 5 8 14 19 22 15 21 24 21 16 9 9 13 3 5 9 11 11 7 6 3
43 47 49 45 47 49 49 47 49 48 46 45 26 12 26 38 13 15 24 29 29 22 23 13 11 7 4 2 5 16 12 14 16 19 18 13 9 10 9 6 4 9 11 12 7 3 11
49 50 50 50 49 48 49 51 51 55 51 49 17 6 14 36 38 29 25 26 29 33 24 15 11 8 7 4 4 3 8 5 14 19 11 21 14 16 13 13 11 11 13 15 14 8 11
52 52 52 52 52 51 50 52 53 62 56 50 26 8 15 15 21 29 29 22 27 21 28 24 15 17 11 6 3 2 1 4 5 4 7 11 16 17 17 16 15 16 14 15 16 16 13
50 53 53 54 54 52 54 53 55 69 60 47 16 11 27 19 36 31 28 27 27 32 24 24 18 20 11 12 4 5 5 8 2 4 6 6 10 10 12 13 13 16 17 18 18 17 12
47 47 51 53 57 53 55 55 55 72 66 35 38 29 31 20 24 21 25 29 31 26 31 32 21 12 18 18 13 7 7 7 8 5 6 4 9 8 13 8 8 6 15 16 16 14 14
41 42 46 51 60 54 55 53 53 74 71 44 44 26 20 13 15 22 30 28 26 27 28 15 28 17 11 9 4 3 3 6 10 10 12 5 9 5 5 4 7 10 3 17 18 15 14
34 41 42 52 61 54 56 57 57 75 70 38 43 31 20 12 18 21 28 32 25 25 25 22 17 24 10 9 4 6 5 4 9 7 12 14 7 4 4 9 10 3 5 8 13 15 16
22 33 36 46 52 50 53 56 65 67 71 40 37 41 18 13 16 29 20 28 21 18 19 22 26 10 19 5 5 9 8 6 7 4 2 7 8 7 3 7 8 9 12 14 4 14 11
21 33 38 42 52 50 52 49 73 67 68 44 34 39 27 17 21 20 16 21 33 21 15 16 13 10 14 7 4 5 6 6 9 10 5 5 4 11 11 7 6 4 10 14 10 15 5
19 30 39 44 48 49 55 61 67 65 46 53 31 37 31 19 12 16 18 23 29 28 14 20 13 8 8 9 7 5 4 5 5 11 7 8 8 5 7 6 11 13 11 12 14 6 9
24 32 37 42 44 47 53 69 64 64 53 34 34 38 25 14 6 11 8 5 9 31 30 25 18 15 10 7 5 5 3 2 8 6 6 6 6 4 7 6 4 27 19 24 10 11 10

GFSGBSN_850_spd_057.txt.gz
Wind_Speed
19 20 21 21 21 22 22 23 22 21 20 19 18 19 22 25 24 24 25 24 22 20 21 20 20 18 17 9 13 13 12 9 9 10 11 12 14 14 13 6 6 12 12 9 12 7 9
26 22 20 21 22 22 23 22 23 24 23 21 20 19 19 19 21 24 26 26 24 21 20 21 20 18 12 18 8 12 13 11 10 12 11 14 13 10 13 11 10 8 11 12 7 13 8
25 25 27 22 19 22 23 21 22 24 24 23 22 21 20 20 19 21 21 23 21 20 20 21 19 20 15 26 7 7 10 10 11 12 12 12 10 11 6 10 10 13 17 13 6 9 9
24 24 27 25 27 22 21 23 23 22 22 23 23 22 22 20 20 19 19 19 17 18 19 20 19 14 13 12 9 12 13 11 10 12 12 10 10 12 13 10 12 15 18 10 8 29 5
26 27 25 24 25 30 28 21 23 24 23 22 23 23 23 21 19 18 19 18 15 17 18 18 15 7 16 14 17 18 19 14 12 11 12 7 9 16 12 12 14 16 10 13 8 20 7
27 28 28 27 23 20 25 30 25 23 24 23 20 21 23 22 20 17 18 15 15 16 15 11 10 8 20 12 10 13 21 17 13 13 11 12 13 13 14 13 12 8 12 13 6 11 9
29 32 28 30 30 28 25 20 27 25 23 23 22 20 20 22 20 15 15 11 9 6 13 12 5 16 5 8 7 13 22 21 15 16 16 20 13 14 17 8 10 13 14 12 16 17 14
34 33 32 35 32 31 31 27 22 22 26 22 21 20 17 17 19 14 12 7 8 7 13 20 26 28 23 5 7 17 23 22 18 17 19 14 15 17 4 5 9 11 13 14 6 5 8
37 35 33 33 34 37 35 32 28 24 28 26 20 20 18 15 16 16 14 10 8 6 10 20 28 33 30 25 17 21 27 30 20 19 19 16 10 5 7 10 10 11 14 12 9 6 12
40 40 39 36 34 33 34 37 31 26 21 29 24 19 18 13 13 13 15 11 11 6 7 15 9 11 29 26 18 28 30 30 16 20 19 16 14 8 11 11 11 13 14 11 10 10 9
41 39 37 37 38 38 34 31 33 31 26 20 31 22 18 16 7 9 2 10 8 4 7 4 14 4 11 25 7 31 30 33 24 17 14 17 15 11 15 15 12 12 1 7 12 14 15
40 40 40 39 39 37 38 34 30 31 30 25 23 25 20 19 21 16 6 7 9 8 16 7 10 11 13 26 21 12 35 35 26 19 17 18 14 13 16 7 7 8 7 10 11 11 11
40 41 42 41 40 38 37 35 34 30 29 25 23 30 24 19 20 11 8 10 8 15 5 13 9 13 17 14 22 18 28 26 21 21 21 19 15 14 7 11 9 10 13 8 6 8 10
41 41 42 43 41 39 38 36 34 33 29 26 26 23 28 24 20 18 10 8 17 21 30 3 6 13 16 16 22 21 24 24 24 24 14 16 18 21 14 16 11 16 16 6 6 6 4
44 45 43 42 44 42 39 38 35 34 30 27 25 22 32 29 24 24 11 13 26 28 18 29 8 12 16 15 17 23 25 26 28 26 22 18 21 17 19 16 15 13 14 16 11 7 6
46 46 45 45 44 44 41 39 36 34 33 28 27 23 33 29 25 24 6 8 29 30 27 13 27 15 17 17 17 24 24 26 27 29 22 9 13 13 12 10 13 14 9 10 8 4 10
46 45 45 45 45 45 44 41 39 36 34 30 30 14 21 30 26 18 9 16 24 38 28 27 20 25 14 12 21 18 19 9 23 26 22 19 13 10 11 14 16 11 11 10 9 12 4
44 42 40 45 47 45 45 44 40 40 37 37 33 8 20 34 14 9 18 33 27 29 43 22 18 21 27 14 18 19 20 19 11 18 25 23 11 11 17 18 20 9 17 18 10 13 9
36 39 41 44 43 51 47 47 45 44 45 45 20 15 20 37 13 15 28 38 36 26 27 25 20 21 10 11 13 21 19 16 13 19 23 21 13 12 15 11 10 12 15 15 16 11 11
41 41 40 41 41 46 50 47 50 48 50 52 18 8 14 38 40 26 33 37 34 36 26 31 23 21 17 17 11 8 19 6 13 15 28 23 17 20 14 18 15 19 17 16 14 9 12
44 44 44 44 45 44 49 54 57 52 52 58 23 10 19 15 23 31 29 23 29 32 33 26 23 27 20 14 15 11 11 6 3 11 6 16 22 20 21 19 16 17 23 21 20 18 17
46 47 48 49 49 49 48 50 49 53 58 54 14 14 33 16 33 30 29 33 33 30 29 25 24 29 22 21 15 11 10 6 7 9 14 17 15 21 22 19 19 18 18 18 20 18 17
50 53 53 52 51 52 54 52 49 55 66 31 29 38 32 24 25 22 26 34 38 33 36 38 27 17 22 19 5 5 7 12 1 8 12 13 13 16 16 17 19 16 17 18 18 17 15
43 44 49 57 51 52 54 56 57 56 66 37 47 42 20 14 17 25 31 33 33 32 30 34 36 21 29 13 4 2 4 4 2 8 10 7 14 11 9 2 13 10 14 20 21 20 18
41 41 39 44 51 52 53 55 60 60 57 39 49 39 23 11 21 22 27 27 34 39 22 31 30 27 14 9 2 8 5 3 9 13 14 10 10 8 8 13 13 18 9 12 15 16 16
34 38 43 41 44 48 51 54 60 58 59 50 40 48 32 14 15 34 20 28 21 19 21 29 36 16 14 7 6 14 11 11 9 7 12 14 12 10 6 14 18 14 15 14 14 14 15
23 25 33 40 42 46 52 54 57 53 59 53 36 43 35 18 22 17 14 19 34 26 16 23 33 16 18 7 9 13 11 13 11 11 7 6 7 13 12 8 8 10 15 16 12 16 14
14 22 24 39 42 45 51 55 55 53 53 50 37 46 33 16 10 12 16 26 26 34 15 17 22 12 10 10 9 10 7 11 10 13 18 12 7 6 10 11 15 4 10 15 16 22 11
11 18 23 27 43 48 56 51 48 54 62 45 32 42 32 10 6 4 5 18 17 25 29 26 28 26 14 10 7 8 5 2 9 9 16 15 8 8 9 6 6 14 18 22 24 16 10

GFSGBSN_850_spd_060.txt.gz
Wind_Speed
24 24 21 19 19 21 21 22 22 22 23 22 20 20 20 20 20 21 23 25 26 25 23 23 22 21 21 8 20 14 13 13 11 10 12 13 14 16 15 18 15 10 15 17 15 17 10
24 23 26 25 23 20 21 21 21 22 22 24 23 22 20 20 19 19 19 20 22 23 23 21 19 19 14 18 9 10 12 15 14 12 13 15 15 16 19 18 17 18 17 15 15 26 23
19 21 20 22 26 27 22 20 22 22 21 23 24 24 23 21 19 20 19 20 20 20 21 17 17 17 17 32 12 9 11 16 15 14 14 15 16 16 18 14 16 18 14 10 7 25 22
25 23 22 21 19 23 29 24 21 22 22 21 22 22 23 23 21 19 20 19 18 17 18 17 16 14 17 15 10 16 18 16 15 14 15 13 14 14 18 18 21 17 18 14 12 15 22
25 24 24 26 23 20 20 24 29 23 22 22 22 21 21 23 22 20 20 19 17 18 18 15 14 7 16 11 19 19 18 20 16 14 14 12 11 16 17 16 14 18 15 15 11 11 6
27 27 30 26 25 25 23 20 17 24 27 21 22 22 21 21 21 20 19 17 14 20 16 9 10 9 19 16 11 15 20 20 19 15 14 15 11 12 14 12 14 18 9 9 2 12 19
29 28 28 26 31 26 26 26 24 22 19 27 20 21 20 21 20 17 17 14 11 6 10 12 7 14 17 4 6 10 19 22 18 18 15 20 12 15 19 18 22 13 14 17 14 6 8
32 31 31 30 30 31 32 27 26 25 19 19 24 19 18 18 18 18 12 6 6 8 14 22 29 31 30 20 9 16 21 22 23 19 18 15 18 20 20 17 7 12 15 16 9 8 11
35 34 34 34 33 31 29 31 31 27 25 21 21 22 17 17 18 21 16 16 8 13 10 25 32 33 37 29 28 19 27 30 19 20 19 19 17 22 18 11 9 13 14 16 11 9 19
36 36 35 34 33 33 31 29 27 31 31 24 20 22 16 14 16 9 13 11 8 9 7 12 17 12 36 30 30 30 28 31 18 22 22 20 22 10 10 11 12 14 13 14 10 11 10
37 37 36 36 35 33 31 30 30 26 25 28 21 16 22 16 10 6 2 11 6 3 7 5 19 8 11 29 8 34 34 34 25 22 14 19 21 18 14 15 14 14 6 6 10 11 14
38 37 37 36 35 34 33 31 29 30 25 26 24 22 17 21 18 14 5 10 11 5 12 6 9 11 12 25 30 12 39 33 33 23 21 22 19 18 18 14 15 13 10 10 10 10 11
39 38 37 37 36 36 34 33 30 29 29 25 25 23 22 20 18 11 13 10 7 11 7 12 13 12 16 17 23 23 26 27 23 23 20 21 22 18 15 18 8 11 10 8 1 5 9
40 39 39 38 38 36 35 34 32 29 26 27 24 24 24 22 19 12 12 5 14 22 31 6 13 17 18 17 20 24 23 24 26 23 17 17 16 21 13 15 14 13 14 8 6 4 8
41 42 41 40 39 38 36 34 33 30 28 28 23 25 23 20 24 17 7 13 18 26 20 27 20 12 17 18 14 22 22 24 25 26 21 17 22 15 19 15 17 14 14 15 8 2 5
42 41 41 42 40 40 39 36 35 32 29 27 29 24 28 22 27 19 6 19 26 33 28 20 27 17 13 19 19 21 24 22 25 26 19 18 13 24 23 21 19 16 14 9 7 4 4
43 43 43 43 43 42 41 40 37 35 31 29 31 15 21 26 27 17 9 27 34 44 38 27 23 23 22 22 21 20 22 19 23 24 21 21 16 11 16 17 16 11 13 10 13 11 5
44 45 45 44 44 42 43 41 41 39 35 35 31 10 22 37 16 7 21 33 35 29 37 28 25 26 24 25 10 19 21 21 20 25 27 25 6 12 15 14 16 19 16 17 9 9 9
44 42 40 38 40 42 41 41 43 42 42 44 19 14 22 42 13 17 23 34 34 31 32 27 23 23 24 23 17 16 21 17 14 15 22 22 14 11 14 15 16 15 12 15 13 10 12
39 40 40 38 41 40 42 40 44 46 46 48 17 7 11 36 40 26 27 33 28 41 31 33 26 25 20 19 18 17 13 15 14 9 16 15 13 14 11 17 13 13 16 18 18 6 6
40 38 38 37 39 41 41 42 46 51 50 54 22 8 20 13 23 31 24 15 32 27 37 36 26 25 20 12 16 21 15 14 15 14 6 7 17 20 17 18 19 20 20 20 21 17 13
39 40 41 41 42 42 42 40 44 56 53 60 16 9 30 16 33 25 27 28 32 28 28 35 28 26 21 21 18 21 22 14 14 12 13 11 14 15 19 17 22 15 21 21 20 19 17
42 42 42 43 44 44 44 46 46 52 65 34 34 41 27 21 21 18 23 34 33 27 30 36 31 24 20 22 8 10 16 26 14 13 10 11 9 13 17 16 18 19 17 17 15 19 16
42 45 46 46 47 49 48 48 51 53 60 42 42 38 10 9 18 21 31 31 31 27 26 31 35 28 31 18 3 4 15 15 17 9 7 2 11 11 4 3 21 11 15 16 15 16 15
41 40 41 43 44 48 53 53 53 56 54 51 31 37 23 6 18 23 27 23 30 32 25 25 33 39 36 7 1 2 4 4 8 1 3 4 3 3 5 11 13 16 15 11 11 17 18
36 38 38 40 43 47 50 57 57 58 58 53 30 45 31 16 14 34 19 25 17 18 19 28 35 36 29 7 4 5 5 9 3 2 8 3 12 6 3 5 14 9 14 21 9 13 14
32 34 35 36 40 47 49 53 58 59 57 51 38 45 28 16 23 24 13 18 30 22 14 18 30 11 10 8 9 7 10 13 8 9 6 4 7 9 6 4 7 8 16 21 15 9 10
30 35 39 44 37 41 42 54 56 57 58 53 39 48 25 19 10 11 15 16 17 22 13 17 15 14 10 11 9 6 5 9 12 15 12 11 10 5 3 4 13 8 11 20 8 21 7
14 12 8 29 36 42 38 46 53 51 55 54 27 45 33 17 6 13 17 19 17 12 12 25 20 8 11 8 5 5 3 5 9 7 10 11 8 6 7 6 8 20 13 11 15 17 19

GFSGBSN_850_spd_063.txt.gz
Wind_Speed
24 21 21 24 24 22 20 20 19 20 21 22 22 22 20 20 20 19 19 18 18 18 20 20 19 19 21 8 24 19 16 12 12 13 14 13 12 15 9 9 16 7 7 14 10 12 11
20 18 20 21 26 25 26 23 20 20 21 21 22 23 22 20 20 20 19 19 18 18 19 19 16 16 15 13 12 7 10 15 17 17 15 13 13 16 21 15 9 20 18 17 11 7 7
19 21 21 20 18 18 21 25 26 23 22 23 22 22 23 22 21 20 20 19 17 17 18 16 14 15 21 35 11 11 13 14 17 18 15 13 15 18 17 8 17 20 9 10 6 6 3
22 21 19 22 23 20 18 18 20 27 23 21 22 22 22 24 24 22 20 20 17 17 18 15 14 13 16 19 16 20 24 16 16 14 17 14 19 22 14 14 18 10 8 5 10 2 6
22 22 25 25 23 22 22 20 19 18 21 27 22 20 23 24 25 25 21 21 16 17 18 15 15 8 16 7 15 19 20 20 18 16 15 17 18 9 6 4 6 6 10 14 5 7 3
25 24 24 24 25 27 25 22 22 20 19 17 23 24 21 22 23 26 23 21 14 19 20 12 7 8 16 7 11 10 14 19 21 17 15 16 10 3 2 3 7 10 6 8 6 7 6
25 25 26 26 26 27 25 28 23 22 22 21 21 20 21 19 21 22 22 17 6 5 6 14 9 13 25 14 9 6 13 19 22 18 9 15 5 12 12 14 17 16 14 8 4 5 6
27 26 27 28 28 27 27 26 28 26 22 21 19 17 19 19 17 19 18 10 6 8 13 20 29 34 37 32 17 15 14 18 17 14 8 6 16 15 15 17 16 17 6 8 2 4 4
28 28 30 31 30 29 29 28 27 25 27 24 21 19 17 16 17 19 14 16 14 14 7 21 35 31 47 31 24 29 19 30 9 11 12 14 13 18 18 18 17 9 6 8 7 4 6
29 30 32 32 31 30 29 27 27 26 24 23 26 19 16 14 15 7 7 11 1 4 5 7 11 12 28 26 13 41 28 26 8 17 15 10 19 19 18 20 7 6 10 8 7 3 4
32 33 33 33 31 30 29 27 26 24 25 22 20 21 16 15 11 12 1 5 5 7 6 7 7 8 10 24 14 22 35 23 19 17 10 13 7 19 20 13 7 8 9 2 4 6 5
35 35 35 34 32 31 29 28 26 25 23 21 20 18 16 14 19 19 11 7 13 3 11 6 7 8 7 27 14 5 25 34 14 17 15 11 22 14 15 10 9 6 6 4 3 2 6
38 37 36 35 34 32 30 29 27 25 23 22 21 18 20 16 23 12 8 9 3 7 5 7 6 9 8 10 17 15 9 16 15 15 17 18 20 16 13 7 6 5 1 3 4 3 6
39 38 39 37 35 33 31 30 27 25 23 21 18 19 21 21 17 13 10 4 9 17 22 4 5 4 8 7 13 17 16 14 17 14 7 13 15 18 7 13 6 7 8 5 5 4 5
40 37 36 36 35 34 33 31 29 26 24 21 19 23 23 24 18 16 9 10 13 12 12 15 18 14 11 11 8 16 19 17 17 19 14 12 18 6 11 5 7 5 6 10 3 1 2
39 37 36 35 34 34 33 32 31 27 25 22 24 24 28 22 17 17 6 23 18 15 16 13 12 6 6 8 11 13 9 11 19 22 17 5 10 19 10 12 9 11 5 2 1 5 4
42 41 39 37 37 36 35 33 32 29 27 25 27 13 17 26 20 16 14 21 22 21 22 12 11 12 15 15 13 15 6 11 15 20 22 21 8 7 18 10 15 5 9 3 6 4 5
43 42 40 40 39 38 38 36 35 33 30 28 25 5 14 34 15 13 21 17 18 14 24 14 8 14 18 17 13 10 12 16 20 19 24 14 6 11 13 14 22 16 15 9 5 4 4
41 41 40 39 40 40 39 38 36 36 36 36 15 10 25 47 12 19 21 26 25 19 20 6 12 10 13 18 9 6 6 11 26 12 18 14 15 5 6 9 4 13 6 6 7 4 6
42 42 41 40 39 38 36 36 38 40 40 43 15 6 14 37 37 24 24 22 22 16 24 20 19 21 22 21 15 10 6 7 28 16 30 22 7 15 14 5 4 6 10 11 9 3 3
43 42 43 40 37 35 37 39 39 42 44 51 20 7 15 15 24 20 18 7 23 17 24 20 13 25 20 13 16 8 5 9 17 18 4 10 19 15 8 18 12 16 11 14 18 15 9
42 40 36 35 35 35 34 33 36 40 41 53 14 9 20 12 23 22 20 25 28 15 15 16 21 17 16 20 19 4 4 3 4 12 9 3 3 15 19 12 11 11 17 7 8 10 11
38 36 36 36 35 36 37 38 38 38 44 30 38 35 23 15 11 14 26 33 23 17 22 33 21 20 21 18 18 7 7 4 5 5 9 10 5 5 13 12 10 14 12 14 14 14 11
34 36 37 39 39 40 41 41 43 45 47 44 30 34 12 6 17 22 22 25 21 20 20 24 26 14 37 9 6 9 5 5 4 7 9 15 5 4 4 5 13 5 9 7 11 12 7
38 38 38 39 41 42 43 44 46 48 50 50 26 33 21 8 18 22 21 17 26 25 25 19 30 29 23 26 4 3 3 3 3 5 5 18 3 2 5 9 5 16 7 5 7 11 7
39 40 43 42 45 44 45 49 50 50 50 50 39 36 29 16 12 33 17 24 12 15 15 24 39 27 23 5 6 11 4 3 2 4 6 14 3 5 3 2 15 2 8 11 5 9 5
38 40 41 40 38 39 41 44 51 53 53 51 41 30 25 13 23 22 16 16 26 17 11 15 17 17 18 4 4 5 7 5 3 5 5 2 4 3 3 3 6 5 9 13 7 4 8
23 27 33 37 40 41 42 43 46 53 52 52 41 37 33 8 24 27 17 18 19 22 11 8 10 13 3 4 7 5 4 8 6 9 6 7 6 4 3 4 6 8 10 9 1 19 21
26 29 31 34 37 42 41 44 46 47 56 54 34 43 41 15 8 35 33 24 16 18 14 23 13 5 6 3 2 2 2 4 7 10 5 3 6 7 8 7 10 3 5 9 20 23 12

GFSGBSN_850_spd_066.txt.gz
Wind_Speed
15 14 15 18 21 21 19 21 22 19 18 18 20 21 23 22 21 21 20 18 16 17 17 17 18 18 17 6 25 17 17 12 10 12 12 13 13 10 4 4 7 5 8 13 21 8 10
16 18 18 17 16 15 18 20 19 23 22 21 20 23 23 25 23 23 22 20 18 17 17 17 16 17 14 8 12 8 13 14 13 13 14 15 13 13 11 8 2 9 12 16 13 9 4
19 18 19 17 19 18 17 18 19 20 23 23 22 21 23 25 25 24 23 22 20 18 17 17 16 16 19 30 16 10 12 16 14 12 15 18 15 15 6 9 10 12 6 9 9 4 2
19 20 21 20 21 19 18 18 19 17 18 20 25 25 22 23 26 26 24 23 22 19 19 16 15 13 17 15 17 22 26 23 16 14 15 14 12 16 14 17 12 5 2 3 4 2 7
20 21 21 20 21 22 23 22 19 19 17 16 15 18 25 25 25 27 26 23 23 18 21 15 13 9 18 10 11 7 20 30 19 15 13 13 16 20 12 2 5 3 5 5 9 7 3
22 22 21 22 21 22 21 22 23 22 17 18 19 18 20 23 22 24 27 22 20 19 19 13 8 7 21 14 4 12 8 19 21 12 17 17 10 5 1 4 8 6 4 3 6 6 3
24 23 22 23 23 23 22 24 24 22 22 17 18 18 18 17 18 20 25 15 6 5 3 12 11 13 21 15 14 12 10 13 19 14 9 7 4 13 10 9 7 6 7 8 11 10 6
25 25 23 22 23 24 25 24 23 22 21 23 19 17 18 16 16 17 18 12 2 8 14 24 28 36 42 34 15 18 6 15 13 10 7 3 18 13 8 8 9 9 13 14 10 4 7
26 25 24 22 24 25 26 26 24 23 22 21 20 21 17 16 15 14 15 11 9 15 7 19 33 29 43 28 26 33 14 21 7 7 10 12 7 16 11 12 12 14 13 13 9 5 4
27 25 23 24 25 26 26 27 24 23 22 22 19 17 20 15 14 8 8 3 11 11 4 7 9 14 25 22 11 39 31 14 8 16 11 7 19 12 10 14 10 11 11 9 5 2 3
28 24 25 26 27 27 27 26 23 22 21 20 18 16 13 16 11 13 5 8 10 5 6 6 6 5 10 22 13 16 38 24 12 12 9 9 8 15 17 17 11 13 16 8 6 3 2
27 27 29 29 29 28 28 27 23 22 20 19 18 16 14 15 22 18 15 14 3 2 10 6 6 7 8 15 5 5 18 17 14 11 11 13 18 7 12 13 13 16 5 3 3 2 3
30 30 31 31 31 30 29 26 25 23 21 20 18 17 17 17 21 10 10 6 3 7 3 5 5 6 6 8 7 1 10 16 8 9 15 14 18 11 7 9 8 7 4 2 3 2 7
31 32 33 33 32 30 30 28 26 23 21 19 19 18 20 22 19 13 7 3 13 5 10 4 4 8 2 4 5 3 3 6 15 4 5 12 8 18 9 16 8 7 9 5 5 4 5
32 31 34 34 33 31 29 28 26 23 21 19 18 20 23 24 20 13 7 8 9 5 4 9 12 8 3 4 5 9 8 8 10 16 7 8 12 5 10 10 10 5 4 8 5 2 2
33 32 34 36 34 31 28 27 26 24 22 20 22 23 28 22 19 15 6 20 8 5 9 7 2 2 3 7 4 6 4 6 10 12 14 6 4 11 18 6 9 11 6 3 1 3 4
33 35 36 36 36 35 30 28 27 25 24 22 24 12 18 27 23 14 13 16 11 22 10 5 4 4 6 6 5 3 4 10 5 16 15 16 4 5 7 12 8 3 3 1 5 5 5
36 37 37 37 36 38 36 32 30 29 26 25 23 5 15 32 14 12 19 12 15 16 7 13 5 6 5 4 5 4 3 3 16 5 5 12 11 13 17 6 11 10 11 9 6 5 4
38 41 41 38 37 36 36 35 36 33 31 29 13 9 26 43 11 17 14 22 20 6 5 4 6 12 4 3 3 6 4 8 7 5 6 2 7 4 7 9 12 6 7 12 5 4 9
44 44 42 41 39 38 36 35 35 35 34 34 14 5 12 36 16 12 19 20 20 17 24 27 12 12 9 10 7 6 7 7 13 5 16 3 7 15 18 6 5 4 8 18 15 4 5
45 42 42 41 39 38 37 37 36 37 37 40 20 7 11 12 19 15 16 8 23 18 16 12 9 22 8 6 6 8 4 5 5 10 7 5 13 16 14 13 10 7 6 14 14 10 8
44 41 40 38 38 38 38 39 39 38 38 42 15 8 14 2 23 23 22 22 21 18 12 14 16 11 14 16 10 6 7 5 4 3 4 9 6 7 10 9 16 16 18 13 7 6 7
40 38 38 38 37 37 37 39 38 37 37 32 29 27 16 15 12 16 30 22 17 17 16 23 13 12 15 12 15 16 16 6 2 4 2 3 6 9 14 11 15 11 17 10 6 5 7
38 38 37 37 37 35 34 35 37 39 45 48 27 23 12 7 17 23 11 19 20 19 20 14 23 14 18 20 11 9 6 6 5 5 7 6 4 2 4 2 11 20 8 7 12 12 11
32 30 30 31 33 34 35 36 38 41 43 46 23 24 16 11 15 18 19 15 22 26 23 20 21 14 17 17 3 5 3 5 5 7 10 6 5 1 4 7 6 13 7 15 16 10 8
34 34 34 35 36 37 38 39 41 42 42 42 34 29 13 9 18 28 17 20 11 14 14 24 33 33 20 1 3 9 5 2 3 2 6 7 6 4 0 7 13 2 7 4 2 6 5
35 35 36 37 38 39 40 40 41 43 43 43 32 40 19 3 22 27 16 21 20 12 4 6 13 17 22 3 2 4 8 6 5 5 4 2 3 7 2 7 7 7 5 3 9 5 3
34 32 34 37 40 41 44 45 46 45 45 45 44 32 38 9 11 24 32 22 23 26 8 6 5 7 2 6 4 4 4 6 4 5 6 6 6 3 3 4 7 3 5 3 5 0 9
19 23 27 29 29 33 41 43 48 49 51 48 37 39 35 24 7 18 22 34 34 38 29 15 9 6 13 3 3 2 1 1 6 8 5 4 5 5 9 7 9 4 11 2 14 10 10

GFSGBSN_850_spd_069.txt.gz
Wind_Speed
14 15 16 16 16 16 15 14 16 18 20 19 20 23 24 25 24 23 22 21 20 21 21 18 19 19 18 8 20 13 12 9 7 10 12 11 12 7 4 2 1 5 5 8 17 21 11
18 18 17 18 15 16 18 16 17 17 19 20 22 23 24 25 26 27 25 24 23 21 21 19 19 19 13 8 12 8 17 25 22 14 14 14 7 9 4 4 2 3 11 16 16 18 9
16 15 17 19 18 19 17 18 18 17 16 18 19 19 23 26 29 28 30 27 25 22 20 19 19 18 17 31 19 15 14 14 17 16 15 14 14 8 4 4 5 4 8 9 8 7 7
17 17 16 16 15 19 18 20 21 20 17 16 17 18 19 20 25 29 29 30 26 22 20 17 18 15 16 21 22 24 18 19 19 18 15 11 11 10 6 7 6 4 2 3 5 2 5
19 18 20 17 18 18 19 19 19 21 20 16 17 18 20 23 25 25 26 28 27 23 22 16 13 11 18 15 17 8 7 22 22 20 14 11 9 9 5 4 3 3 5 5 10 3 1
21 20 20 20 17 16 19 20 21 20 20 20 17 17 19 21 21 22 23 23 23 21 14 8 6 7 22 19 8 6 11 7 21 16 15 10 9 4 2 4 7 5 4 3 5 6 3
22 21 20 22 19 18 19 18 20 20 19 19 19 17 16 19 19 20 22 18 7 2 4 12 10 12 14 7 13 11 7 7 15 14 7 7 3 10 14 8 4 3 3 4 11 13 3
23 22 22 22 20 18 19 19 20 21 20 19 19 18 20 18 19 18 14 11 6 9 14 24 31 34 42 34 17 22 5 10 10 9 7 2 16 7 7 7 6 5 6 10 10 12 7
23 23 22 23 21 19 20 19 19 20 21 20 18 18 17 19 19 16 11 6 6 16 7 14 29 30 44 26 25 40 22 8 6 7 9 10 4 16 13 6 9 8 8 7 9 8 6
24 23 24 24 19 20 20 21 22 22 21 20 18 17 15 14 16 12 5 4 9 14 4 8 9 13 19 15 10 39 26 16 6 13 6 7 16 4 5 11 9 13 9 12 12 4 5
25 26 26 21 21 22 21 23 23 22 21 20 16 16 15 13 9 8 3 5 13 1 5 4 5 3 9 18 3 12 37 24 9 8 8 9 7 13 12 18 8 10 7 10 10 7 2
26 27 26 25 23 23 24 22 22 23 21 20 17 16 14 16 20 19 15 12 4 2 8 6 5 6 7 9 4 4 24 13 20 6 5 11 5 8 10 8 11 9 3 3 2 3 5
28 28 30 27 25 25 24 24 24 23 21 20 18 17 17 18 17 11 7 4 4 7 6 5 1 5 4 5 5 3 8 13 9 11 13 4 11 2 3 5 5 5 3 3 3 1 8
30 30 29 27 26 26 26 25 24 23 22 20 19 18 19 21 15 13 10 2 11 3 9 5 5 5 5 5 5 5 6 11 7 4 5 10 6 13 7 12 6 7 9 5 6 3 5
31 30 30 27 26 26 26 26 24 23 23 21 19 21 24 24 17 12 4 8 6 5 4 7 8 3 4 1 1 3 5 7 10 6 6 7 7 4 9 6 11 4 6 10 4 2 2
32 32 31 28 26 26 28 27 24 23 24 22 22 23 28 25 18 15 5 13 11 3 8 5 5 6 6 7 5 3 2 1 4 16 6 3 1 6 6 5 7 9 5 2 1 5 4
35 35 34 30 27 28 30 29 27 25 26 25 25 13 15 26 21 13 9 9 17 23 11 6 4 5 4 4 4 4 1 3 5 6 12 12 2 4 1 6 7 3 9 3 4 5 6
37 36 35 32 30 29 30 32 31 29 26 25 21 5 22 32 10 7 13 5 9 11 3 4 3 6 5 4 4 2 3 5 12 4 3 7 5 12 23 7 4 8 8 9 5 3 3
38 38 36 33 32 32 33 33 34 36 30 25 12 10 30 40 10 10 9 9 8 3 7 2 4 2 3 2 3 2 5 8 14 11 5 5 3 8 8 4 10 9 5 6 3 3 10
41 40 38 36 36 36 37 36 35 37 36 29 12 5 10 27 14 16 13 14 11 15 11 5 3 5 2 2 2 4 6 5 18 6 12 5 2 4 7 7 3 5 12 10 12 7 4
42 41 40 40 41 40 39 39 37 37 38 32 17 6 10 8 17 11 16 9 18 10 18 10 7 15 6 4 3 6 7 13 7 2 3 4 1 5 12 14 15 14 10 14 18 12 11
45 45 45 45 43 41 40 40 40 39 36 36 12 8 11 5 21 21 16 17 13 18 9 15 9 8 8 17 12 7 10 3 6 3 5 2 3 5 5 8 14 17 18 12 8 7 12
49 48 45 45 43 41 41 41 41 41 37 27 28 15 12 13 13 18 24 18 19 12 15 24 11 13 12 15 19 25 26 26 13 5 4 3 3 3 5 13 12 8 17 14 14 6 6
42 42 42 41 39 39 39 40 41 42 44 40 28 23 11 6 15 17 16 23 23 17 16 11 23 13 14 15 20 22 20 19 14 7 7 5 4 3 3 6 4 7 8 11 15 14 8
36 36 35 34 35 37 38 39 41 42 44 46 25 24 23 9 10 19 20 20 27 28 17 23 22 27 12 7 1 4 2 5 9 9 9 7 5 4 2 3 7 16 7 4 7 17 11
32 31 28 29 30 32 37 37 38 39 40 51 41 32 8 7 16 17 19 18 11 13 14 22 28 24 7 0 1 4 3 4 4 5 4 5 4 3 2 3 6 10 11 18 17 16 7
35 33 32 33 32 31 29 32 33 33 35 41 34 31 18 5 8 27 16 19 18 14 5 9 17 16 23 3 2 3 6 4 4 7 5 3 1 6 3 4 7 8 13 9 4 6 5
33 35 33 33 34 34 34 35 35 37 37 41 30 44 28 5 5 13 30 17 21 26 6 9 5 5 3 6 4 4 3 5 6 5 7 7 7 4 3 3 7 1 6 4 9 8 6
20 29 32 34 38 38 36 37 39 40 40 40 25 36 32 17 5 2 25 24 36 39 26 19 11 7 11 3 2 1 2 1 4 3 3 4 5 4 7 6 5 8 8 10 18 23 6

GFSGBSN_850_spd_075.txt.gz
Wind_Speed
12 13 16 17 16 15 15 15 14 16 17 17 17 18 18 19 21 24 24 23 26 24 23 23 22 22 21 10 14 16 10 4 12 17 14 15 18 9 6 6 6 6 5 7 15 13 11
13 13 13 14 12 14 15 16 17 18 18 18 18 19 20 20 19 21 23 26 24 25 24 20 21 21 16 7 8 7 5 14 13 15 16 15 9 14 6 5 8 5 9 10 10 14 8
13 14 15 15 13 14 15 16 16 16 16 16 17 19 20 21 22 22 24 25 26 23 22 18 20 21 18 25 15 21 23 19 17 22 20 15 15 10 8 3 10 4 6 8 9 7 4
17 17 16 17 16 15 17 16 15 16 16 16 17 18 19 21 22 23 26 27 27 25 23 19 19 18 14 19 23 24 24 21 18 15 18 16 14 10 5 2 2 2 2 5 1 4 1
18 20 19 18 18 17 18 17 15 15 16 15 16 17 18 19 22 25 26 28 29 26 19 18 14 12 13 16 15 6 13 20 18 21 15 8 12 6 4 4 3 2 7 6 5 3 3
21 22 20 19 18 18 18 17 16 16 15 16 16 18 18 18 21 23 27 27 19 12 6 5 8 5 17 13 5 4 2 9 7 21 12 10 5 4 3 9 11 8 6 5 8 2 1
23 23 21 21 19 19 18 17 15 14 16 16 17 17 19 18 20 23 27 24 7 3 9 11 7 8 6 5 7 8 8 6 9 16 10 8 7 13 20 16 5 7 6 7 4 4 2
21 22 20 22 19 18 18 17 16 13 16 16 17 16 17 18 20 23 20 6 4 9 15 27 28 33 28 5 4 13 9 6 8 8 7 4 14 16 10 10 13 8 7 10 12 4 8
23 23 22 23 20 19 19 18 15 14 15 16 16 14 14 16 19 19 11 4 4 17 7 16 17 21 31 33 19 27 11 7 6 9 16 17 6 11 13 10 14 16 18 14 13 6 4
22 21 21 23 21 20 21 21 14 16 14 14 15 12 11 15 14 9 8 2 4 16 5 7 4 6 9 11 10 43 25 21 6 13 10 12 14 9 11 15 15 14 10 13 13 5 7
21 21 23 22 22 20 21 19 18 17 14 15 13 12 11 12 13 12 10 10 14 5 6 1 3 1 10 13 4 3 34 19 18 8 7 9 9 20 7 12 14 12 8 12 11 9 6
24 23 24 24 21 21 21 19 22 19 15 15 14 12 11 14 16 13 13 11 8 1 8 6 3 2 4 11 4 4 15 9 13 6 2 7 3 8 15 6 18 5 4 2 2 2 6
24 24 25 25 23 22 20 21 22 19 16 16 14 13 12 14 12 8 8 4 1 5 6 6 4 3 4 3 5 4 6 13 7 10 15 10 7 3 4 12 6 6 4 3 2 4 7
25 25 25 25 25 23 21 21 19 18 16 16 15 14 15 17 15 9 4 1 9 4 6 6 5 11 4 1 4 3 7 9 8 2 7 12 8 15 9 6 7 13 13 5 7 5 2
28 29 28 25 24 25 22 21 22 18 17 16 17 17 19 20 15 11 5 4 4 4 3 9 11 4 5 5 3 2 4 5 4 10 5 8 8 5 7 7 11 6 9 11 1 1 2
29 28 27 28 27 24 23 22 22 19 18 16 17 17 24 20 17 16 3 8 5 3 5 4 5 6 6 9 6 4 2 8 5 3 2 2 2 4 9 6 6 8 10 5 3 6 9
30 30 29 29 27 25 25 26 24 20 18 13 15 9 11 17 19 13 5 7 7 20 11 4 4 5 5 5 5 6 6 5 9 7 6 1 1 1 5 5 11 7 7 2 4 4 6
31 30 31 31 32 29 28 30 26 20 17 16 16 5 14 21 11 4 4 7 5 8 5 5 2 3 3 5 4 6 4 3 15 12 5 5 2 3 5 2 3 2 8 10 6 5 2
34 33 33 31 31 31 29 27 26 21 20 15 9 8 15 30 9 7 5 5 5 4 4 2 1 1 2 3 4 3 4 4 11 12 9 6 2 2 2 2 4 3 2 4 3 2 15
33 32 31 30 30 31 31 29 26 23 23 19 7 3 8 23 12 16 8 9 7 9 14 3 1 1 1 3 2 4 5 4 16 10 13 1 2 3 1 2 3 5 10 10 6 5 7
34 34 33 32 33 34 34 32 29 25 25 22 11 5 8 4 9 10 14 12 14 8 9 14 5 8 4 2 3 4 4 5 5 8 6 2 5 5 6 11 7 8 7 10 10 10 10
37 37 38 38 37 36 36 35 31 29 28 28 8 6 7 2 9 14 14 12 17 15 8 6 6 6 10 8 9 9 4 2 3 6 6 7 1 5 5 10 11 8 10 17 15 10 13
33 34 34 36 38 41 39 35 33 32 33 25 24 26 9 5 9 9 9 15 17 13 10 18 11 12 12 9 9 14 17 16 11 7 5 5 2 2 3 5 7 6 9 8 2 5 4
33 34 35 36 35 36 40 41 38 37 41 41 25 19 13 8 12 12 15 17 18 18 15 12 20 9 3 3 11 11 15 16 14 12 13 5 3 2 1 2 7 3 4 5 6 9 9
35 35 35 35 37 38 36 41 45 44 45 46 37 25 16 8 8 12 16 19 21 21 19 19 9 7 10 10 3 4 1 2 7 14 15 13 5 2 3 6 8 9 7 4 6 8 7
35 34 32 34 38 37 35 35 42 48 51 45 44 38 18 4 12 19 15 23 13 10 8 21 9 6 3 1 2 2 2 2 1 2 8 13 10 3 3 3 5 3 2 3 1 6 5
23 24 27 29 34 37 35 33 39 44 45 50 34 47 27 14 17 25 14 13 18 15 4 5 9 5 11 4 3 5 4 2 3 2 5 6 3 9 4 4 6 9 8 3 2 5 8
26 28 27 26 28 34 34 34 35 38 43 46 43 36 39 11 6 28 28 19 18 22 6 11 6 5 4 6 4 3 3 4 3 2 4 7 6 5 5 4 8 0 2 1 7 9 12
28 26 22 24 24 33 34 33 31 35 39 42 31 38 38 23 6 23 27 28 34 36 24 21 9 7 10 3 4 3 4 1 5 3 2 4 6 4 8 6 2 3 6 14 17 20 22

GFSGBSN_850_spd_078.txt.gz
Wind_Speed
12 13 9 10 11 11 14 16 16 16 17 16 18 18 18 18 18 18 19 21 22 23 24 23 21 19 18 7 15 18 16 8 7 18 16 17 18 21 17 14 14 18 15 14 18 17 15
13 11 12 12 11 11 12 13 13 14 15 14 16 17 17 18 20 21 21 21 22 24 23 22 20 19 9 13 15 13 9 11 11 16 13 16 11 18 12 16 15 5 17 17 18 18 16
14 15 14 13 13 14 14 16 16 14 14 15 15 15 16 18 19 21 23 24 22 21 22 22 21 17 14 23 20 21 16 13 10 15 17 15 15 10 7 12 18 12 15 15 17 21 16
17 17 18 16 15 15 16 17 17 15 12 14 16 15 16 16 19 21 23 26 24 25 23 19 18 13 14 13 23 26 25 26 23 21 21 14 12 15 13 7 6 10 12 13 4 10 10
18 19 20 20 16 18 17 17 17 16 16 16 15 16 17 17 18 21 24 26 22 22 20 14 10 11 14 14 24 24 28 26 18 20 15 7 11 19 14 15 14 14 14 12 9 11 6
21 20 21 20 19 18 20 18 17 14 14 15 16 16 16 17 18 21 25 23 16 11 7 1 3 7 15 7 4 5 8 13 10 16 13 14 13 12 14 16 19 18 16 12 13 6 12
20 18 21 21 23 22 21 18 17 15 13 15 17 16 16 16 18 21 24 14 6 5 5 9 5 12 12 8 8 11 9 11 9 20 18 24 15 19 26 23 19 15 14 16 8 0 7
23 23 21 19 20 22 17 17 17 16 13 14 16 16 15 14 17 19 12 5 4 5 16 21 28 35 32 9 7 14 12 12 12 16 18 11 20 22 18 18 19 19 17 18 12 7 8
23 23 25 24 23 23 21 17 18 20 14 14 15 13 11 12 14 8 8 2 1 13 8 13 11 15 17 20 21 12 18 14 12 17 21 19 9 20 17 15 18 20 20 17 15 7 11
22 24 21 21 18 21 22 20 19 20 16 15 12 12 10 10 7 6 4 4 4 13 5 3 3 3 3 8 10 31 20 15 10 15 13 15 19 10 19 22 18 21 19 16 17 11 9
24 23 23 21 21 21 21 18 22 19 19 16 11 9 10 8 7 5 4 7 8 3 6 3 2 2 4 10 8 6 33 28 21 9 5 8 13 21 19 18 18 19 14 12 15 14 14
25 26 24 24 22 21 21 20 20 19 21 16 12 11 10 8 9 7 7 4 3 4 6 3 2 2 4 11 4 3 8 22 13 18 13 19 6 10 19 11 17 5 8 7 6 7 10
24 25 24 24 24 22 20 21 18 20 19 15 13 12 12 9 5 3 4 1 4 5 5 4 6 6 10 4 5 5 10 14 11 9 18 18 18 8 8 18 12 15 13 6 7 6 8
25 26 26 23 23 25 22 20 21 17 16 15 15 15 13 12 9 6 0 4 8 2 6 10 7 13 4 5 4 10 6 11 18 16 11 19 11 21 13 14 7 20 15 6 7 8 6
30 25 27 28 23 26 19 18 20 17 17 15 15 14 15 12 11 8 6 6 3 4 4 9 12 4 2 2 5 6 4 2 6 17 9 15 20 13 15 16 15 9 15 17 17 8 6
25 29 26 26 25 26 23 19 19 17 16 14 11 11 13 12 11 15 3 9 7 3 4 6 4 5 5 8 4 4 4 8 3 4 15 4 6 11 22 17 19 15 12 8 9 8 14
32 29 27 24 27 23 24 23 20 19 16 13 11 6 6 9 15 12 5 8 10 13 5 3 4 6 5 6 7 5 3 9 13 9 10 8 4 4 10 14 19 15 13 11 9 14 12
28 29 27 29 26 26 26 26 20 19 15 14 9 4 9 17 11 3 5 10 8 9 8 6 5 6 5 6 5 6 5 7 16 16 5 4 4 6 12 6 12 17 17 17 10 12 9
29 30 29 29 31 29 28 27 24 19 17 13 8 11 10 21 8 10 2 11 13 12 10 5 6 4 2 4 5 5 4 9 11 13 10 7 4 7 8 8 5 10 11 10 12 14 18
30 27 25 27 27 27 26 26 25 21 19 20 5 4 11 20 18 16 14 11 12 15 14 9 7 6 10 13 10 8 9 5 18 13 14 5 3 5 4 4 4 3 2 3 5 7 10
34 33 32 30 27 25 25 25 28 25 21 22 12 8 10 5 15 10 16 12 18 11 13 13 8 17 14 10 9 11 7 8 7 7 6 3 5 6 6 4 4 5 7 7 9 8 8
27 28 31 31 32 32 31 29 32 27 24 28 11 6 5 9 8 15 15 15 20 18 12 11 14 8 16 18 15 14 16 13 7 4 6 6 5 7 9 11 10 12 12 12 13 15 15
26 25 28 28 31 33 35 35 35 33 31 28 26 15 7 11 13 9 4 20 20 17 19 18 13 12 12 14 15 14 13 11 11 8 4 4 3 5 10 5 9 11 16 17 13 8 7
30 30 30 29 29 31 33 36 39 38 38 35 26 18 10 9 8 12 13 16 17 18 15 12 18 14 7 6 7 14 16 18 16 14 15 6 5 1 2 3 8 3 4 9 10 8 8
32 33 33 31 30 30 33 35 39 43 40 43 32 24 14 8 18 21 19 16 22 21 18 19 13 12 11 2 3 5 6 9 12 18 16 15 7 3 4 10 13 14 8 7 7 6 4
30 31 32 33 32 34 34 36 39 41 46 45 42 37 19 7 16 22 17 19 15 15 13 19 10 10 8 3 4 6 6 4 4 7 13 16 13 7 5 6 6 5 9 4 3 5 6
32 28 23 22 25 29 33 37 40 41 44 51 43 45 32 9 18 19 19 17 16 12 6 9 12 7 9 4 4 5 5 1 4 4 6 8 10 13 12 7 4 4 7 4 8 5 13
23 23 23 24 25 26 28 32 39 41 39 52 47 42 45 15 22 22 22 21 22 24 9 9 6 6 5 7 5 4 5 6 5 3 8 10 9 7 9 7 9 3 3 3 10 12 14
23 23 25 27 27 25 29 29 37 39 36 47 42 42 39 30 10 23 23 25 27 29 18 19 10 8 11 7 6 4 4 2 7 4 5 5 6 4 6 6 4 3 7 6 8 10 12

GFSGBSN_850_spd_081.txt.gz
Wind_Speed
16 13 13 10 12 11 11 13 14 15 16 17 17 17 17 18 19 20 20 21 20 21 23 23 23 20 18 12 22 18 24 19 14 12 19 22 24 24 22 20 23 20 21 24 18 18 18
15 14 14 14 13 12 13 14 16 15 14 15 16 16 15 16 18 20 21 21 22 21 21 22 23 21 14 21 15 15 10 8 11 13 16 21 19 21 20 24 20 18 20 23 26 20 20
17 16 16 16 16 16 16 15 16 18 14 13 15 17 17 17 18 21 23 24 23 22 22 22 23 19 17 31 19 18 14 11 10 15 18 17 19 12 18 17 21 21 19 20 20 21 20
19 19 18 19 19 19 18 18 18 19 16 15 14 17 18 18 20 22 24 25 26 24 22 21 19 11 15 15 17 26 24 23 20 18 16 18 17 19 23 16 14 13 18 19 20 23 21
19 18 19 19 20 21 20 19 19 19 16 14 15 16 18 19 21 23 25 25 23 21 18 17 9 10 16 9 12 19 24 23 13 17 20 18 17 21 18 15 16 17 17 19 21 11 10
20 19 19 24 23 22 20 21 21 18 16 15 12 17 17 18 21 22 25 21 13 12 7 4 9 7 14 13 7 3 7 18 16 10 19 20 16 17 19 16 18 20 20 19 20 14 13
20 23 23 18 18 21 21 20 18 17 16 16 12 17 17 18 19 19 23 19 5 6 9 16 12 17 14 8 10 6 6 7 10 11 20 25 16 22 26 26 24 22 23 18 12 3 8
26 22 22 25 21 20 19 19 19 18 17 15 14 16 16 15 16 15 12 10 4 5 15 24 28 30 30 23 18 10 11 10 9 16 24 21 25 24 24 22 21 25 23 21 17 9 6
23 21 22 22 22 24 24 22 20 18 18 18 15 15 14 14 15 8 7 4 4 10 9 13 12 12 11 17 25 23 16 13 11 20 23 23 21 26 24 20 22 22 23 21 19 15 7
24 24 22 22 23 19 18 20 19 22 19 16 15 14 13 12 9 4 5 5 7 9 6 8 3 2 3 6 6 23 19 18 9 19 21 18 27 22 24 26 21 21 19 22 18 15 14
25 24 23 24 22 21 21 19 18 19 20 18 17 15 11 11 10 7 6 9 9 7 6 4 6 1 1 7 9 4 24 20 16 20 13 16 15 21 21 23 18 21 18 20 17 13 17
23 25 26 23 26 23 23 18 17 20 17 18 19 16 13 8 13 8 8 10 5 7 6 4 3 2 6 8 7 3 20 21 18 15 24 22 22 12 18 18 17 18 17 13 12 13 15
26 26 25 24 22 22 24 24 19 19 16 20 18 16 14 9 7 5 6 7 7 7 6 3 2 5 11 9 6 10 9 21 15 17 18 23 27 20 23 12 12 19 13 9 10 11 12
28 28 25 24 25 25 20 24 21 18 15 18 15 16 14 14 14 9 7 9 10 2 2 5 5 11 7 5 6 9 8 13 23 16 8 11 14 21 16 15 14 17 18 9 14 11 12
28 27 26 24 25 23 21 18 23 18 14 17 16 13 15 17 17 11 10 10 5 5 5 6 11 8 0 1 4 7 8 3 10 21 14 5 12 16 16 18 13 13 18 19 9 14 5
27 27 27 25 26 24 22 24 24 12 14 14 9 11 18 14 16 13 4 17 11 5 3 6 8 2 4 5 5 4 10 6 1 4 17 10 15 13 23 25 25 17 12 9 8 6 12
26 26 26 25 27 23 20 22 19 16 15 12 9 6 7 20 19 10 7 17 14 13 5 5 3 6 4 4 8 6 4 9 10 5 13 15 14 7 11 19 22 17 19 13 14 15 4
25 26 26 25 24 24 23 21 21 18 17 11 13 5 10 22 13 4 11 17 14 9 16 10 6 8 9 6 6 3 2 7 14 14 4 17 5 12 10 21 18 20 20 20 8 11 11
29 28 25 25 24 25 24 22 20 22 20 12 11 13 10 19 8 12 12 18 18 15 15 12 13 7 5 7 5 2 3 5 8 12 11 8 8 11 4 7 9 16 18 19 16 13 10
30 29 29 26 23 24 25 24 25 27 23 18 9 4 17 16 9 11 17 18 15 15 20 16 13 12 11 14 13 7 7 3 8 11 16 7 9 11 8 4 3 13 11 18 13 10 13
30 30 29 28 28 25 22 24 27 25 23 22 14 8 9 7 16 16 15 8 21 18 15 13 15 16 16 16 15 16 13 11 3 2 8 3 8 9 11 8 5 5 5 8 12 12 10
28 27 27 26 28 30 29 26 27 27 26 30 11 8 14 21 14 18 19 12 22 19 16 16 16 16 16 17 15 13 8 8 9 5 4 5 8 6 11 11 11 12 11 12 13 12 14
23 22 20 22 25 28 30 32 31 32 32 26 28 15 14 13 17 12 12 21 15 23 17 20 12 14 13 11 9 11 14 10 10 9 8 6 6 10 11 9 8 10 14 15 14 14 15
24 25 24 25 25 25 26 34 36 37 39 35 23 21 12 11 13 16 19 14 14 19 20 15 17 10 9 9 10 11 14 16 16 15 13 9 8 7 7 3 10 9 4 6 9 14 6
30 29 27 27 27 28 28 31 36 40 42 41 31 27 24 12 18 17 17 8 9 17 20 11 9 8 5 7 6 8 9 11 15 20 18 14 12 7 7 10 13 18 6 6 9 11 5
32 31 32 30 29 29 29 30 37 39 46 44 41 35 23 15 18 26 18 21 12 9 11 19 10 9 4 4 3 7 6 9 7 6 19 16 14 10 6 11 11 13 5 6 4 8 9
32 31 30 30 31 30 33 33 34 41 43 51 43 40 31 13 22 21 19 14 20 11 7 13 11 5 9 3 5 7 8 4 4 9 11 11 11 14 12 8 6 7 7 3 10 2 7
23 23 24 23 24 26 22 28 33 37 46 49 52 39 43 25 22 19 23 17 20 15 4 6 7 5 2 6 5 5 4 5 7 3 10 11 9 7 8 5 14 9 6 7 8 4 9
24 25 25 23 23 26 27 28 28 30 39 47 41 47 38 32 12 25 27 22 22 18 14 14 9 9 13 7 6 4 4 3 8 5 10 6 10 8 11 8 6 8 9 3 7 8 11

GFSGBSN_850_spd_087.txt.gz
Wind_Speed
14 14 15 14 14 14 15 17 17 19 20 20 20 18 16 18 19 19 20 20 20 19 18 18 20 20 20 6 25 16 22 19 17 10 8 9 13 17 9 12 19 17 18 30 31 33 30
14 15 16 17 18 17 19 19 17 20 22 23 24 21 20 21 21 21 22 21 21 20 20 18 21 20 15 9 8 3 11 16 14 11 14 9 13 19 18 16 16 21 23 25 30 27 28
15 17 16 18 20 20 20 21 20 21 22 23 26 23 20 21 22 23 23 23 22 21 20 20 20 17 18 37 19 19 14 15 14 12 14 11 15 23 13 11 29 27 17 18 19 17 10
18 20 20 17 18 19 20 21 21 21 22 23 27 25 21 20 20 24 24 24 23 21 20 17 16 9 15 16 10 11 11 14 18 15 15 15 12 15 9 13 15 9 11 15 8 11 14
18 20 21 20 20 19 20 22 24 26 24 24 24 23 22 21 22 23 23 23 22 16 13 11 12 10 14 7 12 5 4 10 14 15 17 15 13 10 10 3 5 2 8 13 12 13 14
19 22 21 21 21 22 22 22 20 22 21 22 21 23 23 21 22 19 20 20 10 11 7 3 5 6 15 6 3 4 6 7 7 9 6 12 5 2 4 2 9 6 8 9 11 17 14
19 20 20 23 24 24 22 23 25 21 19 22 25 22 25 22 21 14 15 19 10 3 3 11 12 14 8 10 14 12 9 7 7 9 4 6 4 6 8 8 9 13 15 18 12 13 13
23 23 23 23 20 25 22 19 21 25 26 26 25 23 25 23 18 11 11 7 9 9 14 25 36 41 37 34 19 22 12 8 6 6 6 6 11 7 8 11 13 9 14 24 21 20 14
20 19 20 20 22 21 21 20 21 22 23 22 21 24 25 23 15 5 9 8 10 12 6 18 19 17 17 18 17 21 22 18 7 7 8 7 3 4 9 10 10 12 19 20 23 23 18
22 23 22 24 23 23 20 20 23 22 24 21 19 21 22 21 11 7 3 3 9 12 4 7 6 6 11 7 7 14 17 16 5 6 3 3 5 9 13 14 11 17 15 18 19 11 9
19 20 22 22 21 20 20 24 25 26 21 21 19 17 19 15 14 13 6 5 8 5 5 11 7 11 11 8 5 6 8 19 7 5 6 4 3 4 12 16 15 14 15 15 10 12 17
20 20 21 21 21 21 21 21 21 24 21 19 18 17 16 15 14 9 6 4 9 2 7 6 7 9 8 12 6 7 4 8 2 2 7 9 13 4 5 9 17 11 14 10 9 10 9
21 21 20 20 21 24 24 22 20 21 22 21 17 18 16 15 20 5 4 7 3 4 7 8 7 7 7 5 9 6 7 4 4 3 3 6 16 11 13 7 7 12 8 4 6 5 7
18 19 20 22 23 22 22 21 23 20 20 20 17 17 20 18 17 12 11 2 6 9 7 8 3 2 6 7 8 9 12 6 8 5 3 3 6 10 12 13 5 9 10 3 4 3 3
22 22 22 20 21 20 20 18 21 19 17 15 17 20 23 14 14 10 9 5 4 4 10 7 5 3 5 8 2 4 9 3 12 11 7 3 4 3 10 8 10 4 7 13 5 3 2
21 19 20 20 21 20 19 19 19 16 16 15 16 14 21 8 6 13 6 8 9 11 14 8 4 4 4 7 1 6 7 6 9 6 7 4 4 8 2 0 12 9 7 5 3 3 4
20 22 22 21 20 19 21 18 18 15 14 11 12 6 16 6 14 13 7 7 12 21 19 4 5 8 10 7 5 4 4 3 7 8 9 10 6 4 3 2 8 8 4 5 2 3 2
23 23 24 23 21 21 19 20 16 13 10 10 9 3 7 10 9 4 4 5 6 11 20 7 3 4 7 9 6 5 4 2 4 6 4 5 3 7 16 10 8 8 11 7 3 5 3
23 24 25 24 22 21 19 18 16 13 12 9 5 10 13 13 6 5 4 8 16 17 15 7 6 3 7 6 4 4 9 4 3 3 2 5 2 3 5 3 8 9 14 13 10 2 4
24 25 25 24 22 20 19 17 16 14 12 13 5 3 7 12 6 4 8 9 13 16 14 18 12 13 8 6 5 4 2 3 8 6 4 2 4 4 4 4 2 6 7 19 14 3 4
24 23 22 20 19 19 19 18 17 16 14 14 6 4 5 2 6 7 6 3 8 14 13 14 5 9 10 9 7 5 6 6 6 10 5 3 2 9 11 8 7 2 11 3 12 10 6
23 23 22 20 19 20 18 19 18 16 16 18 4 4 7 8 10 6 6 4 10 12 10 10 12 9 9 10 8 4 5 7 2 5 3 0 3 6 8 11 7 11 14 3 1 4 11
24 23 22 20 17 14 13 17 19 21 21 17 15 22 9 6 5 2 3 7 9 10 12 14 10 7 12 11 4 2 6 5 6 2 3 5 3 4 3 9 14 5 10 13 11 16 11
24 24 23 21 17 17 16 15 21 25 27 28 18 14 5 4 3 4 9 11 11 9 8 9 7 5 4 13 10 3 1 15 10 8 9 4 5 3 4 6 3 4 6 4 2 10 5
26 25 24 22 21 20 19 19 19 23 30 31 29 17 7 3 7 11 12 10 16 17 5 5 13 5 11 10 4 0 3 3 9 14 11 10 5 2 2 3 6 14 4 3 2 7 11
25 24 25 25 25 24 21 20 22 21 28 32 34 29 16 3 7 16 12 13 7 5 3 4 8 4 4 2 1 3 4 6 4 4 18 12 7 5 2 4 5 5 2 10 1 5 7
27 25 23 22 21 22 24 23 24 25 25 36 34 35 22 13 21 13 4 5 7 5 2 6 3 4 6 3 2 3 4 3 4 4 2 10 5 11 7 3 6 5 7 10 4 4 10
26 19 17 18 19 19 20 24 27 27 28 29 42 36 37 16 24 13 15 14 10 11 1 4 4 1 1 2 3 4 1 4 3 9 4 7 7 4 4 3 6 13 6 4 6 18 20
19 17 16 18 19 19 20 21 22 29 31 31 32 42 34 26 7 9 27 30 23 14 6 5 2 2 4 1 1 3 2 2 5 3 5 2 6 5 6 5 9 22 18 24 23 24 22

GFSGBSN_850_spd_090.txt.gz
Wind_Speed
12 13 13 13 15 17 17 19 20 19 19 21 23 25 25 24 24 23 23 22 21 19 19 19 20 22 22 10 28 14 17 18 13 7 6 9 13 15 7 6 13 8 10 23 29 29 27
12 14 15 16 17 18 19 20 20 20 21 22 24 25 27 26 25 24 24 23 22 21 21 19 19 21 17 11 6 4 9 12 11 12 13 9 8 13 8 8 7 8 16 23 25 26 25
13 16 17 18 18 16 20 18 21 21 23 23 24 27 29 26 25 24 24 24 23 22 21 19 19 18 17 38 15 19 20 20 14 14 14 14 6 15 4 4 9 16 13 14 13 11 8
16 14 16 20 19 19 20 18 21 22 23 25 23 24 26 26 26 25 25 25 23 23 20 17 17 10 17 18 16 14 7 19 16 16 15 14 11 12 8 6 6 4 4 6 5 8 7
15 17 17 19 22 21 21 22 22 24 23 22 22 24 27 30 27 25 25 24 22 23 21 13 12 10 17 9 11 1 2 2 9 16 19 17 11 7 3 3 2 3 8 12 7 3 6
14 16 18 19 19 20 22 24 22 22 24 24 22 24 28 29 28 25 23 22 8 8 6 8 8 6 19 3 2 2 2 2 1 3 6 11 7 3 1 4 9 6 6 5 3 3 7
16 19 21 21 22 21 21 22 20 19 20 24 27 27 29 31 33 23 19 17 8 1 4 11 11 14 14 5 9 7 1 2 4 3 4 2 3 7 8 6 4 4 7 9 6 5 7
17 18 20 19 19 19 22 20 19 19 21 22 24 25 22 28 31 17 14 7 12 15 13 25 32 41 36 26 13 14 8 3 4 6 3 3 7 6 7 6 7 6 3 7 5 5 12
20 19 21 21 22 22 23 20 19 19 20 25 24 22 20 24 28 11 7 8 11 12 7 18 19 20 28 31 15 27 22 8 3 3 6 6 3 5 5 5 8 6 5 3 5 14 11
15 18 20 20 22 23 21 21 19 21 23 23 25 20 20 24 16 9 7 12 7 9 4 7 7 9 11 9 6 25 11 13 5 9 3 6 2 3 1 3 2 12 6 5 7 6 5
18 19 21 20 20 21 20 20 20 22 22 22 22 20 17 16 23 18 12 12 4 1 5 5 8 10 18 15 5 5 12 16 6 5 5 4 4 2 1 3 6 6 4 7 1 8 9
17 19 20 20 20 21 21 22 22 21 19 19 17 17 17 17 20 14 12 9 3 2 8 5 7 8 9 7 3 11 6 9 9 5 2 5 4 6 8 3 1 2 4 5 6 8 10
15 15 17 19 20 22 23 22 22 20 20 19 19 17 17 16 19 14 14 6 3 6 9 6 5 8 12 6 5 6 9 7 6 4 4 2 5 4 5 4 3 5 5 3 5 6 11
17 19 20 21 21 21 20 19 18 18 18 17 18 17 19 20 17 14 10 3 8 5 8 9 3 9 7 6 7 6 8 5 3 4 3 4 3 6 6 7 4 6 5 3 6 4 3
19 19 21 18 19 20 20 19 18 17 16 15 16 17 24 20 13 11 7 5 3 4 10 13 6 2 3 6 5 7 4 3 7 7 6 5 4 1 5 3 6 4 4 5 5 2 1
19 18 17 18 20 19 19 18 18 16 15 13 14 17 25 13 9 9 5 4 6 6 16 10 6 8 7 8 4 4 2 3 2 6 3 2 2 4 4 4 5 8 2 2 3 3 3
20 19 20 20 21 20 20 18 17 15 12 9 10 8 8 3 12 7 4 7 7 14 17 9 6 4 5 8 6 3 3 2 3 4 6 2 3 4 2 5 5 3 3 4 4 3 1
17 20 19 20 21 20 20 17 16 11 10 7 4 4 1 6 4 5 3 2 7 9 13 7 6 3 3 5 4 4 4 4 1 2 3 2 1 4 9 11 6 8 4 4 3 3 3
19 19 20 21 22 20 18 16 13 10 8 7 4 8 12 7 4 6 3 7 6 10 11 6 9 8 10 5 4 3 4 2 3 1 3 2 3 4 6 5 6 3 8 11 8 2 4
19 20 21 22 20 17 16 14 11 9 8 10 2 3 2 7 3 3 7 6 8 9 9 8 9 9 6 5 4 2 2 4 7 4 4 1 3 3 4 7 4 6 3 12 10 3 3
19 20 20 20 18 16 17 16 12 11 11 12 6 4 3 1 4 6 4 4 3 4 4 9 3 2 7 4 6 4 3 4 5 2 1 3 1 2 7 14 6 6 6 7 4 12 4
20 20 19 19 17 16 14 14 14 13 13 15 6 3 3 7 5 2 6 3 3 5 2 6 5 10 5 4 4 6 2 2 1 5 3 4 2 3 4 8 10 14 14 11 5 11 11
18 19 19 19 18 16 13 9 12 17 19 12 13 12 3 5 4 3 1 3 6 8 8 13 10 3 3 1 7 12 8 3 2 2 1 2 3 4 3 6 12 8 7 15 7 12 7
20 18 19 20 19 16 14 12 11 19 24 23 15 10 4 3 2 3 8 14 11 10 4 5 7 3 2 5 12 14 9 9 5 5 7 3 2 2 3 3 5 7 13 9 5 4 15
19 19 21 22 21 19 16 15 15 15 25 27 21 12 5 3 4 6 7 7 13 19 7 2 4 3 2 3 3 5 3 4 5 8 7 9 4 1 2 3 10 14 2 3 10 5 8
19 22 21 20 20 20 19 18 17 18 19 30 29 24 13 2 5 12 3 7 4 3 6 5 7 2 1 2 2 2 3 4 3 3 8 9 5 4 1 3 4 5 6 21 3 3 4
21 21 22 22 20 20 19 20 21 21 21 23 32 28 24 9 17 14 1 1 3 3 2 4 6 4 2 1 2 3 3 3 3 3 2 3 1 12 7 3 6 5 16 18 8 3 10
21 21 21 22 17 15 16 17 20 23 23 26 30 31 31 12 19 9 5 6 0 2 1 7 4 2 1 1 1 2 2 4 3 4 4 6 5 4 3 4 9 18 7 4 5 18 20
21 21 20 17 15 14 15 17 18 22 26 27 26 27 29 22 7 4 16 24 23 14 8 3 3 3 2 2 2 2 2 2 3 3 2 4 5 3 6 4 7 17 17 22 17 21 19

GFSGBSN_850_spd_093.txt.gz
Wind_Speed
8 10 11 13 15 14 16 18 19 19 22 22 24 26 28 30 32 31 29 27 25 23 23 23 23 24 26 11 28 14 14 16 10 8 7 14 16 19 6 5 10 9 3 14 19 22 20
10 11 13 15 16 17 18 18 19 19 22 24 25 28 29 29 32 31 32 30 27 25 24 23 22 22 18 9 14 6 16 25 14 11 13 11 8 16 8 8 8 5 13 19 18 23 17
12 13 12 16 18 18 18 19 20 20 21 23 23 25 25 28 32 33 34 33 28 26 24 24 19 20 18 38 10 11 11 15 14 14 17 17 12 10 4 4 17 14 15 10 5 6 7
13 12 15 15 18 20 20 21 20 23 22 22 23 24 27 28 33 37 35 34 27 25 25 26 21 14 17 27 20 25 18 27 25 19 18 15 12 8 8 8 6 4 3 2 4 9 9
10 9 12 16 19 20 20 21 22 22 22 22 22 24 25 30 33 39 40 32 25 23 24 23 15 11 17 14 15 5 10 7 12 16 14 13 10 7 4 1 3 3 6 5 4 6 5
12 10 13 17 18 20 21 21 22 21 20 21 22 24 26 30 31 34 37 26 13 11 5 4 6 5 18 4 0 3 6 8 6 12 11 13 8 4 2 4 10 6 5 2 4 3 3
10 12 13 14 16 17 17 20 22 20 20 20 20 22 26 27 27 31 31 20 9 4 9 10 9 15 13 5 9 7 6 5 8 5 5 5 4 9 10 5 4 4 4 4 3 5 4
15 16 17 17 17 19 21 22 21 21 21 21 21 21 27 26 27 32 18 9 9 18 19 24 30 39 46 31 11 12 6 4 5 4 3 1 6 5 7 6 6 6 7 9 5 5 5
16 12 14 17 17 18 20 20 20 21 22 22 24 24 24 25 23 25 11 11 17 21 7 22 28 24 31 26 23 31 8 5 3 5 7 6 4 1 7 4 5 4 7 4 7 4 6
13 13 14 18 18 18 19 20 22 21 22 23 24 21 22 23 18 22 17 8 12 10 5 8 6 11 16 15 10 34 22 10 4 9 6 5 1 3 2 1 3 4 5 6 4 2 7
13 16 15 17 18 19 19 21 22 23 23 22 21 18 19 17 20 22 23 17 9 1 5 3 6 4 16 18 9 9 22 11 9 6 6 3 5 4 3 3 3 5 4 5 7 3 2
11 11 12 14 16 17 18 20 22 22 22 21 19 18 18 18 19 18 16 14 7 2 9 6 6 5 8 7 1 9 9 9 7 4 2 4 2 4 5 2 1 1 2 3 3 0 8
11 13 14 17 19 20 21 21 21 20 20 18 18 18 18 17 20 17 15 13 1 6 8 1 2 6 10 5 2 4 8 7 6 5 4 2 3 3 4 3 2 3 3 2 4 5 6
12 12 16 18 19 17 18 19 19 20 19 17 19 18 20 20 18 14 14 2 8 6 9 9 7 5 6 5 4 3 8 4 1 5 4 5 1 7 5 7 6 5 5 3 4 3 3
10 14 15 16 13 17 18 19 18 19 19 18 19 19 23 20 15 12 3 5 4 3 7 13 16 4 4 4 6 4 3 4 5 4 4 4 3 2 5 4 7 3 7 2 5 3 3
10 16 15 16 16 17 18 18 18 18 15 17 17 19 21 8 6 10 3 5 5 3 11 10 6 8 7 6 3 5 3 3 3 5 3 2 1 3 2 4 2 4 3 4 3 3 3
13 17 13 15 16 17 18 18 16 15 12 13 12 10 6 5 15 6 4 4 7 12 11 6 9 7 4 4 5 5 4 1 2 3 3 2 2 2 6 6 7 3 3 3 2 4 2
15 13 15 15 16 17 17 16 15 11 10 9 4 3 2 2 3 3 2 5 12 8 8 6 11 7 7 8 7 3 5 4 4 2 4 1 3 2 8 5 5 3 3 4 2 2 3
13 16 16 15 16 17 15 15 14 9 8 6 3 8 8 5 2 2 5 8 9 10 7 4 7 6 5 4 5 8 5 3 7 3 3 3 2 3 2 3 5 4 1 2 6 3 6
17 18 15 16 16 16 14 14 13 8 8 7 2 3 4 1 1 2 3 8 4 9 8 12 11 10 3 5 6 4 4 5 4 2 4 5 2 2 3 4 3 4 6 7 3 3 3
19 17 16 16 15 15 13 12 15 10 10 9 3 3 2 2 2 3 3 5 9 4 3 9 3 5 4 6 5 5 6 5 6 4 3 3 1 2 5 8 5 5 10 12 9 8 6
19 16 16 16 15 14 13 10 10 11 12 14 6 2 3 4 8 5 2 2 2 4 3 5 4 4 6 4 2 2 5 4 2 5 3 2 2 1 4 5 2 5 14 15 12 9 11
17 15 14 16 14 14 13 11 9 14 18 11 11 7 2 3 4 3 3 7 7 11 4 8 7 3 4 1 2 5 5 9 5 1 1 1 1 2 4 4 7 6 7 10 3 4 2
18 16 16 16 15 15 14 12 11 13 20 19 13 8 5 3 2 3 9 12 8 11 5 7 6 3 4 4 8 8 8 8 7 7 7 5 4 3 3 3 3 6 11 11 6 5 16
19 16 19 16 17 17 16 15 14 14 19 23 20 12 6 2 6 6 7 4 9 13 6 5 8 5 6 5 3 3 3 3 4 8 7 5 4 1 2 3 8 9 4 3 10 8 6
20 19 19 18 19 18 17 17 17 17 18 24 24 20 8 2 5 12 5 6 3 3 6 3 7 8 4 3 3 2 2 1 3 5 3 5 3 3 1 2 3 4 3 15 11 3 2
21 19 19 19 18 18 18 18 18 20 19 24 22 25 18 5 12 9 1 1 3 2 1 4 9 7 7 2 0 2 3 2 2 2 1 3 1 7 6 6 6 4 11 13 4 3 9
22 21 20 18 20 20 19 19 19 19 22 24 29 20 29 9 15 4 8 14 7 1 1 6 4 3 3 2 1 2 2 2 2 3 2 4 4 3 3 4 7 15 4 1 4 16 15
22 19 18 19 19 18 15 15 18 19 24 26 25 26 22 17 7 3 17 19 17 8 2 3 1 3 4 2 2 1 2 3 1 2 4 1 2 2 5 3 8 19 15 18 18 20 20

GFSGBSN_850_spd_096.txt.gz
Wind_Speed
6 8 10 12 13 14 16 17 18 20 20 21 23 25 26 27 29 32 33 34 34 30 28 25 24 23 25 9 23 17 14 17 11 3 9 17 15 9 5 4 7 6 2 7 17 25 19
7 8 9 10 13 14 15 16 17 19 21 23 24 24 27 27 27 35 37 37 37 32 28 25 22 20 15 13 16 11 16 24 18 12 12 12 10 15 5 5 6 4 9 17 19 23 19
7 7 10 11 12 14 16 16 17 20 22 20 23 24 25 28 30 34 40 41 38 32 27 23 23 20 20 39 18 15 15 14 17 12 14 16 13 6 5 2 13 10 7 8 7 9 9
6 4 6 10 12 14 16 19 20 20 23 21 21 24 25 27 31 36 38 40 36 28 27 25 25 17 17 27 26 26 25 28 20 21 18 15 13 8 6 5 4 2 2 3 4 10 10
7 7 8 11 14 15 16 16 17 19 22 21 21 23 25 25 29 34 38 40 31 20 19 18 15 12 15 15 15 9 11 23 15 20 21 13 14 7 4 4 2 1 4 4 4 7 5
6 8 9 12 12 13 13 14 17 20 22 21 22 22 23 27 30 33 38 38 16 10 9 5 1 5 13 9 12 10 10 10 4 14 12 12 8 4 2 4 9 5 4 4 5 5 5
7 12 13 13 13 14 15 16 18 18 20 21 22 23 25 27 31 32 36 26 11 5 17 14 19 20 29 11 8 3 1 5 7 13 6 8 4 8 11 5 2 3 4 4 2 6 5
10 9 9 10 12 12 13 15 17 19 20 22 23 25 27 27 26 27 23 20 10 17 18 23 32 36 43 38 20 20 7 6 7 4 5 3 11 7 6 6 6 5 5 5 5 7 7
7 11 10 12 13 13 14 15 16 19 20 22 23 24 25 24 24 21 23 14 15 25 8 26 30 24 31 29 25 35 12 4 3 6 6 6 2 7 7 5 6 4 4 4 6 4 5
9 12 10 10 12 13 14 16 18 20 21 22 22 21 21 23 18 16 18 24 19 22 5 7 6 9 13 13 10 35 24 8 2 8 7 4 3 5 6 4 6 3 5 5 3 2 4
8 10 7 8 11 13 14 15 17 19 20 20 21 19 19 18 23 22 24 25 17 9 6 3 4 3 13 17 7 13 29 17 6 5 6 5 7 5 3 4 6 4 3 2 1 3 1
3 6 7 9 12 14 16 16 17 18 20 19 20 18 20 19 20 20 18 25 11 3 8 6 4 4 8 12 1 11 11 10 10 4 0 5 2 4 4 3 3 3 2 1 2 2 5
6 8 9 10 12 14 12 14 16 17 18 19 18 19 19 19 22 19 18 15 4 4 7 7 9 6 11 5 3 7 12 6 6 5 5 2 2 2 3 4 2 3 4 3 3 2 5
11 8 9 10 12 10 11 14 16 17 18 18 20 20 20 20 20 15 13 3 5 6 7 13 8 19 6 4 1 3 10 4 2 4 4 5 3 7 4 4 4 3 3 4 4 3 3
13 7 11 11 12 11 12 14 16 17 17 18 20 21 19 15 11 6 1 2 3 5 5 9 15 5 3 3 4 5 3 5 5 5 4 4 1 2 3 3 6 3 3 1 3 6 4
9 8 11 12 11 11 11 13 15 16 15 17 18 21 10 16 3 11 3 6 4 8 5 5 4 8 7 5 2 4 3 0 4 6 1 3 5 2 3 5 4 4 4 1 3 3 4
9 10 11 9 10 11 11 13 14 14 13 14 13 9 10 10 12 4 2 5 10 18 7 6 7 5 5 5 3 3 4 3 2 3 4 3 3 3 4 3 6 3 1 2 2 3 3
8 12 9 11 10 10 12 12 12 12 11 10 5 3 5 4 4 3 2 4 3 13 13 3 4 5 5 9 5 4 4 5 5 3 4 2 3 2 3 4 5 3 3 1 3 3 3
10 9 13 13 11 10 11 11 10 10 8 6 3 5 5 2 1 2 6 7 7 10 9 4 5 4 7 6 4 6 5 5 14 5 3 2 2 3 3 3 5 3 2 2 3 3 6
9 13 15 13 10 11 10 9 8 13 7 4 1 3 3 1 5 5 4 5 5 11 12 1 5 8 8 8 8 6 2 2 1 3 11 6 3 4 2 3 2 3 3 6 7 3 4
14 13 16 14 12 11 9 8 8 8 7 5 1 2 1 3 2 4 5 5 9 7 9 3 1 8 8 4 4 6 7 6 8 8 5 4 3 2 1 4 3 6 9 9 11 12 7
15 15 14 14 12 11 8 7 6 5 9 10 4 2 2 6 10 4 7 9 11 8 4 2 5 5 9 4 1 4 5 6 4 7 4 4 2 2 2 5 2 5 9 12 15 15 13
15 13 15 13 12 11 8 7 6 8 13 9 9 6 3 5 3 2 1 5 9 14 8 10 7 3 5 6 6 4 2 2 1 2 2 1 3 2 2 2 6 7 4 5 6 4 2
17 14 17 16 13 12 10 9 8 10 12 16 8 5 4 3 2 3 6 7 9 13 4 11 12 4 7 13 11 7 5 6 4 5 4 2 2 2 2 3 2 6 10 5 4 4 7
19 16 16 12 15 13 12 10 11 12 13 13 15 9 4 2 5 7 7 5 10 19 4 4 8 11 14 8 4 2 3 3 3 2 3 4 3 1 1 1 6 8 3 4 4 8 4
18 17 18 15 17 15 15 15 14 14 14 20 19 16 7 1 4 8 4 7 3 4 6 3 8 12 9 3 3 3 1 0 3 3 8 5 4 2 1 0 3 5 4 15 6 3 14
20 19 19 16 18 18 18 16 15 16 16 18 22 21 15 3 10 8 1 2 2 2 3 5 10 9 12 3 3 2 2 3 1 1 1 3 3 3 2 4 5 4 11 12 2 4 12
20 20 20 18 19 19 17 16 17 17 17 20 24 21 20 8 16 7 7 13 8 1 2 7 4 4 4 4 2 2 1 2 3 2 1 2 3 3 2 3 6 14 4 4 4 16 17
21 23 21 19 18 18 18 18 20 18 19 22 24 24 20 15 8 5 10 20 17 5 2 5 1 3 6 3 2 2 2 3 3 2 5 2 2 2 5 2 8 12 12 11 13 13 17

GFSGBSN_850_spd_099.txt.gz
Wind_Speed
4 4 5 6 7 9 11 12 13 14 15 16 17 18 20 21 23 26 29 32 34 32 32 30 25 21 20 10 23 24 18 17 18 6 15 22 15 13 10 7 8 7 5 8 15 21 17
2 3 4 5 8 10 11 11 13 14 15 16 15 16 18 21 23 27 31 33 34 32 30 28 21 18 15 16 21 9 13 22 15 12 11 18 13 20 8 8 12 6 18 18 10 16 14
3 2 4 7 9 11 13 15 15 15 16 18 18 17 19 21 24 28 32 35 36 31 29 26 22 19 20 40 24 24 18 20 12 14 16 17 19 13 10 2 12 6 7 10 11 12 8
2 2 5 8 10 12 13 13 12 15 17 18 19 19 22 23 26 30 34 37 33 27 24 20 16 14 16 23 27 27 24 32 27 23 19 16 17 13 8 6 2 5 3 5 1 13 10
3 5 6 8 10 10 11 12 14 15 16 17 18 19 21 23 27 31 35 35 28 19 15 13 9 10 12 9 9 10 8 14 14 26 26 15 15 9 7 8 4 2 8 5 3 7 4
3 4 6 8 10 11 12 12 14 14 15 17 18 20 21 24 27 29 30 31 18 11 9 7 1 6 12 7 6 14 12 9 7 14 10 14 8 6 4 9 11 9 7 5 6 2 7
4 5 6 8 8 9 10 10 13 14 16 17 19 20 20 23 25 26 27 31 15 6 14 14 22 26 41 24 25 10 6 6 5 12 10 11 10 17 18 17 5 6 4 6 2 5 8
3 5 5 6 8 9 10 11 13 15 17 18 20 21 21 21 21 22 20 14 9 16 19 24 34 39 39 36 20 29 14 7 8 9 7 6 17 11 10 9 9 8 10 10 6 8 7
4 5 6 6 7 9 11 12 13 15 16 19 19 20 20 20 20 11 21 12 17 25 8 25 27 19 19 22 25 33 16 6 5 8 8 6 2 13 11 8 9 8 12 8 10 5 7
3 5 6 4 6 9 11 12 13 15 17 18 18 20 19 21 9 22 17 20 21 15 5 8 4 5 7 7 11 35 22 10 4 12 11 6 2 6 7 10 11 12 8 7 5 3 5
8 4 2 4 7 9 11 13 14 15 16 17 18 18 18 18 19 20 18 21 18 7 5 2 0 6 3 9 8 7 31 17 7 7 6 5 7 8 6 4 9 4 5 6 5 6 3
3 2 5 4 7 9 10 10 12 14 16 17 18 19 17 17 19 16 19 19 7 2 7 7 3 8 2 11 6 4 17 10 8 5 3 3 2 4 5 4 3 8 6 2 2 3 5
1 3 5 5 6 10 7 10 12 14 16 17 19 17 18 17 19 16 14 12 1 4 7 7 10 14 14 13 5 8 14 11 10 8 8 2 3 3 6 7 2 3 5 2 2 3 4
6 7 3 7 7 8 8 10 12 14 16 17 19 18 18 11 12 10 6 2 4 5 8 11 11 22 9 5 5 10 17 11 2 5 10 9 5 8 5 3 6 7 4 3 4 3 1
7 7 5 8 8 7 8 9 11 13 16 17 19 18 11 14 13 4 1 1 3 4 8 11 21 6 4 2 0 8 7 11 4 4 5 6 2 3 3 3 3 3 3 1 2 3 1
8 6 7 9 6 6 7 9 11 12 14 16 18 14 12 19 7 4 3 4 5 9 15 5 6 8 15 10 1 4 4 2 4 4 3 6 6 2 3 5 9 2 6 3 1 2 3
7 8 7 7 5 5 7 9 9 11 13 13 14 5 9 17 5 1 0 4 8 13 12 7 3 7 8 6 8 4 4 3 1 3 2 4 3 2 5 3 8 3 3 3 1 2 1
8 5 8 6 6 4 6 8 7 10 11 9 6 2 9 7 5 1 2 3 12 13 15 7 6 6 7 4 5 4 4 6 12 3 4 1 4 5 2 3 4 3 4 3 2 4 2
10 8 6 10 8 6 6 6 6 8 11 7 4 3 4 5 2 3 5 6 7 8 11 3 4 3 14 7 3 4 5 10 13 3 2 3 2 6 7 5 2 3 3 4 3 1 4
8 7 10 11 9 7 6 4 4 8 7 2 3 3 3 2 1 3 9 5 7 8 12 6 4 8 6 5 5 4 3 7 12 8 13 4 3 3 4 5 3 2 2 2 2 2 4
10 12 11 12 10 9 6 3 3 5 2 1 3 1 2 3 3 7 6 6 9 10 5 5 3 8 9 4 6 9 11 7 5 8 5 4 5 5 5 3 3 2 3 5 7 10 7
14 13 13 10 8 10 7 4 3 4 3 4 2 3 1 4 9 5 4 5 9 11 4 6 10 9 8 8 10 8 6 3 3 8 4 3 3 1 1 3 4 4 7 10 9 10 13
15 14 11 8 10 9 8 4 4 5 5 4 6 3 1 3 4 4 2 5 8 12 7 13 15 6 5 10 17 17 10 9 4 3 3 3 3 1 2 3 4 5 4 7 7 6 5
18 13 13 11 13 10 10 7 6 7 7 8 4 4 3 2 2 4 9 11 11 11 9 15 14 7 8 23 18 9 8 6 4 4 2 2 3 1 1 2 2 2 8 2 8 8 11
14 14 14 13 9 12 13 8 9 10 8 13 10 6 4 2 4 8 7 7 13 17 3 5 7 14 20 10 3 2 1 2 4 7 2 1 2 3 1 1 5 2 6 5 5 8 13
17 17 15 14 13 12 15 10 11 11 11 14 17 12 5 2 3 4 4 6 4 4 7 4 11 11 16 2 3 5 3 3 2 2 6 5 4 2 1 1 2 4 10 13 6 3 17
18 18 16 15 13 14 17 14 15 13 14 16 17 18 10 4 7 7 3 3 4 2 4 6 11 10 17 5 3 4 3 3 2 2 2 3 3 1 2 2 4 7 16 12 2 4 15
19 20 18 16 16 15 18 17 16 14 15 18 20 16 16 7 12 12 8 8 7 2 3 7 4 4 5 6 3 3 2 3 3 3 3 3 2 1 1 2 2 15 5 5 1 8 11
20 19 18 18 17 16 16 20 18 15 15 18 20 18 17 13 9 9 9 12 12 14 7 4 0 2 5 3 3 3 2 3 5 2 5 3 4 2 3 4 7 15 15 11 11 11 14

GFSGBSN_850_spd_102.txt.gz
Wind_Speed
6 4 3 2 2 4 6 7 8 10 11 12 14 15 16 17 19 22 24 26 26 28 26 25 24 23 17 11 20 19 23 19 15 11 9 13 19 26 23 18 24 23 21 19 20 26 25
7 6 4 1 1 3 6 8 9 10 11 13 15 15 16 18 20 23 26 29 31 29 27 25 23 21 14 21 18 9 6 12 13 13 12 16 14 22 14 22 20 10 25 24 22 21 23
8 6 4 2 1 4 7 8 8 10 13 14 16 17 18 20 22 25 28 31 31 29 28 23 19 15 20 34 18 20 23 21 15 13 15 15 20 14 13 14 24 21 19 17 17 16 13
9 8 5 3 3 5 6 7 9 12 14 15 16 17 19 20 23 26 28 29 29 26 23 17 14 9 15 13 22 26 19 22 26 24 18 15 10 18 18 17 8 17 18 19 18 20 25
9 7 6 3 4 5 7 8 10 12 13 14 16 18 20 22 23 26 29 30 27 19 14 14 5 7 15 10 9 6 11 12 10 19 23 15 11 17 14 15 14 13 15 17 14 12 13
10 7 5 4 4 4 4 7 10 11 11 13 15 18 21 23 23 24 27 28 17 8 7 5 5 6 13 7 8 14 11 8 9 10 16 16 13 13 16 16 19 15 15 18 15 13 16
10 7 5 3 2 3 4 6 8 10 12 15 17 18 21 23 19 22 23 17 10 4 11 14 19 25 32 28 24 22 9 5 8 15 17 24 15 23 24 21 16 16 16 17 10 4 12
9 7 4 3 1 4 5 5 7 9 11 14 17 19 20 20 17 12 17 8 8 9 16 25 35 36 37 30 22 30 18 12 17 15 18 12 24 22 19 18 20 18 16 15 12 11 14
9 6 4 2 1 2 3 5 7 10 12 14 17 18 19 19 16 11 11 6 10 15 9 16 12 15 12 10 25 36 18 24 16 17 22 17 10 22 16 16 19 20 19 14 13 11 16
9 6 4 3 2 1 3 6 7 9 11 14 16 17 17 19 6 16 7 13 14 10 5 7 3 0 6 6 8 22 24 20 14 19 17 13 8 10 18 22 19 18 16 14 12 8 7
10 5 6 5 1 1 4 4 6 9 11 14 16 15 17 15 13 11 13 14 14 1 6 6 4 3 8 7 20 3 28 28 18 13 10 10 14 14 16 19 17 14 6 11 10 10 10
10 9 3 4 2 1 2 3 5 8 11 14 15 15 17 13 12 11 14 15 5 6 10 5 6 12 17 13 24 14 19 19 17 11 15 8 5 10 8 8 16 9 9 6 4 5 7
11 7 8 5 3 0 1 3 6 8 10 13 15 15 16 12 9 14 12 9 6 8 7 4 14 20 23 20 14 12 17 20 15 17 15 10 10 6 14 13 9 11 12 5 5 4 5
7 8 7 4 4 2 2 2 5 8 11 13 14 14 9 12 15 13 6 5 6 8 13 19 18 24 10 18 12 12 14 20 20 12 13 11 7 12 10 11 9 14 13 4 7 5 4
10 8 9 7 5 3 0 2 4 6 10 12 14 9 7 15 12 7 4 3 7 14 14 17 24 13 11 19 9 9 14 21 18 13 6 11 6 8 12 6 9 10 8 1 2 1 3
12 6 8 7 5 3 0 2 4 6 10 11 13 4 8 12 8 3 3 5 7 15 16 14 10 8 19 23 11 7 14 16 14 13 5 7 6 11 9 12 4 5 9 4 4 5 5
11 9 9 6 6 4 1 2 3 5 8 9 8 1 9 9 7 3 5 7 15 17 16 4 7 12 10 15 12 6 7 10 7 10 2 10 6 8 11 9 13 6 5 2 0 2 2
13 8 8 6 5 5 2 1 2 4 7 8 3 1 9 8 2 3 6 11 18 12 11 8 8 11 13 15 7 8 7 5 0 11 10 1 7 11 9 4 4 3 5 4 3 5 2
12 11 9 7 6 6 4 1 1 3 7 4 2 2 5 6 4 7 10 9 7 12 12 7 6 9 15 5 5 3 4 11 6 5 3 5 7 8 8 6 7 6 6 6 4 2 3
13 14 10 9 7 8 6 3 2 3 6 3 2 1 1 2 1 7 10 10 15 15 11 13 9 11 14 3 4 6 6 14 16 11 17 2 3 4 6 8 9 8 8 6 3 3 1
13 14 10 10 9 9 8 5 4 1 2 3 3 2 1 2 1 8 8 10 15 13 9 10 3 14 13 8 11 9 12 8 18 19 10 6 8 11 11 10 8 8 7 5 2 5 4
14 14 12 12 8 11 10 7 5 4 2 2 2 1 1 3 6 6 4 7 13 12 5 12 16 19 12 13 12 13 13 9 6 1 4 5 2 7 9 7 5 3 1 4 3 4 6
15 17 14 11 7 9 11 10 8 5 5 2 3 1 2 1 4 4 3 7 9 14 6 13 17 14 13 17 24 17 13 12 6 7 7 2 3 2 4 1 1 3 7 6 2 5 7
15 16 13 10 10 10 12 12 9 8 6 4 3 2 1 1 3 5 10 11 10 11 11 18 16 13 16 28 20 4 4 1 3 7 3 2 4 2 3 3 3 6 6 6 4 11 16
17 15 15 12 14 11 12 13 10 10 10 9 6 2 1 3 5 3 9 8 10 10 6 10 13 16 21 15 5 2 3 2 5 13 5 4 2 3 1 4 6 8 8 9 8 7 16
17 17 15 14 13 14 13 15 11 10 11 14 9 9 2 5 1 4 8 6 5 8 6 5 15 12 16 3 3 5 4 4 3 3 6 4 4 2 0 2 3 7 11 12 8 2 15
15 18 16 12 14 10 13 18 13 13 11 12 12 13 8 4 4 3 4 6 4 4 4 5 14 11 14 6 4 4 4 4 2 3 5 3 3 4 2 3 5 11 16 18 4 6 12
17 20 18 15 14 14 16 17 16 15 14 13 14 13 10 4 10 10 10 10 7 6 4 12 5 6 6 4 4 4 4 5 3 6 4 4 3 2 1 1 2 21 8 6 5 12 11
19 18 22 15 17 16 15 16 19 18 15 12 18 14 14 13 7 8 14 19 16 11 8 3 5 4 5 3 3 3 2 3 4 2 7 2 5 4 5 3 7 16 14 11 12 10 13

GFSGBSN_850_spd_105.txt.gz
Wind_Speed
15 13 11 9 7 4 2 3 4 5 6 7 9 11 13 15 17 19 21 22 25 26 27 26 26 27 19 13 28 21 27 25 22 14 15 15 23 27 29 28 31 31 27 32 30 29 26
16 14 12 10 8 6 4 4 5 5 7 9 11 12 14 17 20 23 25 26 28 28 27 25 21 20 14 24 16 15 18 10 10 18 21 20 20 24 25 31 27 31 33 29 30 26 25
17 15 14 11 9 6 4 4 5 7 8 10 12 15 18 20 23 26 28 29 29 28 26 24 20 14 19 35 15 15 17 18 16 15 20 22 20 20 24 23 28 34 23 21 22 32 24
18 17 15 12 9 6 5 5 6 8 10 11 14 16 19 22 24 26 28 29 28 25 23 18 15 10 15 15 16 23 24 27 26 26 25 20 17 23 26 17 24 17 25 24 24 21 21
19 18 15 12 9 7 6 6 6 7 8 11 14 17 19 22 24 25 26 27 25 19 13 11 4 6 17 8 11 11 14 19 21 21 25 22 21 23 18 20 18 25 21 27 26 25 23
19 18 16 12 10 7 6 5 5 6 9 10 13 17 19 20 21 22 25 24 15 11 9 7 10 7 18 11 6 7 13 14 17 16 20 26 16 18 20 18 23 23 24 22 23 19 21
20 17 15 13 10 6 5 4 4 6 8 11 13 16 18 18 19 19 24 23 13 6 7 14 22 25 32 29 29 31 24 17 14 18 20 28 19 23 35 28 24 22 20 21 16 20 19
20 18 15 13 8 5 2 1 2 5 7 10 13 15 17 17 18 14 17 13 11 9 19 28 34 34 32 26 23 26 19 23 20 21 21 19 26 31 24 24 23 22 19 18 16 17 8
18 17 15 11 7 4 3 1 2 4 7 9 12 14 17 17 10 14 12 9 12 14 10 27 18 16 12 9 21 25 23 27 23 22 23 27 23 24 25 21 21 19 19 19 17 12 14
18 15 13 11 8 5 3 1 1 4 5 8 11 13 15 18 7 13 6 14 12 11 6 8 8 4 4 7 11 12 18 29 25 27 23 25 23 18 22 23 20 19 20 21 18 14 14
16 14 11 12 8 6 4 2 1 3 5 8 10 13 14 15 9 10 12 14 12 4 7 6 5 2 9 9 13 17 2 25 27 26 20 19 21 19 23 23 18 17 18 19 16 16 15
19 12 13 10 8 6 5 3 0 2 5 6 9 12 15 10 8 9 14 14 5 6 8 5 11 17 19 21 25 19 23 18 29 26 21 17 14 15 15 19 14 21 11 11 13 12 14
17 15 12 11 9 7 6 4 2 2 4 6 8 11 10 6 8 14 13 10 6 7 12 13 23 24 25 20 21 23 20 18 21 20 16 15 18 16 13 12 16 17 16 8 9 10 11
20 15 13 11 9 7 5 4 3 2 4 5 8 8 6 6 12 10 7 9 9 12 20 23 20 27 25 16 16 16 13 16 25 25 12 15 7 15 16 17 13 19 17 7 11 13 13
15 14 15 11 9 8 5 5 3 2 4 5 8 4 3 10 7 6 11 5 11 14 17 18 25 18 16 15 14 13 19 19 23 25 8 14 5 13 15 11 16 17 15 18 6 9 4
16 14 15 12 10 9 7 5 4 2 3 5 3 1 3 9 8 7 5 8 11 14 19 18 17 10 15 28 16 16 12 17 26 19 12 5 6 12 15 11 7 14 14 6 6 4 6
17 14 16 11 10 10 8 6 4 2 2 6 2 4 3 9 5 4 4 10 13 16 15 8 14 20 17 22 8 12 7 16 20 19 12 10 9 12 14 13 14 6 10 5 5 3 4
17 15 16 10 10 10 9 6 4 3 3 5 2 1 5 4 3 2 5 11 10 13 17 10 10 14 12 17 9 6 5 11 7 13 13 11 4 12 19 14 9 14 11 10 5 5 1
16 13 15 10 11 11 10 6 6 3 2 1 2 1 2 4 3 5 9 8 12 17 14 7 8 6 11 7 4 7 3 13 3 3 4 6 5 10 6 9 6 10 7 4 3 2 5
17 16 13 13 11 11 11 8 7 3 1 4 1 0 1 1 0 9 9 8 15 10 6 16 10 7 16 6 8 10 8 15 16 9 13 2 5 8 6 12 14 8 10 7 3 3 1
17 14 17 14 12 10 13 10 8 5 4 5 1 2 1 0 2 7 8 9 13 12 10 18 5 20 16 8 13 15 14 8 13 22 8 5 6 8 5 11 12 11 10 6 4 2 3
16 13 18 15 13 12 15 12 10 7 7 2 3 3 4 2 4 6 1 7 11 13 5 13 18 21 17 18 18 19 15 11 6 11 10 12 5 8 12 10 10 10 6 2 2 3 6
18 17 18 15 13 11 16 13 11 9 8 3 2 1 4 2 2 4 3 7 12 12 6 15 17 16 14 22 30 21 13 8 7 4 5 7 4 4 4 5 7 7 9 6 5 19 12
22 21 18 15 11 10 16 15 13 11 10 1 3 2 2 3 4 4 6 8 10 11 10 15 17 15 19 30 21 2 3 2 6 5 6 4 2 2 4 4 4 7 10 7 16 18 15
18 17 19 14 14 12 15 16 13 12 12 6 3 1 4 4 3 2 7 7 9 7 9 9 16 18 22 18 5 2 4 4 8 10 7 7 4 2 1 4 13 8 9 9 8 10 16
19 19 17 16 15 12 16 17 15 13 14 10 5 4 3 5 3 4 7 3 6 8 6 8 17 12 18 5 4 5 4 8 5 5 6 3 3 1 2 4 3 7 16 17 8 4 15
18 20 18 18 15 13 17 17 16 13 12 11 11 7 2 3 5 5 8 7 8 8 7 9 20 10 16 7 5 5 4 5 4 5 6 5 5 6 2 2 7 11 23 25 4 4 11
15 18 23 19 13 16 15 16 18 15 11 10 9 7 4 4 9 10 8 7 7 8 6 14 9 9 7 7 5 4 4 6 4 7 6 7 6 5 3 2 4 24 9 6 5 9 11
15 19 23 18 15 16 15 19 20 16 15 10 12 11 10 7 8 10 11 14 14 11 9 5 2 6 6 3 5 3 3 3 5 1 10 3 5 4 6 3 4 10 11 10 9 8 11

GFSGBSN_850_spd_108.txt.gz
Wind_Speed
22 20 17 14 13 11 9 8 6 6 7 7 9 10 12 13 16 19 20 22 22 24 25 25 25 25 25 10 27 22 28 22 24 20 18 20 22 23 26 27 31 31 30 37 38 34 34
21 20 18 16 14 12 9 8 7 7 7 8 10 12 13 16 18 20 23 24 25 25 26 26 24 22 15 19 15 13 14 18 19 15 20 24 25 24 28 27 27 34 34 34 36 35 33
22 20 19 18 16 13 11 9 8 8 8 9 11 13 14 16 19 23 26 27 26 24 25 24 23 18 19 37 18 17 18 18 18 16 17 19 26 28 26 24 35 34 29 29 28 34 27
24 20 19 19 16 14 12 10 9 9 9 9 10 12 15 18 20 24 26 25 24 22 20 17 16 12 21 17 16 22 20 24 25 25 27 25 23 29 31 31 31 26 26 24 29 25 26
24 21 20 19 17 14 12 11 9 9 8 8 10 12 15 18 21 23 25 24 17 15 14 13 10 11 17 10 12 11 11 17 17 20 24 25 26 29 23 19 19 22 22 30 28 26 25
24 23 21 19 17 15 13 10 8 7 6 7 9 12 15 18 20 22 22 20 15 16 10 9 12 12 23 11 8 7 9 10 15 17 20 24 24 18 18 17 20 22 26 24 25 23 26
22 22 21 20 18 15 12 9 6 4 4 6 9 12 15 18 18 17 24 26 21 8 8 16 21 26 30 27 32 33 24 25 22 19 17 23 16 21 30 27 28 24 25 25 23 26 25
23 23 20 18 18 15 11 8 6 3 3 6 9 12 14 16 12 17 16 13 12 13 21 24 37 39 39 31 37 31 19 22 22 23 21 18 23 29 27 25 28 29 27 26 22 26 16
27 21 20 20 17 14 11 8 4 2 2 5 9 12 13 15 9 14 11 11 14 16 10 29 13 14 19 20 24 27 20 22 22 24 24 23 26 24 27 28 27 27 27 21 20 20 17
26 25 23 19 17 14 11 8 4 2 1 5 8 12 14 12 8 12 7 15 14 12 6 7 4 5 6 18 18 20 12 22 21 27 24 25 27 24 26 29 27 23 24 21 20 14 11
26 23 22 19 16 14 11 8 6 3 1 5 7 10 11 14 8 9 13 14 12 6 6 8 16 4 22 15 11 26 27 7 20 23 19 27 24 23 26 25 26 22 14 12 12 13 17
23 21 20 19 16 14 11 9 7 3 1 3 6 9 9 8 8 9 15 12 8 4 3 18 21 25 27 29 27 34 29 14 24 20 25 28 25 22 24 19 22 14 4 8 10 12 14
22 20 19 17 15 14 12 10 7 4 1 2 5 7 8 7 8 13 13 8 4 4 23 18 28 24 26 24 19 22 19 18 14 16 23 22 15 25 16 17 18 11 12 3 7 7 12
24 19 17 16 16 14 12 10 7 4 2 1 4 6 4 3 12 9 10 4 6 15 18 23 21 28 20 7 8 21 19 17 14 26 15 16 9 19 11 16 15 18 17 6 8 9 11
21 20 21 17 15 13 11 9 7 5 2 1 5 4 2 8 8 8 10 4 7 14 17 19 22 15 16 17 18 13 14 18 21 22 16 7 11 11 13 9 17 20 19 19 4 6 2
20 19 17 17 14 13 11 9 7 5 2 1 1 3 4 12 6 5 4 6 9 9 13 14 10 10 18 30 16 11 11 9 11 18 4 2 4 6 7 5 7 7 11 8 5 5 3
16 20 13 18 14 13 12 9 8 6 3 2 3 5 1 9 3 6 3 8 11 12 15 8 18 15 20 15 9 9 11 17 11 12 12 5 3 9 6 9 11 2 7 5 8 7 3
18 18 13 17 14 14 12 9 8 7 5 5 1 2 2 2 3 6 3 10 12 15 13 10 8 6 6 16 6 6 8 13 5 19 11 11 6 7 15 9 11 12 7 15 2 6 4
19 19 16 16 14 14 12 10 9 7 4 3 3 2 2 1 3 4 8 8 8 9 9 11 5 5 14 5 7 8 9 16 29 14 7 4 3 2 4 7 5 7 17 14 8 3 3
22 18 16 16 13 13 13 10 10 7 6 5 2 1 1 5 3 7 8 8 9 5 6 15 6 8 11 4 14 5 10 13 23 20 20 9 3 4 2 5 8 7 10 7 3 2 5
21 17 18 16 15 13 14 12 10 9 9 5 2 3 1 2 3 4 9 8 11 10 7 15 7 18 15 8 11 15 8 12 11 24 13 5 9 3 9 17 12 7 7 6 6 3 4
19 19 20 17 17 12 14 14 12 10 11 3 4 3 5 7 4 7 2 6 10 12 9 12 15 17 11 14 16 18 11 8 7 12 7 10 1 8 9 12 21 10 4 10 15 17 18
22 24 18 19 16 12 15 15 13 12 12 1 1 2 4 2 4 4 1 8 11 11 8 15 15 14 12 19 27 26 12 10 4 6 8 10 5 6 10 12 11 11 16 17 19 19 12
20 20 20 18 14 10 15 16 14 14 14 3 4 5 5 4 4 3 6 11 11 10 8 14 16 14 17 27 22 6 1 4 8 7 3 3 7 3 2 1 4 6 18 21 22 20 17
21 22 20 16 13 10 15 17 15 15 13 6 4 3 5 3 9 4 6 9 13 8 9 8 16 19 20 20 5 4 2 6 8 7 6 4 4 2 2 2 10 12 16 14 10 14 18
20 22 18 16 11 13 12 16 16 14 15 11 2 4 1 6 5 6 9 9 6 10 8 12 20 14 21 5 4 7 4 7 5 6 5 6 7 3 2 4 1 6 20 24 14 7 16
21 18 17 18 13 11 12 16 16 14 14 12 5 8 0 3 3 7 8 7 9 9 8 13 22 13 19 6 4 5 4 10 6 8 8 7 5 7 4 3 5 15 23 20 3 4 10
17 18 18 16 15 11 11 15 16 13 12 12 5 4 2 3 9 7 7 6 10 12 7 16 9 10 7 7 5 4 4 5 4 13 9 7 5 5 6 5 4 29 7 6 2 7 10
16 15 17 17 16 12 13 18 18 14 13 10 4 4 7 5 8 12 12 13 11 10 11 9 5 6 6 4 5 4 3 4 9 1 11 5 4 3 6 3 5 11 12 11 11 11 12

GFSGBSN_850_spd_114.txt.gz
Wind_Speed
31 30 28 26 24 22 20 18 15 14 13 12 11 10 11 13 14 15 15 16 18 20 21 22 23 25 23 14 13 6 13 13 11 14 14 13 12 9 6 5 12 17 24 27 32 27 33
36 32 33 30 27 24 21 19 17 16 14 12 12 11 12 13 13 14 15 16 17 18 18 19 18 18 15 7 8 7 8 9 10 13 13 14 10 17 19 17 17 10 18 25 29 36 33
43 36 37 34 28 27 23 21 19 17 14 13 13 12 12 11 11 13 15 15 15 16 15 14 14 12 13 20 11 14 16 21 18 17 18 18 18 16 11 9 14 15 17 22 23 25 16
49 43 40 38 31 28 27 24 20 17 15 13 12 12 10 10 12 13 14 14 15 15 14 12 12 8 10 10 11 14 16 15 15 14 22 21 22 25 18 15 12 12 7 10 19 10 18
54 48 45 40 34 33 29 25 21 17 13 13 11 10 9 10 10 11 13 15 12 11 10 10 9 5 10 10 18 10 23 15 19 21 19 15 17 24 16 2 7 6 15 19 22 4 12
59 52 47 44 39 34 30 27 20 15 15 13 10 8 8 7 8 10 12 13 5 0 1 6 2 7 3 18 23 21 24 24 22 27 25 14 12 7 6 3 13 18 10 13 14 2 10
65 54 48 45 40 36 31 25 22 19 16 11 8 8 5 5 4 10 14 6 3 2 13 8 11 13 18 14 18 24 23 18 19 14 3 9 7 10 13 14 17 13 15 21 18 14 11
64 52 51 45 41 36 28 28 23 19 14 11 9 4 3 2 4 5 9 7 7 7 9 6 4 10 9 10 8 21 17 4 3 3 6 8 14 17 16 15 16 16 18 23 22 24 15
63 55 46 38 38 34 33 27 21 16 14 13 7 4 2 3 6 3 5 8 7 8 2 6 1 3 8 14 18 25 9 7 1 3 5 6 22 14 16 19 19 19 19 17 22 19 20
64 49 44 45 38 38 31 26 20 19 17 11 8 5 1 5 6 4 2 11 4 3 3 3 1 1 8 27 5 18 28 11 6 7 9 9 16 19 20 21 17 15 21 19 20 12 9
54 51 50 44 39 33 33 30 24 19 14 11 9 4 4 7 7 1 7 5 2 3 3 10 2 4 26 9 26 3 22 12 15 13 5 15 12 8 19 18 14 17 21 20 13 11 4
56 51 46 41 39 35 33 28 24 18 14 12 7 5 6 5 5 3 2 4 3 3 1 5 8 17 15 23 12 23 13 17 18 9 9 19 24 13 14 12 12 4 7 11 1 3 7
57 51 41 39 40 39 30 26 21 17 16 9 8 6 7 6 3 3 2 3 2 5 5 5 9 13 19 13 16 9 14 13 7 4 5 7 12 7 11 9 10 5 3 3 1 2 5
45 39 37 33 36 29 26 22 20 19 12 9 8 8 8 3 1 2 3 2 6 2 3 5 9 13 5 11 9 8 7 4 5 12 5 3 7 4 3 9 7 4 9 5 6 4 4
39 38 34 29 27 23 20 20 19 15 13 10 11 12 8 4 2 0 1 5 3 2 4 7 8 4 5 7 8 9 6 5 3 4 7 2 4 4 2 5 4 5 6 7 4 3 3
36 40 30 27 24 20 18 19 15 15 13 13 12 9 5 3 1 2 2 3 2 2 3 4 3 2 6 9 10 5 9 6 14 15 7 3 5 1 6 4 8 11 5 2 2 3 2
25 24 28 24 22 20 18 16 16 15 13 12 12 4 5 3 2 1 3 3 2 6 8 4 3 4 5 6 9 4 9 8 9 12 8 3 3 5 10 5 3 0 4 4 4 3 1
18 24 26 19 19 19 18 17 16 16 13 13 8 2 6 6 0 2 2 3 2 2 8 4 2 4 5 4 5 4 5 7 15 13 7 3 2 7 6 10 2 2 2 4 4 1 3
22 21 22 19 16 17 18 18 16 16 14 13 7 4 6 5 2 2 4 3 2 2 1 2 3 6 4 2 2 5 7 12 20 10 4 2 1 4 1 4 5 3 2 2 8 2 1
21 20 18 18 16 18 19 19 17 15 14 10 4 2 3 6 3 4 1 2 4 3 1 5 5 3 4 3 5 5 4 8 25 9 17 5 3 5 3 4 2 4 8 5 6 4 6
20 18 17 17 16 18 19 18 16 15 13 9 3 2 4 2 2 3 2 0 3 3 3 6 4 3 2 3 6 3 4 11 9 7 7 3 6 8 2 3 13 10 8 10 12 9 4
20 18 17 16 14 19 18 17 15 15 15 6 4 3 3 3 11 4 1 2 1 4 3 6 2 8 2 3 5 9 8 3 6 9 6 6 3 7 12 17 22 20 24 20 16 13 13
18 21 16 18 16 15 17 16 16 16 14 4 2 2 2 1 3 4 4 3 2 3 7 6 3 4 6 5 19 29 23 18 15 5 5 5 3 3 2 7 1 15 16 21 20 18 7
20 20 17 17 16 13 14 17 17 16 12 7 5 3 1 1 2 4 5 3 3 4 3 7 12 5 11 32 27 10 11 9 6 5 7 6 6 2 2 7 6 4 9 19 22 16 14
21 18 17 18 16 13 11 18 18 16 14 10 6 3 2 2 3 7 8 3 6 10 5 3 14 13 24 14 5 5 4 6 5 1 10 3 4 3 1 6 7 8 9 6 6 11 11
18 18 18 18 16 13 9 19 18 15 15 9 6 5 3 5 3 6 4 5 2 4 6 4 17 12 19 3 3 3 3 4 5 10 8 7 11 4 1 4 3 4 17 14 7 8 13
23 20 20 19 15 11 12 19 18 16 15 10 7 5 3 4 4 5 3 0 2 2 1 4 12 9 15 4 4 3 3 3 4 6 7 4 4 6 5 4 4 13 20 4 3 3 10
22 22 20 19 16 12 13 17 17 16 16 11 7 8 5 3 1 1 0 1 1 3 2 6 4 6 6 5 3 2 2 3 2 4 4 6 4 4 3 4 3 26 5 5 6 12 11
22 23 22 18 16 14 11 17 17 15 16 15 8 8 5 2 2 3 6 8 8 1 1 4 1 3 3 3 2 2 2 3 4 3 6 4 3 2 5 3 6 12 17 16 14 12 12

GFSGBSN_850_spd_117.txt.gz
Wind_Speed
41 39 35 31 29 28 27 25 23 22 20 18 15 14 13 15 15 15 14 14 16 17 17 19 20 22 21 10 3 5 10 13 8 7 8 8 8 4 3 4 7 14 11 24 27 31 28
47 45 41 35 34 32 29 27 25 24 21 18 16 15 15 15 14 14 14 15 15 15 16 17 16 18 16 5 5 10 11 11 12 11 9 7 5 8 12 9 8 16 27 28 34 29 21
51 49 48 41 38 35 32 30 27 25 23 20 17 16 15 15 13 12 14 14 14 15 15 14 13 15 15 5 6 6 9 16 8 8 13 14 14 10 3 5 11 10 15 18 23 17 14
55 50 51 48 43 38 35 32 28 28 24 21 17 16 15 13 12 13 13 14 14 16 13 12 12 11 8 3 10 7 8 16 14 9 14 12 13 17 11 10 7 7 6 9 3 10 13
61 56 54 51 49 42 38 36 32 28 24 21 16 15 14 11 11 12 13 13 13 9 9 6 6 5 5 4 11 7 12 15 17 15 17 13 10 16 7 1 6 4 12 14 23 7 12
64 61 60 58 54 49 43 40 34 28 24 19 15 14 12 11 10 11 10 10 4 2 0 1 0 3 2 5 9 11 16 16 10 2 6 8 6 1 2 3 13 10 8 11 12 10 11
68 64 58 57 57 51 45 41 37 27 24 20 16 13 12 8 7 8 6 1 1 3 5 5 3 4 7 6 12 17 20 13 3 0 2 3 1 4 13 9 12 13 15 19 18 18 21
71 69 62 62 60 54 45 38 32 30 26 20 17 16 11 7 6 2 6 6 5 4 6 2 4 10 8 8 12 25 13 7 2 5 1 1 7 15 8 12 12 16 15 18 20 23 14
72 71 66 64 60 55 47 39 32 28 24 20 19 15 10 8 8 2 6 9 3 5 1 5 4 6 4 15 14 18 15 8 7 4 6 6 11 8 13 13 12 15 17 20 18 22 14
74 70 65 68 61 51 42 39 37 25 24 22 17 15 11 9 7 6 4 4 2 2 4 1 1 1 3 21 5 18 3 9 1 3 4 8 6 5 8 12 12 18 12 15 16 15 13
77 75 65 68 60 50 44 41 40 38 25 21 17 14 11 15 9 8 2 4 3 1 1 5 1 0 19 4 16 3 13 4 5 7 3 9 7 8 14 17 10 16 11 11 20 15 9
78 80 74 67 59 50 46 42 38 34 27 21 18 13 12 12 10 5 5 4 6 4 2 4 4 7 10 6 5 8 6 7 9 5 7 22 24 10 20 18 12 11 3 7 13 6 5
77 71 67 62 54 51 46 42 40 32 26 22 16 13 13 10 11 6 6 7 4 3 4 4 4 7 7 8 6 6 7 7 1 7 4 8 7 8 17 13 12 5 3 3 3 1 5
72 76 66 56 54 47 48 43 37 29 27 20 15 13 12 11 7 7 9 3 3 3 2 2 4 6 4 8 4 8 5 5 6 4 4 3 7 3 3 8 7 7 7 4 3 3 4
64 56 58 54 46 42 45 42 34 30 23 19 16 13 11 9 7 7 6 3 4 3 1 3 3 4 4 3 2 6 4 4 2 1 4 3 5 3 3 1 6 4 6 10 4 6 2
43 42 39 38 40 44 42 36 30 26 22 20 18 12 10 7 8 6 4 3 4 2 3 4 2 0 2 6 6 6 6 3 6 6 8 4 6 2 5 5 7 7 1 1 1 3 5
22 29 35 34 33 38 34 31 27 24 23 20 18 6 9 5 7 3 3 4 3 3 5 4 3 1 4 4 3 5 4 9 6 9 11 7 4 7 8 4 5 2 2 5 3 1 2
31 32 31 32 32 27 28 28 25 25 22 21 13 2 10 7 4 3 2 4 2 3 4 3 3 4 5 2 3 3 4 5 12 16 9 3 3 4 4 11 7 3 5 4 3 3 2
29 25 25 25 25 25 24 25 25 24 23 18 9 6 6 8 3 0 3 0 3 2 2 3 2 5 2 3 2 4 5 10 22 10 4 3 2 6 3 2 3 3 3 4 6 2 4
24 24 21 21 22 23 21 24 23 23 24 14 7 3 3 3 2 4 3 1 2 0 2 3 3 2 2 1 3 4 4 8 24 8 15 1 2 6 4 4 7 5 5 9 6 4 3
21 21 20 19 19 22 21 22 23 23 21 11 3 2 5 2 2 3 2 2 2 1 1 1 2 2 2 2 3 4 4 8 10 4 8 3 5 11 20 16 20 16 4 10 14 9 5
21 19 20 17 18 22 21 21 22 22 20 6 5 5 4 5 10 5 1 4 3 2 3 3 1 5 3 4 7 7 4 2 7 7 6 3 1 3 6 11 25 23 23 18 21 15 11
23 20 18 17 18 22 22 21 22 21 20 6 9 9 5 1 3 4 3 4 3 2 2 4 1 2 2 8 15 27 22 17 11 6 4 3 3 2 4 5 7 14 16 16 16 16 5
23 24 20 18 19 21 22 21 21 21 13 14 14 9 5 1 3 4 4 3 1 0 2 3 5 1 7 27 23 7 7 12 11 7 14 6 5 2 1 2 6 2 11 10 20 15 12
22 21 18 21 19 19 20 20 20 19 16 15 15 7 4 2 1 5 5 3 1 3 3 1 5 10 16 11 4 5 5 4 1 5 8 6 1 2 2 5 5 4 8 6 7 9 12
24 22 22 21 19 17 19 20 21 20 17 14 13 9 5 9 1 2 3 2 1 2 5 2 7 9 13 3 3 3 3 4 4 8 5 6 11 3 2 3 2 4 12 11 6 5 11
25 23 22 21 18 16 16 21 20 21 17 14 11 9 6 6 3 4 2 2 1 1 0 4 8 8 11 3 3 3 2 4 3 5 5 5 4 6 4 3 3 11 14 4 1 1 7
25 24 21 21 18 14 17 21 20 20 18 15 11 8 7 4 7 5 3 2 2 2 2 4 3 4 4 4 2 2 2 2 1 2 4 4 4 4 3 4 3 20 3 3 7 8 9
26 24 24 21 18 14 19 21 20 20 18 15 11 8 8 4 4 4 1 4 5 1 1 3 3 1 2 3 1 1 2 2 2 3 5 4 3 2 5 3 5 10 14 13 11 11 9

GFSGBSN_850_spd_120.txt.gz
Wind_Speed
43 42 38 38 36 32 29 29 26 25 23 21 20 18 16 16 15 15 15 14 15 15 16 17 19 20 17 7 2 3 7 9 7 6 8 6 3 2 3 4 8 5 4 13 14 23 24
47 46 42 42 41 38 35 33 28 28 25 22 21 19 17 15 16 16 15 14 15 16 17 18 19 19 14 3 2 5 5 9 9 10 7 6 3 4 6 5 3 7 19 17 17 19 17
51 51 48 53 42 44 42 36 31 30 27 24 23 20 19 16 16 15 14 14 14 16 17 17 15 15 12 2 4 4 3 8 7 7 5 4 6 7 0 6 10 9 15 17 10 5 5
50 56 50 56 49 51 46 39 36 33 29 28 23 21 19 17 15 15 14 14 14 16 13 9 8 9 4 4 6 3 6 10 12 12 10 6 7 6 6 8 7 5 5 8 2 11 10
50 53 59 58 52 54 47 46 41 36 32 29 25 22 20 16 13 13 13 11 13 11 7 4 4 4 1 2 4 6 11 15 14 10 9 8 8 3 2 2 5 0 10 9 22 1 12
52 58 56 63 58 55 52 51 47 40 35 30 24 23 20 15 12 12 8 7 5 4 1 2 1 1 2 0 8 12 15 15 9 4 3 1 0 2 1 3 12 4 7 6 14 5 15
53 55 55 60 65 59 53 56 51 42 35 28 27 21 18 12 11 9 4 4 4 3 3 3 4 2 2 4 13 15 11 8 2 1 1 2 1 8 11 10 13 8 13 16 17 20 23
50 57 61 65 68 57 62 53 53 44 36 29 26 20 15 12 9 6 5 5 5 2 2 4 6 8 4 5 9 8 4 7 1 5 2 2 10 13 7 7 9 12 12 17 18 20 18
57 56 61 62 67 63 63 58 54 48 38 36 26 19 17 11 11 8 4 4 3 2 3 3 5 3 2 11 6 7 6 3 3 4 4 8 8 4 7 9 8 14 11 14 14 19 15
63 61 64 67 67 73 56 63 54 48 41 37 27 23 14 14 12 10 5 3 5 5 4 2 3 1 3 12 2 13 2 7 1 5 4 7 6 6 6 6 7 11 6 13 15 10 8
56 53 62 62 73 70 60 65 61 48 41 34 30 21 19 18 8 17 6 8 7 3 1 1 3 3 14 3 8 3 9 1 5 5 2 8 4 5 11 17 7 10 8 13 14 10 12
41 45 58 69 70 71 73 68 61 46 43 36 28 26 19 19 15 12 12 9 8 4 4 3 2 4 5 3 2 6 5 5 5 4 4 10 7 3 7 11 7 7 7 12 9 5 7
31 38 61 69 69 71 76 68 56 46 45 37 33 26 20 21 16 12 14 11 2 4 0 2 2 3 1 4 4 3 4 4 2 5 4 7 3 4 5 3 3 4 4 4 3 1 6
23 48 61 69 76 74 72 65 53 48 42 42 31 26 22 18 18 16 16 3 3 3 2 3 3 2 2 6 4 5 5 4 3 1 3 3 6 2 4 5 3 5 6 3 4 3 8
31 54 68 76 75 68 61 56 53 47 40 34 29 23 21 19 16 17 9 3 4 4 4 3 4 4 4 3 0 5 4 0 2 4 2 4 6 2 3 3 5 2 5 11 7 7 6
46 52 62 62 62 63 53 49 52 48 40 30 29 22 18 16 16 14 3 4 3 4 4 3 3 1 1 3 4 5 3 2 3 2 7 3 7 3 1 3 8 12 3 1 1 4 3
36 40 46 48 45 45 50 48 47 40 34 33 31 11 15 16 14 5 4 3 5 5 5 3 3 3 3 3 2 2 4 6 2 6 10 7 5 4 2 6 4 2 3 4 4 5 1
11 11 13 17 23 31 39 43 38 36 37 36 13 4 18 18 4 2 4 4 7 4 5 4 4 3 5 3 1 1 3 2 8 10 10 4 4 4 11 5 5 4 5 5 3 4 2
24 26 29 32 33 37 36 34 37 37 38 22 9 10 11 10 4 1 2 3 3 4 3 4 3 3 2 4 2 4 3 9 13 6 3 5 3 5 7 2 1 3 2 1 2 2 3
22 24 27 28 28 31 32 33 34 35 30 15 9 3 4 3 4 6 5 3 4 4 4 4 3 4 3 2 2 2 3 5 12 4 13 0 2 7 5 7 8 6 6 3 3 3 4
20 21 21 25 25 26 28 30 31 33 23 9 4 3 6 3 1 5 4 3 5 4 3 3 2 3 4 0 3 3 4 6 4 3 7 1 2 2 5 17 14 17 11 10 12 7 4
18 20 15 20 22 22 25 28 27 27 19 4 6 5 6 5 16 7 2 2 5 3 4 0 4 2 5 5 6 4 3 2 3 6 4 1 3 3 3 3 13 20 21 17 16 13 11
17 15 12 14 21 20 24 23 24 24 16 5 9 14 10 3 3 4 4 5 5 6 3 4 3 1 2 7 13 19 18 14 9 4 3 2 4 3 3 11 5 8 15 15 15 16 5
18 16 14 15 20 21 21 23 24 21 15 10 18 10 7 2 4 4 5 3 4 3 5 3 2 1 3 19 20 3 6 11 13 11 11 4 3 2 3 2 5 1 7 9 18 13 10
22 19 15 14 20 19 20 23 19 16 13 14 17 8 6 3 5 5 7 5 6 4 2 2 1 5 13 10 4 2 3 2 2 2 4 2 3 0 2 4 3 2 6 5 5 8 10
23 19 17 15 21 20 20 20 20 17 16 16 15 12 10 11 1 8 5 4 3 1 2 2 1 5 8 2 3 2 1 0 3 7 3 4 10 1 1 2 2 2 9 7 9 3 10
23 22 20 17 17 18 20 20 20 19 16 14 14 14 14 10 5 7 4 4 4 3 1 2 5 5 8 2 2 2 1 2 2 4 5 4 3 6 4 3 3 7 13 4 2 1 9
23 23 22 19 16 17 21 21 21 18 15 13 15 13 11 8 9 8 7 7 5 3 3 1 3 3 4 3 2 1 1 1 2 2 3 3 4 3 2 2 1 18 3 2 6 8 9
26 25 23 20 16 14 21 21 21 18 15 12 14 12 13 8 9 9 6 4 4 4 4 2 3 1 1 3 1 2 1 2 1 1 3 2 2 2 4 2 3 9 13 10 7 9 8

GFSGBSN_850_spd_123.txt.gz
Wind_Speed
37 35 36 35 34 33 31 29 28 26 27 26 22 23 19 17 16 15 15 15 13 14 15 16 17 15 9 3 2 2 7 9 8 7 7 6 4 2 2 2 7 7 3 5 12 17 19
34 38 39 40 40 38 35 33 33 31 28 27 26 24 22 18 17 17 16 14 14 14 14 15 16 14 8 2 3 2 6 9 10 9 7 5 1 1 2 2 3 5 13 16 15 20 18
41 37 39 44 46 42 40 39 37 36 33 29 27 25 23 20 18 18 16 13 14 13 13 14 13 10 4 3 5 4 4 7 7 6 6 5 3 3 2 3 5 8 16 19 14 4 4
38 39 44 42 44 46 44 40 42 40 37 33 28 26 23 20 18 17 17 13 13 12 12 9 8 5 4 5 5 6 6 8 10 8 5 4 3 1 4 4 6 8 8 6 4 16 8
36 39 40 44 41 45 51 44 44 41 37 38 31 29 25 21 17 16 16 12 11 10 6 4 2 2 4 6 5 6 9 11 7 4 4 4 2 2 0 2 6 1 12 16 16 10 16
33 36 39 44 49 52 52 51 49 45 42 42 36 30 25 20 16 14 11 9 6 5 3 0 3 4 5 4 1 8 6 5 3 2 3 3 1 1 1 2 7 12 15 18 18 7 17
37 35 38 39 45 51 50 51 51 52 44 43 39 33 24 19 15 12 8 5 4 3 6 3 3 4 5 0 4 6 4 6 3 3 1 1 4 8 9 11 16 16 18 22 25 27 18
45 48 44 44 42 53 57 60 57 57 46 47 41 32 22 18 17 12 10 7 8 3 4 6 7 5 3 3 4 4 2 3 1 4 3 1 8 9 7 9 10 11 13 22 21 20 14
47 54 53 55 49 45 57 52 63 63 47 50 44 36 27 20 15 12 11 11 8 6 2 3 5 4 5 5 1 2 2 2 2 2 5 5 4 3 6 11 13 14 15 17 16 23 25
54 59 60 56 56 55 53 49 65 51 50 49 45 35 29 23 18 14 12 10 9 7 2 4 4 5 2 2 2 4 4 1 2 1 2 6 5 4 4 9 11 16 9 12 14 14 8
56 64 63 65 62 55 54 63 62 52 60 48 49 39 36 26 11 21 12 12 10 5 3 4 4 8 3 3 1 2 7 2 3 3 2 3 3 6 7 8 10 7 5 12 14 14 14
59 67 65 57 49 48 54 64 67 65 62 47 46 39 36 29 17 16 15 15 10 2 6 3 3 3 4 3 2 4 1 1 0 0 4 15 5 4 5 3 11 3 8 12 9 6 5
63 64 49 40 39 42 56 66 72 71 52 54 46 42 38 30 24 21 19 16 3 4 1 4 3 3 3 3 2 5 3 3 3 4 4 5 3 2 4 3 1 5 4 3 2 3 5
65 41 30 33 37 42 64 70 72 62 53 54 45 39 32 28 24 25 24 3 5 3 3 4 4 5 3 3 2 4 0 2 1 2 3 4 6 5 5 5 1 6 4 2 4 4 11
47 20 22 24 33 53 69 71 67 63 60 50 42 35 29 31 29 27 14 2 5 4 7 7 4 3 2 2 2 2 2 1 0 1 4 3 6 4 6 4 3 2 5 3 4 8 6
43 14 12 24 51 65 70 71 66 65 55 50 45 35 28 27 27 26 2 3 3 4 8 4 4 1 3 0 2 2 1 1 1 2 6 2 8 5 1 1 9 14 1 1 2 4 4
33 47 33 47 61 69 68 59 58 57 57 48 41 15 21 24 22 15 3 4 4 10 10 4 4 4 4 3 2 2 0 2 2 2 3 4 5 7 6 6 5 3 4 5 3 3 3
11 27 36 45 46 49 55 58 58 56 53 51 18 5 25 27 5 2 3 6 9 7 7 4 4 3 4 5 3 3 2 3 4 1 4 1 4 6 11 16 3 2 4 9 4 3 1
2 7 6 13 17 26 38 42 46 54 49 28 11 13 21 19 4 3 2 3 5 4 4 4 3 2 3 4 3 3 3 6 5 1 1 3 2 6 8 3 5 4 2 4 7 1 2
9 13 13 20 24 29 35 42 51 49 29 23 11 4 6 8 3 6 7 5 5 7 5 5 5 5 3 2 0 2 2 3 4 3 5 4 1 1 3 4 8 8 10 6 2 2 5
14 17 21 24 28 31 34 41 43 37 20 11 4 4 9 4 3 5 4 4 10 5 4 5 2 3 4 3 2 2 3 4 3 1 2 1 2 4 7 11 16 15 17 11 7 4 4
14 18 21 21 26 30 30 32 43 28 12 4 7 8 6 6 15 10 3 4 6 4 4 2 5 6 5 4 4 3 3 2 2 3 3 1 1 2 2 4 8 16 17 9 13 15 12
15 17 18 17 21 23 25 32 32 21 8 3 10 20 13 2 3 5 3 5 6 8 5 9 7 3 3 3 7 11 11 9 6 3 3 1 3 2 0 5 3 5 10 11 14 14 4
15 12 12 16 18 22 26 27 27 19 6 10 17 11 8 3 3 4 7 9 8 4 6 6 7 3 2 9 9 3 2 7 8 9 9 4 2 2 2 3 3 3 4 11 15 11 9
17 11 10 12 16 21 24 24 22 18 6 15 12 7 6 4 8 8 11 7 12 9 4 5 3 1 6 5 2 3 1 2 3 4 2 8 2 1 2 3 3 4 3 3 3 7 8
20 16 12 12 17 19 19 17 17 16 12 10 10 11 12 12 1 13 7 9 4 3 2 3 2 1 2 2 2 2 2 2 2 1 4 2 4 2 2 3 4 3 6 5 5 3 7
20 15 12 15 23 20 19 18 18 16 13 11 11 16 15 11 6 9 4 5 7 5 3 2 1 1 3 2 2 1 2 1 1 2 3 2 3 4 3 2 2 6 10 3 2 3 7
23 17 14 13 20 19 19 20 19 16 13 12 14 14 11 9 10 11 9 11 9 6 3 5 3 2 2 3 2 2 2 2 2 2 2 1 0 2 0 1 2 11 1 1 7 9 8
23 23 18 14 14 17 19 20 19 15 14 14 17 15 23 12 15 15 14 12 11 9 12 4 4 3 3 3 1 2 2 1 2 2 2 1 1 2 2 2 3 6 11 9 8 11 8

GFSGBSN_850_spd_126.txt.gz
Wind_Speed
31 32 35 34 34 29 30 27 26 26 24 23 22 21 19 17 16 17 16 15 15 15 15 14 14 13 7 3 2 2 4 6 5 4 3 3 3 3 4 4 8 12 9 8 10 16 19
34 37 32 34 34 38 32 31 32 28 28 27 26 24 22 18 18 17 16 15 15 13 15 14 14 11 5 7 5 3 4 5 4 4 4 3 2 2 5 5 6 5 12 17 18 18 23
36 36 39 38 35 37 35 37 34 33 30 28 29 28 25 21 18 19 15 16 14 13 14 14 12 7 2 2 5 6 2 3 2 2 1 2 1 3 2 6 4 9 17 16 11 2 9
34 36 35 37 41 34 33 40 33 38 34 35 31 31 28 24 19 18 16 15 12 13 13 11 8 3 2 6 5 6 1 4 6 3 1 2 2 4 5 4 8 10 10 5 7 9 7
24 29 32 34 35 39 42 38 40 39 36 37 33 33 30 27 19 18 17 12 11 10 9 7 4 2 3 9 6 2 3 3 2 3 3 3 2 4 4 6 9 7 9 12 10 5 13
27 29 29 32 34 36 37 42 41 42 39 41 39 33 30 30 18 17 15 10 8 8 6 4 4 3 7 8 5 1 3 2 2 4 4 2 3 6 6 7 9 14 17 16 16 6 15
26 28 30 32 34 34 34 33 39 46 48 48 45 36 34 28 20 18 13 7 4 4 9 6 4 2 6 5 4 0 3 1 2 3 3 2 6 7 9 8 11 14 16 21 17 13 16
29 31 34 36 37 37 36 35 33 41 43 52 49 36 36 31 26 19 15 10 7 4 5 10 9 7 7 6 3 3 3 3 4 4 3 5 6 3 3 5 8 12 16 20 17 5 15
31 32 34 37 40 39 36 36 39 37 44 55 51 38 36 28 23 23 20 16 10 5 6 5 8 8 6 4 2 6 3 2 4 3 3 6 2 3 7 7 9 13 15 18 22 19 17
27 32 37 43 48 49 46 43 43 36 46 53 52 52 41 33 25 23 20 15 8 5 5 9 9 7 8 5 5 5 4 2 4 3 2 6 1 5 7 8 7 13 7 11 13 15 12
30 38 43 46 51 52 52 49 49 45 47 58 55 55 48 38 28 30 20 16 10 9 5 10 8 11 6 5 8 7 3 4 5 3 4 5 4 6 8 5 3 5 6 10 11 14 16
30 39 48 52 53 55 58 61 54 50 50 62 61 56 46 38 25 27 21 18 11 4 9 8 9 11 10 6 6 4 5 3 1 4 7 11 4 6 10 5 7 8 9 12 11 8 6
32 41 53 57 56 62 65 60 53 49 56 66 66 56 48 37 26 29 25 24 4 6 7 9 9 10 9 8 8 4 7 6 3 4 4 3 7 4 10 10 3 4 6 3 3 5 6
31 45 58 59 59 52 43 38 44 50 68 70 66 51 47 33 32 34 35 6 9 13 8 7 10 13 7 6 4 5 8 6 2 1 1 2 6 11 10 6 6 3 6 5 5 5 11
27 45 59 50 33 27 27 29 41 68 74 62 53 46 37 32 38 37 26 7 9 8 11 15 14 10 5 5 4 5 6 5 5 4 1 1 5 5 9 10 5 2 6 2 8 10 6
21 38 52 34 24 27 29 32 60 76 69 61 50 38 35 36 36 33 12 15 10 5 11 15 6 5 9 10 8 9 9 5 8 4 1 3 5 5 2 3 12 12 7 4 5 4 5
14 31 25 12 12 16 31 54 76 73 65 52 47 16 29 34 33 27 11 16 5 13 10 5 6 7 6 6 6 6 6 7 5 5 3 2 4 2 6 4 6 5 9 8 5 6 4
13 16 17 29 22 32 59 74 70 66 61 51 22 5 40 38 15 16 11 8 9 14 6 4 6 7 6 6 5 4 5 4 7 2 2 2 2 4 8 6 4 8 11 12 5 4 4
9 6 9 20 34 41 61 66 64 63 55 36 11 17 34 27 7 12 8 11 8 13 10 7 5 3 4 4 3 2 4 4 4 2 0 4 3 4 1 5 4 5 5 11 10 8 7
4 2 6 18 22 31 45 56 55 38 34 35 12 6 11 11 4 15 14 14 8 9 5 6 8 5 7 3 2 5 4 3 3 5 4 5 2 1 2 2 7 10 15 14 10 3 5
2 5 10 14 21 29 33 35 37 31 30 24 7 7 15 11 9 11 11 16 17 8 5 8 3 5 6 5 4 3 3 4 5 5 5 3 4 7 12 9 12 10 12 10 4 4 2
5 5 10 17 25 29 31 41 35 32 20 11 8 11 11 26 20 17 10 16 21 9 8 8 11 11 6 6 3 6 6 5 4 5 3 3 3 5 8 7 5 11 13 8 13 14 13
7 11 14 17 21 27 43 32 25 16 7 3 18 20 15 13 17 15 11 19 16 12 5 8 16 10 7 6 3 0 4 3 1 0 3 2 1 3 4 4 5 2 7 8 11 10 4
15 16 17 20 23 30 34 26 20 10 5 10 21 13 13 10 15 11 16 17 17 7 11 12 10 6 5 3 2 4 5 6 7 6 4 1 1 3 2 6 4 6 7 10 12 9 9
16 15 15 15 19 23 28 24 15 9 3 14 12 7 7 12 14 14 19 18 17 15 14 12 4 5 4 3 4 5 4 5 6 5 5 3 1 3 3 1 6 7 5 3 2 4 4
20 15 13 14 18 24 27 25 18 9 7 7 8 12 15 14 7 24 17 21 13 9 7 4 6 5 3 2 3 6 5 4 5 6 5 4 2 4 4 4 6 6 4 2 3 4 3
21 17 13 16 19 24 23 19 16 10 8 6 10 17 11 14 9 18 10 11 9 6 5 6 6 4 2 4 4 4 4 1 5 5 4 3 2 4 3 2 4 3 3 5 5 4 6
24 17 12 16 22 19 19 18 15 11 9 8 12 15 13 11 8 8 10 8 8 9 7 9 6 2 3 5 4 3 3 2 3 2 2 2 2 3 2 3 4 2 5 4 9 12 11
23 18 13 19 22 18 19 17 15 14 13 11 14 15 25 13 13 19 16 11 8 7 11 7 2 6 3 3 2 3 3 3 4 4 2 3 3 2 4 4 5 7 11 13 11 14 12